<?xml version="1.0" encoding="UTF-8" standalone="no" ?>
<gpx xmlns="http://www.topografix.com/GPX/1/1" xmlns:xsi="http://www.w3.org/2001/XMLSchema-instance" xsi:schemaLocation="http://www.topografix.com/GPX/1/1 http://www.topografix.com/GPX/1/1/gpx.xsd" version="1.1" creator="VisuGPX - https://www.visugpx.com">
  <metadata>
    <name>Boucle epic enduro</name>
    <desc><![CDATA[4 spéciales de l'épic enduro
Trotinette   fenouillèdes / Mézeille / Chasseurs / Mienne basse
Attention, fin de fenouillède passe dans des propriétés privées]]></desc>
  </metadata>
  <trk>
    <name><![CDATA[Sortie à vélo matinale | Ride | Strava]]></name>
    <trkseg>
      <trkpt lat="43.55629" lon="2.91605">
        <ele>186</ele>
        <time>2018-04-07T08:38:00.000Z</time>
      </trkpt>
      <trkpt lat="43.55629" lon="2.91605">
        <ele>186</ele>
        <time>2018-04-07T08:38:02.000Z</time>
      </trkpt>
      <trkpt lat="43.55624" lon="2.91595">
        <ele>186</ele>
        <time>2018-04-07T08:38:09.000Z</time>
      </trkpt>
      <trkpt lat="43.55602" lon="2.91603">
        <ele>186</ele>
        <time>2018-04-07T08:38:20.000Z</time>
      </trkpt>
      <trkpt lat="43.55595" lon="2.91592">
        <ele>186.4</ele>
        <time>2018-04-07T08:38:26.000Z</time>
      </trkpt>
      <trkpt lat="43.55589" lon="2.91556">
        <ele>189.4</ele>
        <time>2018-04-07T08:38:36.000Z</time>
      </trkpt>
      <trkpt lat="43.55581" lon="2.91526">
        <ele>191</ele>
        <time>2018-04-07T08:38:46.000Z</time>
      </trkpt>
      <trkpt lat="43.55574" lon="2.91502">
        <ele>192.8</ele>
        <time>2018-04-07T08:38:56.000Z</time>
      </trkpt>
      <trkpt lat="43.55567" lon="2.91472">
        <ele>195</ele>
        <time>2018-04-07T08:39:06.000Z</time>
      </trkpt>
      <trkpt lat="43.55559" lon="2.91444">
        <ele>197.7</ele>
        <time>2018-04-07T08:39:16.000Z</time>
      </trkpt>
      <trkpt lat="43.55553" lon="2.91417">
        <ele>199.8</ele>
        <time>2018-04-07T08:39:26.000Z</time>
      </trkpt>
      <trkpt lat="43.5555" lon="2.9139">
        <ele>202</ele>
        <time>2018-04-07T08:39:36.000Z</time>
      </trkpt>
      <trkpt lat="43.55544" lon="2.91361">
        <ele>202.6</ele>
        <time>2018-04-07T08:39:46.000Z</time>
      </trkpt>
      <trkpt lat="43.55538" lon="2.91325">
        <ele>203.7</ele>
        <time>2018-04-07T08:39:56.000Z</time>
      </trkpt>
      <trkpt lat="43.55531" lon="2.91291">
        <ele>203.6</ele>
        <time>2018-04-07T08:40:06.000Z</time>
      </trkpt>
      <trkpt lat="43.55515" lon="2.91264">
        <ele>203.5</ele>
        <time>2018-04-07T08:40:16.000Z</time>
      </trkpt>
      <trkpt lat="43.55497" lon="2.91237">
        <ele>203.4</ele>
        <time>2018-04-07T08:40:26.000Z</time>
      </trkpt>
      <trkpt lat="43.55471" lon="2.91196">
        <ele>202.2</ele>
        <time>2018-04-07T08:40:36.000Z</time>
      </trkpt>
      <trkpt lat="43.55425" lon="2.91149">
        <ele>198</ele>
        <time>2018-04-07T08:40:45.000Z</time>
      </trkpt>
      <trkpt lat="43.5542" lon="2.91145">
        <ele>197.6</ele>
        <time>2018-04-07T08:40:46.000Z</time>
      </trkpt>
      <trkpt lat="43.55399" lon="2.91131">
        <ele>196.3</ele>
        <time>2018-04-07T08:40:50.000Z</time>
      </trkpt>
      <trkpt lat="43.55369" lon="2.91122">
        <ele>194.6</ele>
        <time>2018-04-07T08:40:56.000Z</time>
      </trkpt>
      <trkpt lat="43.55327" lon="2.91098">
        <ele>194.1</ele>
        <time>2018-04-07T08:41:06.000Z</time>
      </trkpt>
      <trkpt lat="43.55288" lon="2.91073">
        <ele>194.1</ele>
        <time>2018-04-07T08:41:16.000Z</time>
      </trkpt>
      <trkpt lat="43.55256" lon="2.91055">
        <ele>196.9</ele>
        <time>2018-04-07T08:41:26.000Z</time>
      </trkpt>
      <trkpt lat="43.55228" lon="2.91028">
        <ele>199.5</ele>
        <time>2018-04-07T08:41:36.000Z</time>
      </trkpt>
      <trkpt lat="43.55206" lon="2.91001">
        <ele>201.2</ele>
        <time>2018-04-07T08:41:46.000Z</time>
      </trkpt>
      <trkpt lat="43.55182" lon="2.90986">
        <ele>202.8</ele>
        <time>2018-04-07T08:41:56.000Z</time>
      </trkpt>
      <trkpt lat="43.55163" lon="2.90967">
        <ele>204.6</ele>
        <time>2018-04-07T08:42:06.000Z</time>
      </trkpt>
      <trkpt lat="43.55152" lon="2.90939">
        <ele>207.1</ele>
        <time>2018-04-07T08:42:16.000Z</time>
      </trkpt>
      <trkpt lat="43.55142" lon="2.90906">
        <ele>208.4</ele>
        <time>2018-04-07T08:42:26.000Z</time>
      </trkpt>
      <trkpt lat="43.55127" lon="2.90877">
        <ele>210.1</ele>
        <time>2018-04-07T08:42:36.000Z</time>
      </trkpt>
      <trkpt lat="43.55108" lon="2.90852">
        <ele>211.9</ele>
        <time>2018-04-07T08:42:46.000Z</time>
      </trkpt>
      <trkpt lat="43.55099" lon="2.90838">
        <ele>212.2</ele>
        <time>2018-04-07T08:42:56.000Z</time>
      </trkpt>
      <trkpt lat="43.5509" lon="2.90802">
        <ele>212.9</ele>
        <time>2018-04-07T08:43:06.000Z</time>
      </trkpt>
      <trkpt lat="43.55083" lon="2.90765">
        <ele>214.6</ele>
        <time>2018-04-07T08:43:16.000Z</time>
      </trkpt>
      <trkpt lat="43.55075" lon="2.90735">
        <ele>216.3</ele>
        <time>2018-04-07T08:43:26.000Z</time>
      </trkpt>
      <trkpt lat="43.55062" lon="2.90709">
        <ele>218.8</ele>
        <time>2018-04-07T08:43:36.000Z</time>
      </trkpt>
      <trkpt lat="43.55048" lon="2.90685">
        <ele>220.3</ele>
        <time>2018-04-07T08:43:46.000Z</time>
      </trkpt>
      <trkpt lat="43.55036" lon="2.90658">
        <ele>221.3</ele>
        <time>2018-04-07T08:43:56.000Z</time>
      </trkpt>
      <trkpt lat="43.55023" lon="2.90629">
        <ele>222.6</ele>
        <time>2018-04-07T08:44:06.000Z</time>
      </trkpt>
      <trkpt lat="43.55014" lon="2.90599">
        <ele>223.7</ele>
        <time>2018-04-07T08:44:16.000Z</time>
      </trkpt>
      <trkpt lat="43.5501" lon="2.90569">
        <ele>225.1</ele>
        <time>2018-04-07T08:44:26.000Z</time>
      </trkpt>
      <trkpt lat="43.55007" lon="2.90538">
        <ele>227.1</ele>
        <time>2018-04-07T08:44:36.000Z</time>
      </trkpt>
      <trkpt lat="43.55007" lon="2.90506">
        <ele>229</ele>
        <time>2018-04-07T08:44:46.000Z</time>
      </trkpt>
      <trkpt lat="43.55" lon="2.90475">
        <ele>231</ele>
        <time>2018-04-07T08:44:56.000Z</time>
      </trkpt>
      <trkpt lat="43.54984" lon="2.90444">
        <ele>232.6</ele>
        <time>2018-04-07T08:45:06.000Z</time>
      </trkpt>
      <trkpt lat="43.54967" lon="2.90419">
        <ele>233.5</ele>
        <time>2018-04-07T08:45:16.000Z</time>
      </trkpt>
      <trkpt lat="43.54948" lon="2.90396">
        <ele>235.6</ele>
        <time>2018-04-07T08:45:26.000Z</time>
      </trkpt>
      <trkpt lat="43.54932" lon="2.90373">
        <ele>237.5</ele>
        <time>2018-04-07T08:45:36.000Z</time>
      </trkpt>
      <trkpt lat="43.54916" lon="2.90353">
        <ele>238.4</ele>
        <time>2018-04-07T08:45:46.000Z</time>
      </trkpt>
      <trkpt lat="43.54897" lon="2.90338">
        <ele>241.2</ele>
        <time>2018-04-07T08:45:56.000Z</time>
      </trkpt>
      <trkpt lat="43.5488" lon="2.90319">
        <ele>244.2</ele>
        <time>2018-04-07T08:46:06.000Z</time>
      </trkpt>
      <trkpt lat="43.54865" lon="2.90298">
        <ele>246.6</ele>
        <time>2018-04-07T08:46:16.000Z</time>
      </trkpt>
      <trkpt lat="43.5485" lon="2.90278">
        <ele>248.5</ele>
        <time>2018-04-07T08:46:26.000Z</time>
      </trkpt>
      <trkpt lat="43.54838" lon="2.90259">
        <ele>250.7</ele>
        <time>2018-04-07T08:46:36.000Z</time>
      </trkpt>
      <trkpt lat="43.54823" lon="2.90239">
        <ele>252.9</ele>
        <time>2018-04-07T08:46:46.000Z</time>
      </trkpt>
      <trkpt lat="43.54808" lon="2.90219">
        <ele>255.3</ele>
        <time>2018-04-07T08:46:56.000Z</time>
      </trkpt>
      <trkpt lat="43.54793" lon="2.902">
        <ele>257.1</ele>
        <time>2018-04-07T08:47:06.000Z</time>
      </trkpt>
      <trkpt lat="43.5479" lon="2.90201">
        <ele>257.3</ele>
        <time>2018-04-07T08:47:08.000Z</time>
      </trkpt>
      <trkpt lat="43.54787" lon="2.90213">
        <ele>257.8</ele>
        <time>2018-04-07T08:47:14.000Z</time>
      </trkpt>
      <trkpt lat="43.5479" lon="2.90217">
        <ele>258.1</ele>
        <time>2018-04-07T08:47:16.000Z</time>
      </trkpt>
      <trkpt lat="43.54802" lon="2.90236">
        <ele>259.9</ele>
        <time>2018-04-07T08:47:26.000Z</time>
      </trkpt>
      <trkpt lat="43.54814" lon="2.90256">
        <ele>261.2</ele>
        <time>2018-04-07T08:47:36.000Z</time>
      </trkpt>
      <trkpt lat="43.54825" lon="2.90282">
        <ele>262</ele>
        <time>2018-04-07T08:47:46.000Z</time>
      </trkpt>
      <trkpt lat="43.54837" lon="2.90309">
        <ele>263.7</ele>
        <time>2018-04-07T08:47:56.000Z</time>
      </trkpt>
      <trkpt lat="43.54844" lon="2.90333">
        <ele>264.3</ele>
        <time>2018-04-07T08:48:05.000Z</time>
      </trkpt>
      <trkpt lat="43.54846" lon="2.90335">
        <ele>264.4</ele>
        <time>2018-04-07T08:48:06.000Z</time>
      </trkpt>
      <trkpt lat="43.54856" lon="2.90361">
        <ele>266.2</ele>
        <time>2018-04-07T08:48:16.000Z</time>
      </trkpt>
      <trkpt lat="43.54866" lon="2.90386">
        <ele>267.8</ele>
        <time>2018-04-07T08:48:26.000Z</time>
      </trkpt>
      <trkpt lat="43.54877" lon="2.90412">
        <ele>268.5</ele>
        <time>2018-04-07T08:48:36.000Z</time>
      </trkpt>
      <trkpt lat="43.54886" lon="2.90437">
        <ele>270.3</ele>
        <time>2018-04-07T08:48:46.000Z</time>
      </trkpt>
      <trkpt lat="43.54893" lon="2.90463">
        <ele>272.6</ele>
        <time>2018-04-07T08:48:56.000Z</time>
      </trkpt>
      <trkpt lat="43.54897" lon="2.90488">
        <ele>274.7</ele>
        <time>2018-04-07T08:49:06.000Z</time>
      </trkpt>
      <trkpt lat="43.54899" lon="2.90515">
        <ele>276.8</ele>
        <time>2018-04-07T08:49:16.000Z</time>
      </trkpt>
      <trkpt lat="43.54896" lon="2.90542">
        <ele>279.4</ele>
        <time>2018-04-07T08:49:26.000Z</time>
      </trkpt>
      <trkpt lat="43.54892" lon="2.90572">
        <ele>281.3</ele>
        <time>2018-04-07T08:49:36.000Z</time>
      </trkpt>
      <trkpt lat="43.54886" lon="2.90602">
        <ele>283.4</ele>
        <time>2018-04-07T08:49:46.000Z</time>
      </trkpt>
      <trkpt lat="43.54877" lon="2.90631">
        <ele>285.4</ele>
        <time>2018-04-07T08:49:56.000Z</time>
      </trkpt>
      <trkpt lat="43.54871" lon="2.90656">
        <ele>287.1</ele>
        <time>2018-04-07T08:50:06.000Z</time>
      </trkpt>
      <trkpt lat="43.54858" lon="2.90682">
        <ele>288.1</ele>
        <time>2018-04-07T08:50:16.000Z</time>
      </trkpt>
      <trkpt lat="43.54845" lon="2.90705">
        <ele>289.6</ele>
        <time>2018-04-07T08:50:26.000Z</time>
      </trkpt>
      <trkpt lat="43.54841" lon="2.90735">
        <ele>290.8</ele>
        <time>2018-04-07T08:50:36.000Z</time>
      </trkpt>
      <trkpt lat="43.54839" lon="2.90767">
        <ele>291.8</ele>
        <time>2018-04-07T08:50:46.000Z</time>
      </trkpt>
      <trkpt lat="43.54829" lon="2.90794">
        <ele>291.9</ele>
        <time>2018-04-07T08:50:56.000Z</time>
      </trkpt>
      <trkpt lat="43.54816" lon="2.9081">
        <ele>291.9</ele>
        <time>2018-04-07T08:51:06.000Z</time>
      </trkpt>
      <trkpt lat="43.54806" lon="2.90828">
        <ele>292.5</ele>
        <time>2018-04-07T08:51:16.000Z</time>
      </trkpt>
      <trkpt lat="43.5481" lon="2.90855">
        <ele>293.5</ele>
        <time>2018-04-07T08:51:26.000Z</time>
      </trkpt>
      <trkpt lat="43.54814" lon="2.90884">
        <ele>294.3</ele>
        <time>2018-04-07T08:51:36.000Z</time>
      </trkpt>
      <trkpt lat="43.54819" lon="2.90911">
        <ele>295.1</ele>
        <time>2018-04-07T08:51:46.000Z</time>
      </trkpt>
      <trkpt lat="43.54821" lon="2.90943">
        <ele>296.4</ele>
        <time>2018-04-07T08:51:56.000Z</time>
      </trkpt>
      <trkpt lat="43.54823" lon="2.90975">
        <ele>297.1</ele>
        <time>2018-04-07T08:52:06.000Z</time>
      </trkpt>
      <trkpt lat="43.54821" lon="2.91007">
        <ele>298.2</ele>
        <time>2018-04-07T08:52:16.000Z</time>
      </trkpt>
      <trkpt lat="43.54819" lon="2.9104">
        <ele>299.4</ele>
        <time>2018-04-07T08:52:26.000Z</time>
      </trkpt>
      <trkpt lat="43.54822" lon="2.91057">
        <ele>299.8</ele>
        <time>2018-04-07T08:52:31.000Z</time>
      </trkpt>
      <trkpt lat="43.54831" lon="2.91069">
        <ele>300.9</ele>
        <time>2018-04-07T08:52:36.000Z</time>
      </trkpt>
      <trkpt lat="43.54844" lon="2.91098">
        <ele>302</ele>
        <time>2018-04-07T08:52:46.000Z</time>
      </trkpt>
      <trkpt lat="43.54857" lon="2.91126">
        <ele>303.6</ele>
        <time>2018-04-07T08:52:56.000Z</time>
      </trkpt>
      <trkpt lat="43.5487" lon="2.91154">
        <ele>305.3</ele>
        <time>2018-04-07T08:53:06.000Z</time>
      </trkpt>
      <trkpt lat="43.54882" lon="2.91182">
        <ele>306.6</ele>
        <time>2018-04-07T08:53:16.000Z</time>
      </trkpt>
      <trkpt lat="43.54892" lon="2.91211">
        <ele>308.3</ele>
        <time>2018-04-07T08:53:26.000Z</time>
      </trkpt>
      <trkpt lat="43.54895" lon="2.91242">
        <ele>309.6</ele>
        <time>2018-04-07T08:53:36.000Z</time>
      </trkpt>
      <trkpt lat="43.54887" lon="2.91269">
        <ele>310.1</ele>
        <time>2018-04-07T08:53:46.000Z</time>
      </trkpt>
      <trkpt lat="43.54875" lon="2.91294">
        <ele>310.5</ele>
        <time>2018-04-07T08:53:56.000Z</time>
      </trkpt>
      <trkpt lat="43.54858" lon="2.9131">
        <ele>311.5</ele>
        <time>2018-04-07T08:54:06.000Z</time>
      </trkpt>
      <trkpt lat="43.5484" lon="2.91321">
        <ele>312</ele>
        <time>2018-04-07T08:54:16.000Z</time>
      </trkpt>
      <trkpt lat="43.5482" lon="2.91338">
        <ele>313.1</ele>
        <time>2018-04-07T08:54:26.000Z</time>
      </trkpt>
      <trkpt lat="43.54803" lon="2.91355">
        <ele>314.2</ele>
        <time>2018-04-07T08:54:36.000Z</time>
      </trkpt>
      <trkpt lat="43.54786" lon="2.91382">
        <ele>315.1</ele>
        <time>2018-04-07T08:54:46.000Z</time>
      </trkpt>
      <trkpt lat="43.54767" lon="2.91412">
        <ele>316.1</ele>
        <time>2018-04-07T08:54:56.000Z</time>
      </trkpt>
      <trkpt lat="43.5475" lon="2.91441">
        <ele>316.5</ele>
        <time>2018-04-07T08:55:06.000Z</time>
      </trkpt>
      <trkpt lat="43.54744" lon="2.91471">
        <ele>317.3</ele>
        <time>2018-04-07T08:55:16.000Z</time>
      </trkpt>
      <trkpt lat="43.54757" lon="2.91481">
        <ele>317.8</ele>
        <time>2018-04-07T08:55:26.000Z</time>
      </trkpt>
      <trkpt lat="43.54775" lon="2.91494">
        <ele>318.4</ele>
        <time>2018-04-07T08:55:36.000Z</time>
      </trkpt>
      <trkpt lat="43.54793" lon="2.91503">
        <ele>319.8</ele>
        <time>2018-04-07T08:55:46.000Z</time>
      </trkpt>
      <trkpt lat="43.54811" lon="2.91513">
        <ele>321.4</ele>
        <time>2018-04-07T08:55:56.000Z</time>
      </trkpt>
      <trkpt lat="43.5483" lon="2.91527">
        <ele>323.3</ele>
        <time>2018-04-07T08:56:06.000Z</time>
      </trkpt>
      <trkpt lat="43.54848" lon="2.91539">
        <ele>325.5</ele>
        <time>2018-04-07T08:56:16.000Z</time>
      </trkpt>
      <trkpt lat="43.54865" lon="2.91555">
        <ele>326.7</ele>
        <time>2018-04-07T08:56:26.000Z</time>
      </trkpt>
      <trkpt lat="43.54874" lon="2.91582">
        <ele>328.6</ele>
        <time>2018-04-07T08:56:36.000Z</time>
      </trkpt>
      <trkpt lat="43.54879" lon="2.9161">
        <ele>329.6</ele>
        <time>2018-04-07T08:56:46.000Z</time>
      </trkpt>
      <trkpt lat="43.54886" lon="2.91636">
        <ele>330.8</ele>
        <time>2018-04-07T08:56:56.000Z</time>
      </trkpt>
      <trkpt lat="43.5489" lon="2.91663">
        <ele>331.8</ele>
        <time>2018-04-07T08:57:06.000Z</time>
      </trkpt>
      <trkpt lat="43.54893" lon="2.91691">
        <ele>333.1</ele>
        <time>2018-04-07T08:57:16.000Z</time>
      </trkpt>
      <trkpt lat="43.54897" lon="2.9172">
        <ele>334.6</ele>
        <time>2018-04-07T08:57:26.000Z</time>
      </trkpt>
      <trkpt lat="43.54902" lon="2.9175">
        <ele>336.2</ele>
        <time>2018-04-07T08:57:36.000Z</time>
      </trkpt>
      <trkpt lat="43.54905" lon="2.91781">
        <ele>337.4</ele>
        <time>2018-04-07T08:57:46.000Z</time>
      </trkpt>
      <trkpt lat="43.54906" lon="2.9181">
        <ele>338.4</ele>
        <time>2018-04-07T08:57:56.000Z</time>
      </trkpt>
      <trkpt lat="43.549" lon="2.91836">
        <ele>339.9</ele>
        <time>2018-04-07T08:58:06.000Z</time>
      </trkpt>
      <trkpt lat="43.54889" lon="2.91855">
        <ele>341.4</ele>
        <time>2018-04-07T08:58:16.000Z</time>
      </trkpt>
      <trkpt lat="43.54881" lon="2.91872">
        <ele>342.3</ele>
        <time>2018-04-07T08:58:26.000Z</time>
      </trkpt>
      <trkpt lat="43.54868" lon="2.91888">
        <ele>343.7</ele>
        <time>2018-04-07T08:58:36.000Z</time>
      </trkpt>
      <trkpt lat="43.54858" lon="2.91905">
        <ele>345.3</ele>
        <time>2018-04-07T08:58:46.000Z</time>
      </trkpt>
      <trkpt lat="43.54849" lon="2.91929">
        <ele>346.8</ele>
        <time>2018-04-07T08:58:56.000Z</time>
      </trkpt>
      <trkpt lat="43.54838" lon="2.91955">
        <ele>348.3</ele>
        <time>2018-04-07T08:59:06.000Z</time>
      </trkpt>
      <trkpt lat="43.54823" lon="2.91975">
        <ele>350.5</ele>
        <time>2018-04-07T08:59:16.000Z</time>
      </trkpt>
      <trkpt lat="43.54814" lon="2.92">
        <ele>352.1</ele>
        <time>2018-04-07T08:59:26.000Z</time>
      </trkpt>
      <trkpt lat="43.54808" lon="2.92026">
        <ele>353.6</ele>
        <time>2018-04-07T08:59:36.000Z</time>
      </trkpt>
      <trkpt lat="43.54798" lon="2.92049">
        <ele>355.1</ele>
        <time>2018-04-07T08:59:46.000Z</time>
      </trkpt>
      <trkpt lat="43.54797" lon="2.92051">
        <ele>355.2</ele>
        <time>2018-04-07T08:59:47.000Z</time>
      </trkpt>
      <trkpt lat="43.54805" lon="2.9207">
        <ele>356.2</ele>
        <time>2018-04-07T08:59:56.000Z</time>
      </trkpt>
      <trkpt lat="43.54806" lon="2.92071">
        <ele>356.3</ele>
        <time>2018-04-07T08:59:57.000Z</time>
      </trkpt>
      <trkpt lat="43.54817" lon="2.92085">
        <ele>357.2</ele>
        <time>2018-04-07T09:00:06.000Z</time>
      </trkpt>
      <trkpt lat="43.54831" lon="2.92104">
        <ele>358.6</ele>
        <time>2018-04-07T09:00:16.000Z</time>
      </trkpt>
      <trkpt lat="43.54843" lon="2.92123">
        <ele>359.6</ele>
        <time>2018-04-07T09:00:26.000Z</time>
      </trkpt>
      <trkpt lat="43.54856" lon="2.92143">
        <ele>360.7</ele>
        <time>2018-04-07T09:00:36.000Z</time>
      </trkpt>
      <trkpt lat="43.54868" lon="2.92163">
        <ele>362.9</ele>
        <time>2018-04-07T09:00:46.000Z</time>
      </trkpt>
      <trkpt lat="43.54875" lon="2.92184">
        <ele>365.1</ele>
        <time>2018-04-07T09:00:56.000Z</time>
      </trkpt>
      <trkpt lat="43.54879" lon="2.92209">
        <ele>366.2</ele>
        <time>2018-04-07T09:01:06.000Z</time>
      </trkpt>
      <trkpt lat="43.54879" lon="2.92237">
        <ele>367.4</ele>
        <time>2018-04-07T09:01:16.000Z</time>
      </trkpt>
      <trkpt lat="43.54865" lon="2.92255">
        <ele>368.6</ele>
        <time>2018-04-07T09:01:26.000Z</time>
      </trkpt>
      <trkpt lat="43.54845" lon="2.9226">
        <ele>369.2</ele>
        <time>2018-04-07T09:01:36.000Z</time>
      </trkpt>
      <trkpt lat="43.54825" lon="2.92265">
        <ele>370.6</ele>
        <time>2018-04-07T09:01:46.000Z</time>
      </trkpt>
      <trkpt lat="43.54806" lon="2.92268">
        <ele>372.1</ele>
        <time>2018-04-07T09:01:56.000Z</time>
      </trkpt>
      <trkpt lat="43.54786" lon="2.92269">
        <ele>373.7</ele>
        <time>2018-04-07T09:02:06.000Z</time>
      </trkpt>
      <trkpt lat="43.54767" lon="2.92272">
        <ele>375.6</ele>
        <time>2018-04-07T09:02:16.000Z</time>
      </trkpt>
      <trkpt lat="43.54747" lon="2.92277">
        <ele>377.1</ele>
        <time>2018-04-07T09:02:26.000Z</time>
      </trkpt>
      <trkpt lat="43.54726" lon="2.9228">
        <ele>378.5</ele>
        <time>2018-04-07T09:02:36.000Z</time>
      </trkpt>
      <trkpt lat="43.54706" lon="2.9228">
        <ele>379.7</ele>
        <time>2018-04-07T09:02:46.000Z</time>
      </trkpt>
      <trkpt lat="43.54684" lon="2.92277">
        <ele>381.3</ele>
        <time>2018-04-07T09:02:56.000Z</time>
      </trkpt>
      <trkpt lat="43.54664" lon="2.92277">
        <ele>383</ele>
        <time>2018-04-07T09:03:06.000Z</time>
      </trkpt>
      <trkpt lat="43.54646" lon="2.92273">
        <ele>385.2</ele>
        <time>2018-04-07T09:03:16.000Z</time>
      </trkpt>
      <trkpt lat="43.54629" lon="2.92271">
        <ele>386.7</ele>
        <time>2018-04-07T09:03:26.000Z</time>
      </trkpt>
      <trkpt lat="43.54612" lon="2.92266">
        <ele>387.5</ele>
        <time>2018-04-07T09:03:36.000Z</time>
      </trkpt>
      <trkpt lat="43.54595" lon="2.92276">
        <ele>389.2</ele>
        <time>2018-04-07T09:03:46.000Z</time>
      </trkpt>
      <trkpt lat="43.54581" lon="2.92301">
        <ele>391</ele>
        <time>2018-04-07T09:03:56.000Z</time>
      </trkpt>
      <trkpt lat="43.54571" lon="2.92326">
        <ele>392.4</ele>
        <time>2018-04-07T09:04:06.000Z</time>
      </trkpt>
      <trkpt lat="43.54563" lon="2.92354">
        <ele>393.6</ele>
        <time>2018-04-07T09:04:16.000Z</time>
      </trkpt>
      <trkpt lat="43.54562" lon="2.92381">
        <ele>394.2</ele>
        <time>2018-04-07T09:04:26.000Z</time>
      </trkpt>
      <trkpt lat="43.54563" lon="2.9241">
        <ele>395.2</ele>
        <time>2018-04-07T09:04:36.000Z</time>
      </trkpt>
      <trkpt lat="43.54565" lon="2.92437">
        <ele>395.6</ele>
        <time>2018-04-07T09:04:46.000Z</time>
      </trkpt>
      <trkpt lat="43.54564" lon="2.92465">
        <ele>397.1</ele>
        <time>2018-04-07T09:04:56.000Z</time>
      </trkpt>
      <trkpt lat="43.54561" lon="2.92492">
        <ele>400.2</ele>
        <time>2018-04-07T09:05:06.000Z</time>
      </trkpt>
      <trkpt lat="43.5456" lon="2.92518">
        <ele>402.7</ele>
        <time>2018-04-07T09:05:16.000Z</time>
      </trkpt>
      <trkpt lat="43.54552" lon="2.92543">
        <ele>404.6</ele>
        <time>2018-04-07T09:05:26.000Z</time>
      </trkpt>
      <trkpt lat="43.54537" lon="2.92566">
        <ele>406</ele>
        <time>2018-04-07T09:05:36.000Z</time>
      </trkpt>
      <trkpt lat="43.54523" lon="2.92586">
        <ele>406.5</ele>
        <time>2018-04-07T09:05:46.000Z</time>
      </trkpt>
      <trkpt lat="43.54506" lon="2.92605">
        <ele>407.8</ele>
        <time>2018-04-07T09:05:56.000Z</time>
      </trkpt>
      <trkpt lat="43.54492" lon="2.92626">
        <ele>408.7</ele>
        <time>2018-04-07T09:06:06.000Z</time>
      </trkpt>
      <trkpt lat="43.54479" lon="2.92649">
        <ele>409.8</ele>
        <time>2018-04-07T09:06:16.000Z</time>
      </trkpt>
      <trkpt lat="43.54465" lon="2.92673">
        <ele>408.3</ele>
        <time>2018-04-07T09:06:26.000Z</time>
      </trkpt>
      <trkpt lat="43.54458" lon="2.92698">
        <ele>408</ele>
        <time>2018-04-07T09:06:36.000Z</time>
      </trkpt>
      <trkpt lat="43.54456" lon="2.92723">
        <ele>409.1</ele>
        <time>2018-04-07T09:06:46.000Z</time>
      </trkpt>
      <trkpt lat="43.54456" lon="2.92747">
        <ele>411.1</ele>
        <time>2018-04-07T09:06:56.000Z</time>
      </trkpt>
      <trkpt lat="43.54449" lon="2.92768">
        <ele>418.4</ele>
        <time>2018-04-07T09:07:06.000Z</time>
      </trkpt>
      <trkpt lat="43.54444" lon="2.92791">
        <ele>419.2</ele>
        <time>2018-04-07T09:07:16.000Z</time>
      </trkpt>
      <trkpt lat="43.5444" lon="2.92812">
        <ele>421.2</ele>
        <time>2018-04-07T09:07:26.000Z</time>
      </trkpt>
      <trkpt lat="43.54435" lon="2.92836">
        <ele>423.4</ele>
        <time>2018-04-07T09:07:36.000Z</time>
      </trkpt>
      <trkpt lat="43.54428" lon="2.9286">
        <ele>425.3</ele>
        <time>2018-04-07T09:07:46.000Z</time>
      </trkpt>
      <trkpt lat="43.54422" lon="2.92882">
        <ele>426.4</ele>
        <time>2018-04-07T09:07:56.000Z</time>
      </trkpt>
      <trkpt lat="43.54416" lon="2.92901">
        <ele>428.3</ele>
        <time>2018-04-07T09:08:06.000Z</time>
      </trkpt>
      <trkpt lat="43.54411" lon="2.92922">
        <ele>429.9</ele>
        <time>2018-04-07T09:08:16.000Z</time>
      </trkpt>
      <trkpt lat="43.54406" lon="2.92945">
        <ele>430.7</ele>
        <time>2018-04-07T09:08:26.000Z</time>
      </trkpt>
      <trkpt lat="43.544" lon="2.92967">
        <ele>432.4</ele>
        <time>2018-04-07T09:08:36.000Z</time>
      </trkpt>
      <trkpt lat="43.5439" lon="2.92988">
        <ele>435.4</ele>
        <time>2018-04-07T09:08:46.000Z</time>
      </trkpt>
      <trkpt lat="43.54378" lon="2.93003">
        <ele>437.2</ele>
        <time>2018-04-07T09:08:56.000Z</time>
      </trkpt>
      <trkpt lat="43.54367" lon="2.93019">
        <ele>438.7</ele>
        <time>2018-04-07T09:09:06.000Z</time>
      </trkpt>
      <trkpt lat="43.54357" lon="2.93038">
        <ele>440.8</ele>
        <time>2018-04-07T09:09:16.000Z</time>
      </trkpt>
      <trkpt lat="43.54348" lon="2.93059">
        <ele>443.1</ele>
        <time>2018-04-07T09:09:26.000Z</time>
      </trkpt>
      <trkpt lat="43.54339" lon="2.93081">
        <ele>445.7</ele>
        <time>2018-04-07T09:09:36.000Z</time>
      </trkpt>
      <trkpt lat="43.54331" lon="2.93103">
        <ele>447.3</ele>
        <time>2018-04-07T09:09:46.000Z</time>
      </trkpt>
      <trkpt lat="43.54324" lon="2.93123">
        <ele>449.2</ele>
        <time>2018-04-07T09:09:56.000Z</time>
      </trkpt>
      <trkpt lat="43.54319" lon="2.93146">
        <ele>452.1</ele>
        <time>2018-04-07T09:10:06.000Z</time>
      </trkpt>
      <trkpt lat="43.54318" lon="2.93171">
        <ele>455.2</ele>
        <time>2018-04-07T09:10:16.000Z</time>
      </trkpt>
      <trkpt lat="43.54318" lon="2.93194">
        <ele>457.1</ele>
        <time>2018-04-07T09:10:26.000Z</time>
      </trkpt>
      <trkpt lat="43.54318" lon="2.93218">
        <ele>459.5</ele>
        <time>2018-04-07T09:10:36.000Z</time>
      </trkpt>
      <trkpt lat="43.54317" lon="2.93245">
        <ele>461</ele>
        <time>2018-04-07T09:10:46.000Z</time>
      </trkpt>
      <trkpt lat="43.54314" lon="2.93269">
        <ele>462.9</ele>
        <time>2018-04-07T09:10:56.000Z</time>
      </trkpt>
      <trkpt lat="43.54309" lon="2.93291">
        <ele>464.1</ele>
        <time>2018-04-07T09:11:06.000Z</time>
      </trkpt>
      <trkpt lat="43.54306" lon="2.93314">
        <ele>466.8</ele>
        <time>2018-04-07T09:11:16.000Z</time>
      </trkpt>
      <trkpt lat="43.54301" lon="2.9333">
        <ele>467.9</ele>
        <time>2018-04-07T09:11:26.000Z</time>
      </trkpt>
      <trkpt lat="43.54294" lon="2.93351">
        <ele>469.8</ele>
        <time>2018-04-07T09:11:36.000Z</time>
      </trkpt>
      <trkpt lat="43.5428" lon="2.93372">
        <ele>472.2</ele>
        <time>2018-04-07T09:11:46.000Z</time>
      </trkpt>
      <trkpt lat="43.54266" lon="2.93387">
        <ele>474.3</ele>
        <time>2018-04-07T09:11:56.000Z</time>
      </trkpt>
      <trkpt lat="43.54251" lon="2.93399">
        <ele>477</ele>
        <time>2018-04-07T09:12:06.000Z</time>
      </trkpt>
      <trkpt lat="43.54237" lon="2.93415">
        <ele>478.1</ele>
        <time>2018-04-07T09:12:16.000Z</time>
      </trkpt>
      <trkpt lat="43.54223" lon="2.93432">
        <ele>479.6</ele>
        <time>2018-04-07T09:12:26.000Z</time>
      </trkpt>
      <trkpt lat="43.54209" lon="2.93446">
        <ele>480.1</ele>
        <time>2018-04-07T09:12:36.000Z</time>
      </trkpt>
      <trkpt lat="43.54191" lon="2.93437">
        <ele>481</ele>
        <time>2018-04-07T09:12:46.000Z</time>
      </trkpt>
      <trkpt lat="43.54184" lon="2.93413">
        <ele>483</ele>
        <time>2018-04-07T09:12:56.000Z</time>
      </trkpt>
      <trkpt lat="43.54186" lon="2.93388">
        <ele>485.5</ele>
        <time>2018-04-07T09:13:06.000Z</time>
      </trkpt>
      <trkpt lat="43.54186" lon="2.9336">
        <ele>487.9</ele>
        <time>2018-04-07T09:13:16.000Z</time>
      </trkpt>
      <trkpt lat="43.54169" lon="2.93343">
        <ele>489.9</ele>
        <time>2018-04-07T09:13:26.000Z</time>
      </trkpt>
      <trkpt lat="43.54151" lon="2.9333">
        <ele>491</ele>
        <time>2018-04-07T09:13:36.000Z</time>
      </trkpt>
      <trkpt lat="43.54132" lon="2.93322">
        <ele>493.9</ele>
        <time>2018-04-07T09:13:46.000Z</time>
      </trkpt>
      <trkpt lat="43.54113" lon="2.93323">
        <ele>497.2</ele>
        <time>2018-04-07T09:13:56.000Z</time>
      </trkpt>
      <trkpt lat="43.54096" lon="2.93333">
        <ele>498.5</ele>
        <time>2018-04-07T09:14:06.000Z</time>
      </trkpt>
      <trkpt lat="43.54081" lon="2.93347">
        <ele>500.7</ele>
        <time>2018-04-07T09:14:16.000Z</time>
      </trkpt>
      <trkpt lat="43.54067" lon="2.93362">
        <ele>502.9</ele>
        <time>2018-04-07T09:14:26.000Z</time>
      </trkpt>
      <trkpt lat="43.54053" lon="2.93372">
        <ele>505</ele>
        <time>2018-04-07T09:14:36.000Z</time>
      </trkpt>
      <trkpt lat="43.54037" lon="2.93383">
        <ele>507.7</ele>
        <time>2018-04-07T09:14:46.000Z</time>
      </trkpt>
      <trkpt lat="43.54018" lon="2.93384">
        <ele>510.6</ele>
        <time>2018-04-07T09:14:56.000Z</time>
      </trkpt>
      <trkpt lat="43.54" lon="2.93391">
        <ele>514.3</ele>
        <time>2018-04-07T09:15:06.000Z</time>
      </trkpt>
      <trkpt lat="43.53986" lon="2.93406">
        <ele>516.9</ele>
        <time>2018-04-07T09:15:16.000Z</time>
      </trkpt>
      <trkpt lat="43.53974" lon="2.93425">
        <ele>519.3</ele>
        <time>2018-04-07T09:15:26.000Z</time>
      </trkpt>
      <trkpt lat="43.53966" lon="2.93445">
        <ele>520.4</ele>
        <time>2018-04-07T09:15:36.000Z</time>
      </trkpt>
      <trkpt lat="43.53958" lon="2.93463">
        <ele>522.2</ele>
        <time>2018-04-07T09:15:46.000Z</time>
      </trkpt>
      <trkpt lat="43.53948" lon="2.93481">
        <ele>523.9</ele>
        <time>2018-04-07T09:15:56.000Z</time>
      </trkpt>
      <trkpt lat="43.53939" lon="2.935">
        <ele>526.3</ele>
        <time>2018-04-07T09:16:06.000Z</time>
      </trkpt>
      <trkpt lat="43.53929" lon="2.93517">
        <ele>528.2</ele>
        <time>2018-04-07T09:16:16.000Z</time>
      </trkpt>
      <trkpt lat="43.53918" lon="2.93533">
        <ele>529.9</ele>
        <time>2018-04-07T09:16:26.000Z</time>
      </trkpt>
      <trkpt lat="43.53909" lon="2.93551">
        <ele>532.1</ele>
        <time>2018-04-07T09:16:36.000Z</time>
      </trkpt>
      <trkpt lat="43.53901" lon="2.93572">
        <ele>534.7</ele>
        <time>2018-04-07T09:16:46.000Z</time>
      </trkpt>
      <trkpt lat="43.53893" lon="2.93592">
        <ele>536.7</ele>
        <time>2018-04-07T09:16:56.000Z</time>
      </trkpt>
      <trkpt lat="43.53887" lon="2.93617">
        <ele>538.9</ele>
        <time>2018-04-07T09:17:06.000Z</time>
      </trkpt>
      <trkpt lat="43.53882" lon="2.93641">
        <ele>541.2</ele>
        <time>2018-04-07T09:17:16.000Z</time>
      </trkpt>
      <trkpt lat="43.53881" lon="2.93666">
        <ele>542.6</ele>
        <time>2018-04-07T09:17:26.000Z</time>
      </trkpt>
      <trkpt lat="43.53875" lon="2.93691">
        <ele>544.3</ele>
        <time>2018-04-07T09:17:36.000Z</time>
      </trkpt>
      <trkpt lat="43.53869" lon="2.93714">
        <ele>546.1</ele>
        <time>2018-04-07T09:17:46.000Z</time>
      </trkpt>
      <trkpt lat="43.53865" lon="2.9374">
        <ele>548.3</ele>
        <time>2018-04-07T09:17:56.000Z</time>
      </trkpt>
      <trkpt lat="43.53863" lon="2.93763">
        <ele>549.1</ele>
        <time>2018-04-07T09:18:06.000Z</time>
      </trkpt>
      <trkpt lat="43.53859" lon="2.93786">
        <ele>551</ele>
        <time>2018-04-07T09:18:16.000Z</time>
      </trkpt>
      <trkpt lat="43.53856" lon="2.9381">
        <ele>553.6</ele>
        <time>2018-04-07T09:18:26.000Z</time>
      </trkpt>
      <trkpt lat="43.53854" lon="2.93833">
        <ele>555.9</ele>
        <time>2018-04-07T09:18:36.000Z</time>
      </trkpt>
      <trkpt lat="43.53855" lon="2.93858">
        <ele>558.2</ele>
        <time>2018-04-07T09:18:46.000Z</time>
      </trkpt>
      <trkpt lat="43.5386" lon="2.93882">
        <ele>560.1</ele>
        <time>2018-04-07T09:18:56.000Z</time>
      </trkpt>
      <trkpt lat="43.53865" lon="2.93906">
        <ele>561.9</ele>
        <time>2018-04-07T09:19:06.000Z</time>
      </trkpt>
      <trkpt lat="43.53868" lon="2.93931">
        <ele>562.9</ele>
        <time>2018-04-07T09:19:16.000Z</time>
      </trkpt>
      <trkpt lat="43.53868" lon="2.93957">
        <ele>565.1</ele>
        <time>2018-04-07T09:19:26.000Z</time>
      </trkpt>
      <trkpt lat="43.53867" lon="2.93985">
        <ele>567</ele>
        <time>2018-04-07T09:19:36.000Z</time>
      </trkpt>
      <trkpt lat="43.53859" lon="2.94008">
        <ele>569.1</ele>
        <time>2018-04-07T09:19:46.000Z</time>
      </trkpt>
      <trkpt lat="43.53845" lon="2.94026">
        <ele>571.1</ele>
        <time>2018-04-07T09:19:56.000Z</time>
      </trkpt>
      <trkpt lat="43.5383" lon="2.94041">
        <ele>572.4</ele>
        <time>2018-04-07T09:20:06.000Z</time>
      </trkpt>
      <trkpt lat="43.53813" lon="2.94051">
        <ele>574.5</ele>
        <time>2018-04-07T09:20:16.000Z</time>
      </trkpt>
      <trkpt lat="43.53797" lon="2.94059">
        <ele>576</ele>
        <time>2018-04-07T09:20:26.000Z</time>
      </trkpt>
      <trkpt lat="43.53782" lon="2.94066">
        <ele>578.9</ele>
        <time>2018-04-07T09:20:36.000Z</time>
      </trkpt>
      <trkpt lat="43.53766" lon="2.94073">
        <ele>581.6</ele>
        <time>2018-04-07T09:20:46.000Z</time>
      </trkpt>
      <trkpt lat="43.53752" lon="2.94085">
        <ele>583.6</ele>
        <time>2018-04-07T09:20:56.000Z</time>
      </trkpt>
      <trkpt lat="43.53744" lon="2.94106">
        <ele>585.8</ele>
        <time>2018-04-07T09:21:06.000Z</time>
      </trkpt>
      <trkpt lat="43.53744" lon="2.94125">
        <ele>587.4</ele>
        <time>2018-04-07T09:21:16.000Z</time>
      </trkpt>
      <trkpt lat="43.5374" lon="2.94148">
        <ele>589.4</ele>
        <time>2018-04-07T09:21:26.000Z</time>
      </trkpt>
      <trkpt lat="43.53722" lon="2.9415">
        <ele>591.5</ele>
        <time>2018-04-07T09:21:36.000Z</time>
      </trkpt>
      <trkpt lat="43.53704" lon="2.94149">
        <ele>592.4</ele>
        <time>2018-04-07T09:21:46.000Z</time>
      </trkpt>
      <trkpt lat="43.53687" lon="2.94149">
        <ele>595.8</ele>
        <time>2018-04-07T09:21:56.000Z</time>
      </trkpt>
      <trkpt lat="43.53672" lon="2.94133">
        <ele>599.5</ele>
        <time>2018-04-07T09:22:06.000Z</time>
      </trkpt>
      <trkpt lat="43.53667" lon="2.94111">
        <ele>601.3</ele>
        <time>2018-04-07T09:22:16.000Z</time>
      </trkpt>
      <trkpt lat="43.53659" lon="2.94099">
        <ele>602.2</ele>
        <time>2018-04-07T09:22:23.000Z</time>
      </trkpt>
      <trkpt lat="43.53654" lon="2.94096">
        <ele>602.9</ele>
        <time>2018-04-07T09:22:26.000Z</time>
      </trkpt>
      <trkpt lat="43.53638" lon="2.94082">
        <ele>605.7</ele>
        <time>2018-04-07T09:22:36.000Z</time>
      </trkpt>
      <trkpt lat="43.53621" lon="2.9407">
        <ele>608</ele>
        <time>2018-04-07T09:22:46.000Z</time>
      </trkpt>
      <trkpt lat="43.53603" lon="2.9406">
        <ele>609.8</ele>
        <time>2018-04-07T09:22:56.000Z</time>
      </trkpt>
      <trkpt lat="43.53584" lon="2.9405">
        <ele>612.9</ele>
        <time>2018-04-07T09:23:06.000Z</time>
      </trkpt>
      <trkpt lat="43.53568" lon="2.94038">
        <ele>614.9</ele>
        <time>2018-04-07T09:23:16.000Z</time>
      </trkpt>
      <trkpt lat="43.5355" lon="2.94026">
        <ele>617</ele>
        <time>2018-04-07T09:23:26.000Z</time>
      </trkpt>
      <trkpt lat="43.5353" lon="2.9402">
        <ele>621</ele>
        <time>2018-04-07T09:23:36.000Z</time>
      </trkpt>
      <trkpt lat="43.53516" lon="2.94008">
        <ele>621.4</ele>
        <time>2018-04-07T09:23:46.000Z</time>
      </trkpt>
      <trkpt lat="43.53504" lon="2.93992">
        <ele>622.8</ele>
        <time>2018-04-07T09:23:56.000Z</time>
      </trkpt>
      <trkpt lat="43.53488" lon="2.93978">
        <ele>623.9</ele>
        <time>2018-04-07T09:24:06.000Z</time>
      </trkpt>
      <trkpt lat="43.53473" lon="2.93995">
        <ele>625</ele>
        <time>2018-04-07T09:24:16.000Z</time>
      </trkpt>
      <trkpt lat="43.53478" lon="2.94021">
        <ele>626.5</ele>
        <time>2018-04-07T09:24:26.000Z</time>
      </trkpt>
      <trkpt lat="43.53489" lon="2.94044">
        <ele>628</ele>
        <time>2018-04-07T09:24:36.000Z</time>
      </trkpt>
      <trkpt lat="43.53501" lon="2.94065">
        <ele>629.4</ele>
        <time>2018-04-07T09:24:46.000Z</time>
      </trkpt>
      <trkpt lat="43.53514" lon="2.94079">
        <ele>630.1</ele>
        <time>2018-04-07T09:24:56.000Z</time>
      </trkpt>
      <trkpt lat="43.53526" lon="2.94096">
        <ele>631.1</ele>
        <time>2018-04-07T09:25:06.000Z</time>
      </trkpt>
      <trkpt lat="43.53538" lon="2.94113">
        <ele>632.5</ele>
        <time>2018-04-07T09:25:16.000Z</time>
      </trkpt>
      <trkpt lat="43.5355" lon="2.9413">
        <ele>633.4</ele>
        <time>2018-04-07T09:25:26.000Z</time>
      </trkpt>
      <trkpt lat="43.53558" lon="2.94149">
        <ele>635</ele>
        <time>2018-04-07T09:25:36.000Z</time>
      </trkpt>
      <trkpt lat="43.53567" lon="2.94167">
        <ele>636.9</ele>
        <time>2018-04-07T09:25:46.000Z</time>
      </trkpt>
      <trkpt lat="43.53575" lon="2.94186">
        <ele>640.2</ele>
        <time>2018-04-07T09:25:56.000Z</time>
      </trkpt>
      <trkpt lat="43.53585" lon="2.94207">
        <ele>642.7</ele>
        <time>2018-04-07T09:26:06.000Z</time>
      </trkpt>
      <trkpt lat="43.53592" lon="2.9423">
        <ele>645.7</ele>
        <time>2018-04-07T09:26:16.000Z</time>
      </trkpt>
      <trkpt lat="43.53597" lon="2.94253">
        <ele>649.3</ele>
        <time>2018-04-07T09:26:26.000Z</time>
      </trkpt>
      <trkpt lat="43.53607" lon="2.9427">
        <ele>651.2</ele>
        <time>2018-04-07T09:26:36.000Z</time>
      </trkpt>
      <trkpt lat="43.53617" lon="2.94285">
        <ele>653.2</ele>
        <time>2018-04-07T09:26:46.000Z</time>
      </trkpt>
      <trkpt lat="43.5363" lon="2.943">
        <ele>654.8</ele>
        <time>2018-04-07T09:26:56.000Z</time>
      </trkpt>
      <trkpt lat="43.53644" lon="2.94314">
        <ele>657.9</ele>
        <time>2018-04-07T09:27:06.000Z</time>
      </trkpt>
      <trkpt lat="43.53656" lon="2.94329">
        <ele>660.5</ele>
        <time>2018-04-07T09:27:16.000Z</time>
      </trkpt>
      <trkpt lat="43.53669" lon="2.94345">
        <ele>664.5</ele>
        <time>2018-04-07T09:27:26.000Z</time>
      </trkpt>
      <trkpt lat="43.53678" lon="2.94362">
        <ele>668.8</ele>
        <time>2018-04-07T09:27:36.000Z</time>
      </trkpt>
      <trkpt lat="43.5369" lon="2.94379">
        <ele>672.9</ele>
        <time>2018-04-07T09:27:46.000Z</time>
      </trkpt>
      <trkpt lat="43.53701" lon="2.94396">
        <ele>676.5</ele>
        <time>2018-04-07T09:27:56.000Z</time>
      </trkpt>
      <trkpt lat="43.53713" lon="2.9441">
        <ele>679.2</ele>
        <time>2018-04-07T09:28:06.000Z</time>
      </trkpt>
      <trkpt lat="43.53726" lon="2.94425">
        <ele>684.1</ele>
        <time>2018-04-07T09:28:16.000Z</time>
      </trkpt>
      <trkpt lat="43.53738" lon="2.94441">
        <ele>688</ele>
        <time>2018-04-07T09:28:26.000Z</time>
      </trkpt>
      <trkpt lat="43.53749" lon="2.94456">
        <ele>692.1</ele>
        <time>2018-04-07T09:28:36.000Z</time>
      </trkpt>
      <trkpt lat="43.53762" lon="2.94469">
        <ele>695</ele>
        <time>2018-04-07T09:28:46.000Z</time>
      </trkpt>
      <trkpt lat="43.53773" lon="2.94483">
        <ele>697.6</ele>
        <time>2018-04-07T09:28:56.000Z</time>
      </trkpt>
      <trkpt lat="43.53785" lon="2.94498">
        <ele>699.9</ele>
        <time>2018-04-07T09:29:06.000Z</time>
      </trkpt>
      <trkpt lat="43.53798" lon="2.94514">
        <ele>702.9</ele>
        <time>2018-04-07T09:29:16.000Z</time>
      </trkpt>
      <trkpt lat="43.53811" lon="2.94532">
        <ele>704.8</ele>
        <time>2018-04-07T09:29:26.000Z</time>
      </trkpt>
      <trkpt lat="43.53815" lon="2.94536">
        <ele>705.1</ele>
        <time>2018-04-07T09:29:29.000Z</time>
      </trkpt>
      <trkpt lat="43.53823" lon="2.94548">
        <ele>705.9</ele>
        <time>2018-04-07T09:29:36.000Z</time>
      </trkpt>
      <trkpt lat="43.53835" lon="2.94565">
        <ele>706.3</ele>
        <time>2018-04-07T09:29:46.000Z</time>
      </trkpt>
      <trkpt lat="43.53835" lon="2.9457">
        <ele>706.7</ele>
        <time>2018-04-07T09:29:51.000Z</time>
      </trkpt>
      <trkpt lat="43.53845" lon="2.94573">
        <ele>706.1</ele>
        <time>2018-04-07T09:30:41.000Z</time>
      </trkpt>
      <trkpt lat="43.53854" lon="2.94577">
        <ele>705.7</ele>
        <time>2018-04-07T09:30:46.000Z</time>
      </trkpt>
      <trkpt lat="43.53879" lon="2.94577">
        <ele>704.1</ele>
        <time>2018-04-07T09:30:56.000Z</time>
      </trkpt>
      <trkpt lat="43.53893" lon="2.94597">
        <ele>703.6</ele>
        <time>2018-04-07T09:31:06.000Z</time>
      </trkpt>
      <trkpt lat="43.53887" lon="2.94615">
        <ele>704.1</ele>
        <time>2018-04-07T09:31:16.000Z</time>
      </trkpt>
      <trkpt lat="43.53869" lon="2.94616">
        <ele>705.6</ele>
        <time>2018-04-07T09:31:26.000Z</time>
      </trkpt>
      <trkpt lat="43.53849" lon="2.94602">
        <ele>707.8</ele>
        <time>2018-04-07T09:31:36.000Z</time>
      </trkpt>
      <trkpt lat="43.5383" lon="2.94591">
        <ele>709.5</ele>
        <time>2018-04-07T09:31:46.000Z</time>
      </trkpt>
      <trkpt lat="43.53811" lon="2.94581">
        <ele>711.1</ele>
        <time>2018-04-07T09:31:56.000Z</time>
      </trkpt>
      <trkpt lat="43.53794" lon="2.94572">
        <ele>712.7</ele>
        <time>2018-04-07T09:32:06.000Z</time>
      </trkpt>
      <trkpt lat="43.53778" lon="2.94566">
        <ele>713.6</ele>
        <time>2018-04-07T09:32:16.000Z</time>
      </trkpt>
      <trkpt lat="43.53759" lon="2.9456">
        <ele>714.9</ele>
        <time>2018-04-07T09:32:26.000Z</time>
      </trkpt>
      <trkpt lat="43.53742" lon="2.94551">
        <ele>714.5</ele>
        <time>2018-04-07T09:32:36.000Z</time>
      </trkpt>
      <trkpt lat="43.53727" lon="2.94542">
        <ele>713.8</ele>
        <time>2018-04-07T09:32:46.000Z</time>
      </trkpt>
      <trkpt lat="43.53713" lon="2.94532">
        <ele>713.4</ele>
        <time>2018-04-07T09:32:56.000Z</time>
      </trkpt>
      <trkpt lat="43.53696" lon="2.9452">
        <ele>712.5</ele>
        <time>2018-04-07T09:33:06.000Z</time>
      </trkpt>
      <trkpt lat="43.53677" lon="2.94506">
        <ele>710</ele>
        <time>2018-04-07T09:33:16.000Z</time>
      </trkpt>
      <trkpt lat="43.53658" lon="2.945">
        <ele>711.6</ele>
        <time>2018-04-07T09:33:26.000Z</time>
      </trkpt>
      <trkpt lat="43.53638" lon="2.94495">
        <ele>714.4</ele>
        <time>2018-04-07T09:33:36.000Z</time>
      </trkpt>
      <trkpt lat="43.53619" lon="2.94494">
        <ele>717.4</ele>
        <time>2018-04-07T09:33:46.000Z</time>
      </trkpt>
      <trkpt lat="43.53605" lon="2.94499">
        <ele>719.7</ele>
        <time>2018-04-07T09:33:56.000Z</time>
      </trkpt>
      <trkpt lat="43.53588" lon="2.94509">
        <ele>722.1</ele>
        <time>2018-04-07T09:34:06.000Z</time>
      </trkpt>
      <trkpt lat="43.53575" lon="2.94525">
        <ele>724.5</ele>
        <time>2018-04-07T09:34:16.000Z</time>
      </trkpt>
      <trkpt lat="43.53577" lon="2.94532">
        <ele>726.3</ele>
        <time>2018-04-07T09:34:20.000Z</time>
      </trkpt>
      <trkpt lat="43.53586" lon="2.94534">
        <ele>727.3</ele>
        <time>2018-04-07T09:34:26.000Z</time>
      </trkpt>
      <trkpt lat="43.53601" lon="2.94529">
        <ele>726.9</ele>
        <time>2018-04-07T09:34:36.000Z</time>
      </trkpt>
      <trkpt lat="43.53616" lon="2.9453">
        <ele>726.1</ele>
        <time>2018-04-07T09:34:46.000Z</time>
      </trkpt>
      <trkpt lat="43.53633" lon="2.94543">
        <ele>726.7</ele>
        <time>2018-04-07T09:34:56.000Z</time>
      </trkpt>
      <trkpt lat="43.53648" lon="2.94556">
        <ele>728.1</ele>
        <time>2018-04-07T09:35:06.000Z</time>
      </trkpt>
      <trkpt lat="43.53663" lon="2.94569">
        <ele>729.6</ele>
        <time>2018-04-07T09:35:16.000Z</time>
      </trkpt>
      <trkpt lat="43.53674" lon="2.94587">
        <ele>731.3</ele>
        <time>2018-04-07T09:35:26.000Z</time>
      </trkpt>
      <trkpt lat="43.53684" lon="2.94605">
        <ele>733.9</ele>
        <time>2018-04-07T09:35:36.000Z</time>
      </trkpt>
      <trkpt lat="43.53693" lon="2.94621">
        <ele>736.2</ele>
        <time>2018-04-07T09:35:46.000Z</time>
      </trkpt>
      <trkpt lat="43.53701" lon="2.94639">
        <ele>737.7</ele>
        <time>2018-04-07T09:35:56.000Z</time>
      </trkpt>
      <trkpt lat="43.53709" lon="2.94667">
        <ele>740.4</ele>
        <time>2018-04-07T09:36:06.000Z</time>
      </trkpt>
      <trkpt lat="43.53708" lon="2.94709">
        <ele>744.6</ele>
        <time>2018-04-07T09:36:16.000Z</time>
      </trkpt>
      <trkpt lat="43.53704" lon="2.94738">
        <ele>744.6</ele>
        <time>2018-04-07T09:36:26.000Z</time>
      </trkpt>
      <trkpt lat="43.53704" lon="2.94762">
        <ele>743.2</ele>
        <time>2018-04-07T09:36:36.000Z</time>
      </trkpt>
      <trkpt lat="43.53697" lon="2.94783">
        <ele>742.2</ele>
        <time>2018-04-07T09:36:46.000Z</time>
      </trkpt>
      <trkpt lat="43.53693" lon="2.948">
        <ele>741.3</ele>
        <time>2018-04-07T09:36:56.000Z</time>
      </trkpt>
      <trkpt lat="43.53692" lon="2.94805">
        <ele>740.9</ele>
        <time>2018-04-07T09:37:01.000Z</time>
      </trkpt>
      <trkpt lat="43.53707" lon="2.94793">
        <ele>739.1</ele>
        <time>2018-04-07T09:42:37.000Z</time>
      </trkpt>
      <trkpt lat="43.53718" lon="2.94789">
        <ele>735.9</ele>
        <time>2018-04-07T09:42:41.000Z</time>
      </trkpt>
      <trkpt lat="43.53744" lon="2.94772">
        <ele>729.9</ele>
        <time>2018-04-07T09:42:51.000Z</time>
      </trkpt>
      <trkpt lat="43.53754" lon="2.94788">
        <ele>723</ele>
        <time>2018-04-07T09:42:57.000Z</time>
      </trkpt>
      <trkpt lat="43.53759" lon="2.94787">
        <ele>722</ele>
        <time>2018-04-07T09:42:59.000Z</time>
      </trkpt>
      <trkpt lat="43.53764" lon="2.94782">
        <ele>720.8</ele>
        <time>2018-04-07T09:43:01.000Z</time>
      </trkpt>
      <trkpt lat="43.53775" lon="2.94775">
        <ele>719</ele>
        <time>2018-04-07T09:43:05.000Z</time>
      </trkpt>
      <trkpt lat="43.53785" lon="2.9476">
        <ele>717.4</ele>
        <time>2018-04-07T09:43:11.000Z</time>
      </trkpt>
      <trkpt lat="43.53791" lon="2.94755">
        <ele>716.3</ele>
        <time>2018-04-07T09:43:14.000Z</time>
      </trkpt>
      <trkpt lat="43.53796" lon="2.9476">
        <ele>712.9</ele>
        <time>2018-04-07T09:43:17.000Z</time>
      </trkpt>
      <trkpt lat="43.538" lon="2.94758">
        <ele>711.2</ele>
        <time>2018-04-07T09:43:19.000Z</time>
      </trkpt>
      <trkpt lat="43.53806" lon="2.94753">
        <ele>710.7</ele>
        <time>2018-04-07T09:43:21.000Z</time>
      </trkpt>
      <trkpt lat="43.53809" lon="2.94753">
        <ele>709.5</ele>
        <time>2018-04-07T09:43:22.000Z</time>
      </trkpt>
      <trkpt lat="43.53815" lon="2.94753">
        <ele>706.9</ele>
        <time>2018-04-07T09:43:24.000Z</time>
      </trkpt>
      <trkpt lat="43.53824" lon="2.94751">
        <ele>704.3</ele>
        <time>2018-04-07T09:43:27.000Z</time>
      </trkpt>
      <trkpt lat="43.53839" lon="2.94743">
        <ele>698.8</ele>
        <time>2018-04-07T09:43:31.000Z</time>
      </trkpt>
      <trkpt lat="43.53845" lon="2.94737">
        <ele>698.3</ele>
        <time>2018-04-07T09:43:32.000Z</time>
      </trkpt>
      <trkpt lat="43.53858" lon="2.94725">
        <ele>696.9</ele>
        <time>2018-04-07T09:43:34.000Z</time>
      </trkpt>
      <trkpt lat="43.5387" lon="2.94711">
        <ele>695.4</ele>
        <time>2018-04-07T09:43:36.000Z</time>
      </trkpt>
      <trkpt lat="43.53893" lon="2.94691">
        <ele>694.5</ele>
        <time>2018-04-07T09:43:38.000Z</time>
      </trkpt>
      <trkpt lat="43.539" lon="2.9467">
        <ele>696.4</ele>
        <time>2018-04-07T09:43:41.000Z</time>
      </trkpt>
      <trkpt lat="43.53896" lon="2.94627">
        <ele>703.4</ele>
        <time>2018-04-07T09:43:51.000Z</time>
      </trkpt>
      <trkpt lat="43.53897" lon="2.94605">
        <ele>704.4</ele>
        <time>2018-04-07T09:44:00.000Z</time>
      </trkpt>
      <trkpt lat="43.53898" lon="2.94595">
        <ele>704.2</ele>
        <time>2018-04-07T09:44:04.000Z</time>
      </trkpt>
      <trkpt lat="43.53914" lon="2.94581">
        <ele>703.2</ele>
        <time>2018-04-07T09:44:11.000Z</time>
      </trkpt>
      <trkpt lat="43.53932" lon="2.94562">
        <ele>699.8</ele>
        <time>2018-04-07T09:44:21.000Z</time>
      </trkpt>
      <trkpt lat="43.53933" lon="2.94556">
        <ele>699.6</ele>
        <time>2018-04-07T09:44:22.000Z</time>
      </trkpt>
      <trkpt lat="43.53937" lon="2.94542">
        <ele>698.1</ele>
        <time>2018-04-07T09:44:24.000Z</time>
      </trkpt>
      <trkpt lat="43.5394" lon="2.9453">
        <ele>696.6</ele>
        <time>2018-04-07T09:44:26.000Z</time>
      </trkpt>
      <trkpt lat="43.5394" lon="2.94513">
        <ele>695.2</ele>
        <time>2018-04-07T09:44:28.000Z</time>
      </trkpt>
      <trkpt lat="43.53937" lon="2.94483">
        <ele>691.7</ele>
        <time>2018-04-07T09:44:31.000Z</time>
      </trkpt>
      <trkpt lat="43.53938" lon="2.94451">
        <ele>687.1</ele>
        <time>2018-04-07T09:44:35.000Z</time>
      </trkpt>
      <trkpt lat="43.53942" lon="2.94429">
        <ele>681.2</ele>
        <time>2018-04-07T09:44:38.000Z</time>
      </trkpt>
      <trkpt lat="43.53939" lon="2.94413">
        <ele>678.7</ele>
        <time>2018-04-07T09:44:40.000Z</time>
      </trkpt>
      <trkpt lat="43.53937" lon="2.94405">
        <ele>677.2</ele>
        <time>2018-04-07T09:44:41.000Z</time>
      </trkpt>
      <trkpt lat="43.53934" lon="2.94398">
        <ele>675.8</ele>
        <time>2018-04-07T09:44:42.000Z</time>
      </trkpt>
      <trkpt lat="43.53927" lon="2.94356">
        <ele>667.8</ele>
        <time>2018-04-07T09:44:51.000Z</time>
      </trkpt>
      <trkpt lat="43.53929" lon="2.94334">
        <ele>662.9</ele>
        <time>2018-04-07T09:44:58.000Z</time>
      </trkpt>
      <trkpt lat="43.53934" lon="2.94332">
        <ele>662.6</ele>
        <time>2018-04-07T09:45:01.000Z</time>
      </trkpt>
      <trkpt lat="43.53932" lon="2.94324">
        <ele>660.5</ele>
        <time>2018-04-07T09:45:03.000Z</time>
      </trkpt>
      <trkpt lat="43.53916" lon="2.94288">
        <ele>653.4</ele>
        <time>2018-04-07T09:45:11.000Z</time>
      </trkpt>
      <trkpt lat="43.53917" lon="2.94285">
        <ele>653.4</ele>
        <time>2018-04-07T09:45:12.000Z</time>
      </trkpt>
      <trkpt lat="43.53919" lon="2.94279">
        <ele>652.1</ele>
        <time>2018-04-07T09:45:15.000Z</time>
      </trkpt>
      <trkpt lat="43.53919" lon="2.94274">
        <ele>650.1</ele>
        <time>2018-04-07T09:45:17.000Z</time>
      </trkpt>
      <trkpt lat="43.53919" lon="2.94269">
        <ele>649.1</ele>
        <time>2018-04-07T09:45:19.000Z</time>
      </trkpt>
      <trkpt lat="43.53919" lon="2.94262">
        <ele>647.2</ele>
        <time>2018-04-07T09:45:21.000Z</time>
      </trkpt>
      <trkpt lat="43.5392" lon="2.94257">
        <ele>646.3</ele>
        <time>2018-04-07T09:45:23.000Z</time>
      </trkpt>
      <trkpt lat="43.53943" lon="2.94253">
        <ele>643.4</ele>
        <time>2018-04-07T09:45:30.000Z</time>
      </trkpt>
      <trkpt lat="43.53944" lon="2.94251">
        <ele>643</ele>
        <time>2018-04-07T09:45:31.000Z</time>
      </trkpt>
      <trkpt lat="43.53943" lon="2.94247">
        <ele>642.4</ele>
        <time>2018-04-07T09:45:32.000Z</time>
      </trkpt>
      <trkpt lat="43.53942" lon="2.94221">
        <ele>636</ele>
        <time>2018-04-07T09:45:39.000Z</time>
      </trkpt>
      <trkpt lat="43.53946" lon="2.94212">
        <ele>633.6</ele>
        <time>2018-04-07T09:45:41.000Z</time>
      </trkpt>
      <trkpt lat="43.53945" lon="2.94199">
        <ele>630.8</ele>
        <time>2018-04-07T09:45:43.000Z</time>
      </trkpt>
      <trkpt lat="43.53941" lon="2.94188">
        <ele>628.4</ele>
        <time>2018-04-07T09:45:45.000Z</time>
      </trkpt>
      <trkpt lat="43.53942" lon="2.94164">
        <ele>624.4</ele>
        <time>2018-04-07T09:45:51.000Z</time>
      </trkpt>
      <trkpt lat="43.53944" lon="2.94141">
        <ele>620.1</ele>
        <time>2018-04-07T09:46:01.000Z</time>
      </trkpt>
      <trkpt lat="43.53943" lon="2.94141">
        <ele>620.4</ele>
        <time>2018-04-07T09:46:03.000Z</time>
      </trkpt>
      <trkpt lat="43.53939" lon="2.9413">
        <ele>619.6</ele>
        <time>2018-04-07T09:46:25.000Z</time>
      </trkpt>
      <trkpt lat="43.53942" lon="2.94119">
        <ele>617.9</ele>
        <time>2018-04-07T09:46:27.000Z</time>
      </trkpt>
      <trkpt lat="43.53955" lon="2.94093">
        <ele>614.4</ele>
        <time>2018-04-07T09:46:31.000Z</time>
      </trkpt>
      <trkpt lat="43.5397" lon="2.94066">
        <ele>610.9</ele>
        <time>2018-04-07T09:46:36.000Z</time>
      </trkpt>
      <trkpt lat="43.53984" lon="2.94043">
        <ele>606.8</ele>
        <time>2018-04-07T09:46:40.000Z</time>
      </trkpt>
      <trkpt lat="43.53987" lon="2.9404">
        <ele>606.3</ele>
        <time>2018-04-07T09:46:41.000Z</time>
      </trkpt>
      <trkpt lat="43.53999" lon="2.94024">
        <ele>604.2</ele>
        <time>2018-04-07T09:46:45.000Z</time>
      </trkpt>
      <trkpt lat="43.54009" lon="2.94004">
        <ele>601.9</ele>
        <time>2018-04-07T09:46:48.000Z</time>
      </trkpt>
      <trkpt lat="43.54021" lon="2.93988">
        <ele>598.9</ele>
        <time>2018-04-07T09:46:51.000Z</time>
      </trkpt>
      <trkpt lat="43.54041" lon="2.93971">
        <ele>593.2</ele>
        <time>2018-04-07T09:46:54.000Z</time>
      </trkpt>
      <trkpt lat="43.54082" lon="2.93935">
        <ele>583.7</ele>
        <time>2018-04-07T09:47:01.000Z</time>
      </trkpt>
      <trkpt lat="43.54092" lon="2.93922">
        <ele>582.9</ele>
        <time>2018-04-07T09:47:03.000Z</time>
      </trkpt>
      <trkpt lat="43.54137" lon="2.93883">
        <ele>575.5</ele>
        <time>2018-04-07T09:47:10.000Z</time>
      </trkpt>
      <trkpt lat="43.54145" lon="2.93879">
        <ele>574.4</ele>
        <time>2018-04-07T09:47:11.000Z</time>
      </trkpt>
      <trkpt lat="43.54176" lon="2.93857">
        <ele>570</ele>
        <time>2018-04-07T09:47:16.000Z</time>
      </trkpt>
      <trkpt lat="43.54189" lon="2.93844">
        <ele>568.6</ele>
        <time>2018-04-07T09:47:19.000Z</time>
      </trkpt>
      <trkpt lat="43.54199" lon="2.93844">
        <ele>565.7</ele>
        <time>2018-04-07T09:47:21.000Z</time>
      </trkpt>
      <trkpt lat="43.54205" lon="2.93844">
        <ele>564.1</ele>
        <time>2018-04-07T09:47:22.000Z</time>
      </trkpt>
      <trkpt lat="43.54235" lon="2.93842">
        <ele>556.1</ele>
        <time>2018-04-07T09:47:27.000Z</time>
      </trkpt>
      <trkpt lat="43.54246" lon="2.93836">
        <ele>554.9</ele>
        <time>2018-04-07T09:47:29.000Z</time>
      </trkpt>
      <trkpt lat="43.54256" lon="2.93833">
        <ele>552</ele>
        <time>2018-04-07T09:47:31.000Z</time>
      </trkpt>
      <trkpt lat="43.54291" lon="2.93821">
        <ele>545.1</ele>
        <time>2018-04-07T09:47:38.000Z</time>
      </trkpt>
      <trkpt lat="43.54305" lon="2.93816">
        <ele>541.7</ele>
        <time>2018-04-07T09:47:40.000Z</time>
      </trkpt>
      <trkpt lat="43.54312" lon="2.93814">
        <ele>540.7</ele>
        <time>2018-04-07T09:47:41.000Z</time>
      </trkpt>
      <trkpt lat="43.54371" lon="2.93803">
        <ele>524.4</ele>
        <time>2018-04-07T09:47:49.000Z</time>
      </trkpt>
      <trkpt lat="43.54385" lon="2.93807">
        <ele>520.4</ele>
        <time>2018-04-07T09:47:51.000Z</time>
      </trkpt>
      <trkpt lat="43.54396" lon="2.93814">
        <ele>514.2</ele>
        <time>2018-04-07T09:47:53.000Z</time>
      </trkpt>
      <trkpt lat="43.54405" lon="2.93817">
        <ele>510.3</ele>
        <time>2018-04-07T09:47:55.000Z</time>
      </trkpt>
      <trkpt lat="43.54415" lon="2.93826">
        <ele>504.9</ele>
        <time>2018-04-07T09:47:58.000Z</time>
      </trkpt>
      <trkpt lat="43.54428" lon="2.93815">
        <ele>504</ele>
        <time>2018-04-07T09:48:01.000Z</time>
      </trkpt>
      <trkpt lat="43.54446" lon="2.93794">
        <ele>502.1</ele>
        <time>2018-04-07T09:48:04.000Z</time>
      </trkpt>
      <trkpt lat="43.54456" lon="2.93774">
        <ele>501.3</ele>
        <time>2018-04-07T09:48:06.000Z</time>
      </trkpt>
      <trkpt lat="43.54461" lon="2.93753">
        <ele>500.7</ele>
        <time>2018-04-07T09:48:08.000Z</time>
      </trkpt>
      <trkpt lat="43.54456" lon="2.93732">
        <ele>503.4</ele>
        <time>2018-04-07T09:48:10.000Z</time>
      </trkpt>
      <trkpt lat="43.54454" lon="2.93721">
        <ele>503.1</ele>
        <time>2018-04-07T09:48:11.000Z</time>
      </trkpt>
      <trkpt lat="43.54447" lon="2.93699">
        <ele>505.8</ele>
        <time>2018-04-07T09:48:13.000Z</time>
      </trkpt>
      <trkpt lat="43.54439" lon="2.93681">
        <ele>507.6</ele>
        <time>2018-04-07T09:48:18.000Z</time>
      </trkpt>
      <trkpt lat="43.54451" lon="2.93695">
        <ele>502.3</ele>
        <time>2018-04-07T09:48:21.000Z</time>
      </trkpt>
      <trkpt lat="43.54462" lon="2.93708">
        <ele>499.7</ele>
        <time>2018-04-07T09:48:23.000Z</time>
      </trkpt>
      <trkpt lat="43.54519" lon="2.93747">
        <ele>479.4</ele>
        <time>2018-04-07T09:48:30.000Z</time>
      </trkpt>
      <trkpt lat="43.54525" lon="2.93753">
        <ele>477.4</ele>
        <time>2018-04-07T09:48:31.000Z</time>
      </trkpt>
      <trkpt lat="43.54532" lon="2.93762">
        <ele>473.9</ele>
        <time>2018-04-07T09:48:33.000Z</time>
      </trkpt>
      <trkpt lat="43.54539" lon="2.93747">
        <ele>471.8</ele>
        <time>2018-04-07T09:48:36.000Z</time>
      </trkpt>
      <trkpt lat="43.54541" lon="2.93734">
        <ele>470.4</ele>
        <time>2018-04-07T09:48:38.000Z</time>
      </trkpt>
      <trkpt lat="43.54552" lon="2.93739">
        <ele>468.2</ele>
        <time>2018-04-07T09:48:41.000Z</time>
      </trkpt>
      <trkpt lat="43.54556" lon="2.93745">
        <ele>467.4</ele>
        <time>2018-04-07T09:48:42.000Z</time>
      </trkpt>
      <trkpt lat="43.54562" lon="2.9376">
        <ele>465.6</ele>
        <time>2018-04-07T09:48:44.000Z</time>
      </trkpt>
      <trkpt lat="43.54568" lon="2.93768">
        <ele>463.5</ele>
        <time>2018-04-07T09:48:46.000Z</time>
      </trkpt>
      <trkpt lat="43.5458" lon="2.9376">
        <ele>460.4</ele>
        <time>2018-04-07T09:48:49.000Z</time>
      </trkpt>
      <trkpt lat="43.54584" lon="2.93746">
        <ele>460</ele>
        <time>2018-04-07T09:48:51.000Z</time>
      </trkpt>
      <trkpt lat="43.54588" lon="2.93731">
        <ele>458</ele>
        <time>2018-04-07T09:48:53.000Z</time>
      </trkpt>
      <trkpt lat="43.54593" lon="2.93726">
        <ele>457.1</ele>
        <time>2018-04-07T09:48:55.000Z</time>
      </trkpt>
      <trkpt lat="43.54614" lon="2.9374">
        <ele>452.9</ele>
        <time>2018-04-07T09:49:00.000Z</time>
      </trkpt>
      <trkpt lat="43.54618" lon="2.93743">
        <ele>452.1</ele>
        <time>2018-04-07T09:49:01.000Z</time>
      </trkpt>
      <trkpt lat="43.54621" lon="2.93748">
        <ele>451.2</ele>
        <time>2018-04-07T09:49:02.000Z</time>
      </trkpt>
      <trkpt lat="43.54622" lon="2.93762">
        <ele>449.3</ele>
        <time>2018-04-07T09:49:05.000Z</time>
      </trkpt>
      <trkpt lat="43.54617" lon="2.93773">
        <ele>449.1</ele>
        <time>2018-04-07T09:49:07.000Z</time>
      </trkpt>
      <trkpt lat="43.54605" lon="2.93789">
        <ele>450.2</ele>
        <time>2018-04-07T09:49:10.000Z</time>
      </trkpt>
      <trkpt lat="43.54601" lon="2.93793">
        <ele>450.2</ele>
        <time>2018-04-07T09:49:11.000Z</time>
      </trkpt>
      <trkpt lat="43.54596" lon="2.93796">
        <ele>450.8</ele>
        <time>2018-04-07T09:49:12.000Z</time>
      </trkpt>
      <trkpt lat="43.54547" lon="2.93845">
        <ele>453.4</ele>
        <time>2018-04-07T09:49:21.000Z</time>
      </trkpt>
      <trkpt lat="43.54527" lon="2.93872">
        <ele>449.3</ele>
        <time>2018-04-07T09:49:25.000Z</time>
      </trkpt>
      <trkpt lat="43.54506" lon="2.93914">
        <ele>442</ele>
        <time>2018-04-07T09:49:31.000Z</time>
      </trkpt>
      <trkpt lat="43.54482" lon="2.93939">
        <ele>440.4</ele>
        <time>2018-04-07T09:49:41.000Z</time>
      </trkpt>
      <trkpt lat="43.54477" lon="2.93949">
        <ele>439.9</ele>
        <time>2018-04-07T09:49:48.000Z</time>
      </trkpt>
      <trkpt lat="43.54475" lon="2.93958">
        <ele>437</ele>
        <time>2018-04-07T09:50:08.000Z</time>
      </trkpt>
      <trkpt lat="43.54469" lon="2.93971">
        <ele>435.2</ele>
        <time>2018-04-07T09:50:11.000Z</time>
      </trkpt>
      <trkpt lat="43.54456" lon="2.93991">
        <ele>434.7</ele>
        <time>2018-04-07T09:50:16.000Z</time>
      </trkpt>
      <trkpt lat="43.5445" lon="2.94003">
        <ele>433.7</ele>
        <time>2018-04-07T09:50:18.000Z</time>
      </trkpt>
      <trkpt lat="43.54443" lon="2.94023">
        <ele>430.8</ele>
        <time>2018-04-07T09:50:21.000Z</time>
      </trkpt>
      <trkpt lat="43.54438" lon="2.94037">
        <ele>429.4</ele>
        <time>2018-04-07T09:50:23.000Z</time>
      </trkpt>
      <trkpt lat="43.54433" lon="2.94048">
        <ele>429.3</ele>
        <time>2018-04-07T09:50:25.000Z</time>
      </trkpt>
      <trkpt lat="43.54424" lon="2.94054">
        <ele>430.4</ele>
        <time>2018-04-07T09:50:27.000Z</time>
      </trkpt>
      <trkpt lat="43.54418" lon="2.94063">
        <ele>431</ele>
        <time>2018-04-07T09:50:31.000Z</time>
      </trkpt>
      <trkpt lat="43.54411" lon="2.94071">
        <ele>432</ele>
        <time>2018-04-07T09:50:41.000Z</time>
      </trkpt>
      <trkpt lat="43.54409" lon="2.94073">
        <ele>432.1</ele>
        <time>2018-04-07T09:50:44.000Z</time>
      </trkpt>
      <trkpt lat="43.54406" lon="2.94083">
        <ele>432.4</ele>
        <time>2018-04-07T09:50:51.000Z</time>
      </trkpt>
      <trkpt lat="43.54404" lon="2.94086">
        <ele>432.5</ele>
        <time>2018-04-07T09:50:53.000Z</time>
      </trkpt>
      <trkpt lat="43.54403" lon="2.94087">
        <ele>432.6</ele>
        <time>2018-04-07T09:50:57.000Z</time>
      </trkpt>
      <trkpt lat="43.54403" lon="2.94087">
        <ele>432.6</ele>
        <time>2018-04-07T09:51:01.000Z</time>
      </trkpt>
      <trkpt lat="43.54404" lon="2.94086">
        <ele>432.6</ele>
        <time>2018-04-07T09:51:03.000Z</time>
      </trkpt>
      <trkpt lat="43.54406" lon="2.94095">
        <ele>432.8</ele>
        <time>2018-04-07T09:51:31.000Z</time>
      </trkpt>
      <trkpt lat="43.54385" lon="2.94123">
        <ele>434</ele>
        <time>2018-04-07T09:51:41.000Z</time>
      </trkpt>
      <trkpt lat="43.54388" lon="2.94139">
        <ele>434.3</ele>
        <time>2018-04-07T09:51:47.000Z</time>
      </trkpt>
      <trkpt lat="43.54394" lon="2.94145">
        <ele>434.4</ele>
        <time>2018-04-07T09:51:51.000Z</time>
      </trkpt>
      <trkpt lat="43.54424" lon="2.94166">
        <ele>434.5</ele>
        <time>2018-04-07T09:52:01.000Z</time>
      </trkpt>
      <trkpt lat="43.54459" lon="2.94192">
        <ele>434.6</ele>
        <time>2018-04-07T09:52:11.000Z</time>
      </trkpt>
      <trkpt lat="43.54471" lon="2.94204">
        <ele>434.6</ele>
        <time>2018-04-07T09:52:14.000Z</time>
      </trkpt>
      <trkpt lat="43.54475" lon="2.94209">
        <ele>434.6</ele>
        <time>2018-04-07T09:52:17.000Z</time>
      </trkpt>
      <trkpt lat="43.5448" lon="2.94195">
        <ele>434.6</ele>
        <time>2018-04-07T09:52:21.000Z</time>
      </trkpt>
      <trkpt lat="43.54479" lon="2.94192">
        <ele>434.6</ele>
        <time>2018-04-07T09:52:22.000Z</time>
      </trkpt>
      <trkpt lat="43.54475" lon="2.94187">
        <ele>434.6</ele>
        <time>2018-04-07T09:52:27.000Z</time>
      </trkpt>
      <trkpt lat="43.54471" lon="2.94182">
        <ele>434.6</ele>
        <time>2018-04-07T09:52:35.000Z</time>
      </trkpt>
      <trkpt lat="43.54459" lon="2.94158">
        <ele>434.6</ele>
        <time>2018-04-07T09:52:41.000Z</time>
      </trkpt>
      <trkpt lat="43.54462" lon="2.94154">
        <ele>433.4</ele>
        <time>2018-04-07T09:52:43.000Z</time>
      </trkpt>
      <trkpt lat="43.54483" lon="2.94167">
        <ele>428</ele>
        <time>2018-04-07T09:52:47.000Z</time>
      </trkpt>
      <trkpt lat="43.54502" lon="2.94175">
        <ele>423.7</ele>
        <time>2018-04-07T09:52:50.000Z</time>
      </trkpt>
      <trkpt lat="43.54507" lon="2.94176">
        <ele>422</ele>
        <time>2018-04-07T09:52:51.000Z</time>
      </trkpt>
      <trkpt lat="43.54512" lon="2.94178">
        <ele>421.7</ele>
        <time>2018-04-07T09:52:52.000Z</time>
      </trkpt>
      <trkpt lat="43.54525" lon="2.94179">
        <ele>418.5</ele>
        <time>2018-04-07T09:52:54.000Z</time>
      </trkpt>
      <trkpt lat="43.54561" lon="2.9419">
        <ele>409.8</ele>
        <time>2018-04-07T09:53:00.000Z</time>
      </trkpt>
      <trkpt lat="43.54565" lon="2.94194">
        <ele>409.6</ele>
        <time>2018-04-07T09:53:01.000Z</time>
      </trkpt>
      <trkpt lat="43.5458" lon="2.94198">
        <ele>406.3</ele>
        <time>2018-04-07T09:53:06.000Z</time>
      </trkpt>
      <trkpt lat="43.54587" lon="2.94198">
        <ele>404.5</ele>
        <time>2018-04-07T09:53:08.000Z</time>
      </trkpt>
      <trkpt lat="43.54595" lon="2.94203">
        <ele>402.9</ele>
        <time>2018-04-07T09:53:10.000Z</time>
      </trkpt>
      <trkpt lat="43.54598" lon="2.94207">
        <ele>403</ele>
        <time>2018-04-07T09:53:11.000Z</time>
      </trkpt>
      <trkpt lat="43.54604" lon="2.94212">
        <ele>402.2</ele>
        <time>2018-04-07T09:53:13.000Z</time>
      </trkpt>
      <trkpt lat="43.54605" lon="2.94208">
        <ele>401.4</ele>
        <time>2018-04-07T09:53:15.000Z</time>
      </trkpt>
      <trkpt lat="43.54579" lon="2.94159">
        <ele>401.3</ele>
        <time>2018-04-07T09:53:21.000Z</time>
      </trkpt>
      <trkpt lat="43.54563" lon="2.94126">
        <ele>403.6</ele>
        <time>2018-04-07T09:53:25.000Z</time>
      </trkpt>
      <trkpt lat="43.54556" lon="2.94117">
        <ele>405.9</ele>
        <time>2018-04-07T09:53:27.000Z</time>
      </trkpt>
      <trkpt lat="43.54549" lon="2.94104">
        <ele>407.6</ele>
        <time>2018-04-07T09:53:29.000Z</time>
      </trkpt>
      <trkpt lat="43.5454" lon="2.94091">
        <ele>410.3</ele>
        <time>2018-04-07T09:53:31.000Z</time>
      </trkpt>
      <trkpt lat="43.54538" lon="2.94084">
        <ele>410.8</ele>
        <time>2018-04-07T09:53:32.000Z</time>
      </trkpt>
      <trkpt lat="43.54541" lon="2.94077">
        <ele>410.7</ele>
        <time>2018-04-07T09:53:34.000Z</time>
      </trkpt>
      <trkpt lat="43.54557" lon="2.94067">
        <ele>407.3</ele>
        <time>2018-04-07T09:53:41.000Z</time>
      </trkpt>
      <trkpt lat="43.54577" lon="2.94042">
        <ele>405.5</ele>
        <time>2018-04-07T09:53:47.000Z</time>
      </trkpt>
      <trkpt lat="43.5459" lon="2.94033">
        <ele>403.6</ele>
        <time>2018-04-07T09:53:50.000Z</time>
      </trkpt>
      <trkpt lat="43.54596" lon="2.94028">
        <ele>403</ele>
        <time>2018-04-07T09:53:51.000Z</time>
      </trkpt>
      <trkpt lat="43.54623" lon="2.94007">
        <ele>401.3</ele>
        <time>2018-04-07T09:53:55.000Z</time>
      </trkpt>
      <trkpt lat="43.54637" lon="2.94003">
        <ele>399.9</ele>
        <time>2018-04-07T09:53:57.000Z</time>
      </trkpt>
      <trkpt lat="43.54668" lon="2.94003">
        <ele>395</ele>
        <time>2018-04-07T09:54:01.000Z</time>
      </trkpt>
      <trkpt lat="43.54676" lon="2.94002">
        <ele>394.4</ele>
        <time>2018-04-07T09:54:02.000Z</time>
      </trkpt>
      <trkpt lat="43.5472" lon="2.93988">
        <ele>394</ele>
        <time>2018-04-07T09:54:11.000Z</time>
      </trkpt>
      <trkpt lat="43.54745" lon="2.93977">
        <ele>395.5</ele>
        <time>2018-04-07T09:54:21.000Z</time>
      </trkpt>
      <trkpt lat="43.54779" lon="2.93977">
        <ele>392.2</ele>
        <time>2018-04-07T09:54:31.000Z</time>
      </trkpt>
      <trkpt lat="43.54799" lon="2.93972">
        <ele>390.2</ele>
        <time>2018-04-07T09:54:41.000Z</time>
      </trkpt>
      <trkpt lat="43.54839" lon="2.93955">
        <ele>388.5</ele>
        <time>2018-04-07T09:54:51.000Z</time>
      </trkpt>
      <trkpt lat="43.54894" lon="2.93918">
        <ele>387.7</ele>
        <time>2018-04-07T09:54:59.000Z</time>
      </trkpt>
      <trkpt lat="43.54908" lon="2.93906">
        <ele>388</ele>
        <time>2018-04-07T09:55:01.000Z</time>
      </trkpt>
      <trkpt lat="43.54949" lon="2.9388">
        <ele>388.2</ele>
        <time>2018-04-07T09:55:11.000Z</time>
      </trkpt>
      <trkpt lat="43.54985" lon="2.9387">
        <ele>387.4</ele>
        <time>2018-04-07T09:55:21.000Z</time>
      </trkpt>
      <trkpt lat="43.54999" lon="2.93865">
        <ele>387.6</ele>
        <time>2018-04-07T09:55:24.000Z</time>
      </trkpt>
      <trkpt lat="43.5501" lon="2.9386">
        <ele>388.2</ele>
        <time>2018-04-07T09:55:26.000Z</time>
      </trkpt>
      <trkpt lat="43.55021" lon="2.93861">
        <ele>388.2</ele>
        <time>2018-04-07T09:55:28.000Z</time>
      </trkpt>
      <trkpt lat="43.55032" lon="2.93867">
        <ele>387.5</ele>
        <time>2018-04-07T09:55:31.000Z</time>
      </trkpt>
      <trkpt lat="43.55056" lon="2.9388">
        <ele>385.3</ele>
        <time>2018-04-07T09:55:41.000Z</time>
      </trkpt>
      <trkpt lat="43.55086" lon="2.93891">
        <ele>384.5</ele>
        <time>2018-04-07T09:55:51.000Z</time>
      </trkpt>
      <trkpt lat="43.5512" lon="2.93905">
        <ele>382.9</ele>
        <time>2018-04-07T09:56:01.000Z</time>
      </trkpt>
      <trkpt lat="43.55149" lon="2.93923">
        <ele>381.1</ele>
        <time>2018-04-07T09:56:11.000Z</time>
      </trkpt>
      <trkpt lat="43.5517" lon="2.93937">
        <ele>380.6</ele>
        <time>2018-04-07T09:56:21.000Z</time>
      </trkpt>
      <trkpt lat="43.55179" lon="2.93949">
        <ele>380.1</ele>
        <time>2018-04-07T09:56:31.000Z</time>
      </trkpt>
      <trkpt lat="43.55193" lon="2.9396">
        <ele>378.9</ele>
        <time>2018-04-07T09:57:05.000Z</time>
      </trkpt>
      <trkpt lat="43.55194" lon="2.93962">
        <ele>378.8</ele>
        <time>2018-04-07T09:57:06.000Z</time>
      </trkpt>
      <trkpt lat="43.55201" lon="2.9397">
        <ele>378.3</ele>
        <time>2018-04-07T09:57:11.000Z</time>
      </trkpt>
      <trkpt lat="43.55207" lon="2.93977">
        <ele>377.5</ele>
        <time>2018-04-07T09:57:16.000Z</time>
      </trkpt>
      <trkpt lat="43.55213" lon="2.93982">
        <ele>376.7</ele>
        <time>2018-04-07T09:57:21.000Z</time>
      </trkpt>
      <trkpt lat="43.55225" lon="2.93994">
        <ele>374.6</ele>
        <time>2018-04-07T09:57:31.000Z</time>
      </trkpt>
      <trkpt lat="43.55237" lon="2.93999">
        <ele>373.3</ele>
        <time>2018-04-07T09:57:38.000Z</time>
      </trkpt>
      <trkpt lat="43.55241" lon="2.93996">
        <ele>372.4</ele>
        <time>2018-04-07T09:57:41.000Z</time>
      </trkpt>
      <trkpt lat="43.55262" lon="2.9401">
        <ele>370</ele>
        <time>2018-04-07T09:57:51.000Z</time>
      </trkpt>
      <trkpt lat="43.55296" lon="2.94055">
        <ele>364.9</ele>
        <time>2018-04-07T09:58:01.000Z</time>
      </trkpt>
      <trkpt lat="43.55317" lon="2.9407">
        <ele>363.5</ele>
        <time>2018-04-07T09:58:09.000Z</time>
      </trkpt>
      <trkpt lat="43.55329" lon="2.94079">
        <ele>362.2</ele>
        <time>2018-04-07T09:58:11.000Z</time>
      </trkpt>
      <trkpt lat="43.55342" lon="2.94084">
        <ele>361.4</ele>
        <time>2018-04-07T09:58:13.000Z</time>
      </trkpt>
      <trkpt lat="43.55356" lon="2.94089">
        <ele>360.8</ele>
        <time>2018-04-07T09:58:16.000Z</time>
      </trkpt>
      <trkpt lat="43.55376" lon="2.94081">
        <ele>359.3</ele>
        <time>2018-04-07T09:58:21.000Z</time>
      </trkpt>
      <trkpt lat="43.5541" lon="2.94086">
        <ele>354.4</ele>
        <time>2018-04-07T09:58:29.000Z</time>
      </trkpt>
      <trkpt lat="43.55419" lon="2.9409">
        <ele>352.6</ele>
        <time>2018-04-07T09:58:31.000Z</time>
      </trkpt>
      <trkpt lat="43.55426" lon="2.9409">
        <ele>351.4</ele>
        <time>2018-04-07T09:58:32.000Z</time>
      </trkpt>
      <trkpt lat="43.55453" lon="2.941">
        <ele>347.6</ele>
        <time>2018-04-07T09:58:36.000Z</time>
      </trkpt>
      <trkpt lat="43.55463" lon="2.94097">
        <ele>345.3</ele>
        <time>2018-04-07T09:58:38.000Z</time>
      </trkpt>
      <trkpt lat="43.55472" lon="2.94096">
        <ele>343.6</ele>
        <time>2018-04-07T09:58:40.000Z</time>
      </trkpt>
      <trkpt lat="43.55477" lon="2.94098">
        <ele>342.7</ele>
        <time>2018-04-07T09:58:41.000Z</time>
      </trkpt>
      <trkpt lat="43.55509" lon="2.94129">
        <ele>342</ele>
        <time>2018-04-07T09:58:50.000Z</time>
      </trkpt>
      <trkpt lat="43.55513" lon="2.94133">
        <ele>341.1</ele>
        <time>2018-04-07T09:58:51.000Z</time>
      </trkpt>
      <trkpt lat="43.55517" lon="2.94136">
        <ele>340.6</ele>
        <time>2018-04-07T09:58:52.000Z</time>
      </trkpt>
      <trkpt lat="43.55555" lon="2.94158">
        <ele>341.2</ele>
        <time>2018-04-07T09:59:00.000Z</time>
      </trkpt>
      <trkpt lat="43.5556" lon="2.94159">
        <ele>340.7</ele>
        <time>2018-04-07T09:59:01.000Z</time>
      </trkpt>
      <trkpt lat="43.55575" lon="2.94166">
        <ele>341.6</ele>
        <time>2018-04-07T09:59:04.000Z</time>
      </trkpt>
      <trkpt lat="43.55579" lon="2.94176">
        <ele>341</ele>
        <time>2018-04-07T09:59:06.000Z</time>
      </trkpt>
      <trkpt lat="43.55576" lon="2.9419">
        <ele>339.6</ele>
        <time>2018-04-07T09:59:08.000Z</time>
      </trkpt>
      <trkpt lat="43.55566" lon="2.94214">
        <ele>337.6</ele>
        <time>2018-04-07T09:59:11.000Z</time>
      </trkpt>
      <trkpt lat="43.55541" lon="2.94253">
        <ele>330.9</ele>
        <time>2018-04-07T09:59:16.000Z</time>
      </trkpt>
      <trkpt lat="43.55524" lon="2.94265">
        <ele>333.3</ele>
        <time>2018-04-07T09:59:18.000Z</time>
      </trkpt>
      <trkpt lat="43.55501" lon="2.94275">
        <ele>335.7</ele>
        <time>2018-04-07T09:59:21.000Z</time>
      </trkpt>
      <trkpt lat="43.55472" lon="2.94278">
        <ele>338.1</ele>
        <time>2018-04-07T09:59:31.000Z</time>
      </trkpt>
      <trkpt lat="43.55437" lon="2.94274">
        <ele>340.9</ele>
        <time>2018-04-07T09:59:41.000Z</time>
      </trkpt>
      <trkpt lat="43.55441" lon="2.94276">
        <ele>339.6</ele>
        <time>2018-04-07T09:59:43.000Z</time>
      </trkpt>
      <trkpt lat="43.55471" lon="2.94288">
        <ele>334.2</ele>
        <time>2018-04-07T09:59:48.000Z</time>
      </trkpt>
      <trkpt lat="43.55489" lon="2.94291">
        <ele>333.8</ele>
        <time>2018-04-07T09:59:51.000Z</time>
      </trkpt>
      <trkpt lat="43.55548" lon="2.94276">
        <ele>338.1</ele>
        <time>2018-04-07T09:59:59.000Z</time>
      </trkpt>
      <trkpt lat="43.55556" lon="2.94276">
        <ele>338.9</ele>
        <time>2018-04-07T10:00:00.000Z</time>
      </trkpt>
      <trkpt lat="43.55563" lon="2.94278">
        <ele>339.5</ele>
        <time>2018-04-07T10:00:01.000Z</time>
      </trkpt>
      <trkpt lat="43.55571" lon="2.94282">
        <ele>339.2</ele>
        <time>2018-04-07T10:00:02.000Z</time>
      </trkpt>
      <trkpt lat="43.55584" lon="2.94295">
        <ele>336.7</ele>
        <time>2018-04-07T10:00:04.000Z</time>
      </trkpt>
      <trkpt lat="43.55613" lon="2.94345">
        <ele>321.3</ele>
        <time>2018-04-07T10:00:09.000Z</time>
      </trkpt>
      <trkpt lat="43.55626" lon="2.94363">
        <ele>316.3</ele>
        <time>2018-04-07T10:00:11.000Z</time>
      </trkpt>
      <trkpt lat="43.55638" lon="2.94372">
        <ele>315</ele>
        <time>2018-04-07T10:00:13.000Z</time>
      </trkpt>
      <trkpt lat="43.55652" lon="2.94377">
        <ele>318.1</ele>
        <time>2018-04-07T10:00:15.000Z</time>
      </trkpt>
      <trkpt lat="43.55663" lon="2.94382">
        <ele>317.2</ele>
        <time>2018-04-07T10:00:17.000Z</time>
      </trkpt>
      <trkpt lat="43.55671" lon="2.94388">
        <ele>318.8</ele>
        <time>2018-04-07T10:00:19.000Z</time>
      </trkpt>
      <trkpt lat="43.55679" lon="2.94399">
        <ele>317.3</ele>
        <time>2018-04-07T10:00:21.000Z</time>
      </trkpt>
      <trkpt lat="43.55692" lon="2.94427">
        <ele>307.6</ele>
        <time>2018-04-07T10:00:24.000Z</time>
      </trkpt>
      <trkpt lat="43.55704" lon="2.94442">
        <ele>302.1</ele>
        <time>2018-04-07T10:00:26.000Z</time>
      </trkpt>
      <trkpt lat="43.55734" lon="2.94457">
        <ele>304.2</ele>
        <time>2018-04-07T10:00:30.000Z</time>
      </trkpt>
      <trkpt lat="43.55741" lon="2.94457">
        <ele>305.8</ele>
        <time>2018-04-07T10:00:31.000Z</time>
      </trkpt>
      <trkpt lat="43.55774" lon="2.94457">
        <ele>310.8</ele>
        <time>2018-04-07T10:00:35.000Z</time>
      </trkpt>
      <trkpt lat="43.55792" lon="2.94461">
        <ele>309.4</ele>
        <time>2018-04-07T10:00:37.000Z</time>
      </trkpt>
      <trkpt lat="43.5583" lon="2.9448">
        <ele>303.6</ele>
        <time>2018-04-07T10:00:41.000Z</time>
      </trkpt>
      <trkpt lat="43.55871" lon="2.94517">
        <ele>294.6</ele>
        <time>2018-04-07T10:00:47.000Z</time>
      </trkpt>
      <trkpt lat="43.55876" lon="2.94528">
        <ele>293.7</ele>
        <time>2018-04-07T10:00:49.000Z</time>
      </trkpt>
      <trkpt lat="43.55879" lon="2.94538">
        <ele>292.2</ele>
        <time>2018-04-07T10:00:51.000Z</time>
      </trkpt>
      <trkpt lat="43.55882" lon="2.94546">
        <ele>291.3</ele>
        <time>2018-04-07T10:00:56.000Z</time>
      </trkpt>
      <trkpt lat="43.55884" lon="2.94558">
        <ele>289.5</ele>
        <time>2018-04-07T10:04:00.000Z</time>
      </trkpt>
      <trkpt lat="43.55885" lon="2.9456">
        <ele>290</ele>
        <time>2018-04-07T10:04:01.000Z</time>
      </trkpt>
      <trkpt lat="43.55885" lon="2.94561">
        <ele>290</ele>
        <time>2018-04-07T10:04:03.000Z</time>
      </trkpt>
      <trkpt lat="43.5589" lon="2.94574">
        <ele>289.1</ele>
        <time>2018-04-07T10:04:25.000Z</time>
      </trkpt>
      <trkpt lat="43.55894" lon="2.94589">
        <ele>288.5</ele>
        <time>2018-04-07T10:04:31.000Z</time>
      </trkpt>
      <trkpt lat="43.55906" lon="2.94624">
        <ele>286.8</ele>
        <time>2018-04-07T10:04:41.000Z</time>
      </trkpt>
      <trkpt lat="43.55918" lon="2.94659">
        <ele>286.4</ele>
        <time>2018-04-07T10:04:51.000Z</time>
      </trkpt>
      <trkpt lat="43.5593" lon="2.94697">
        <ele>285.8</ele>
        <time>2018-04-07T10:04:58.000Z</time>
      </trkpt>
      <trkpt lat="43.55935" lon="2.94712">
        <ele>286.3</ele>
        <time>2018-04-07T10:05:01.000Z</time>
      </trkpt>
      <trkpt lat="43.55947" lon="2.94743">
        <ele>284.6</ele>
        <time>2018-04-07T10:05:11.000Z</time>
      </trkpt>
      <trkpt lat="43.55964" lon="2.94787">
        <ele>280.6</ele>
        <time>2018-04-07T10:05:20.000Z</time>
      </trkpt>
      <trkpt lat="43.55967" lon="2.94794">
        <ele>280.3</ele>
        <time>2018-04-07T10:05:21.000Z</time>
      </trkpt>
      <trkpt lat="43.55984" lon="2.94838">
        <ele>273.9</ele>
        <time>2018-04-07T10:05:31.000Z</time>
      </trkpt>
      <trkpt lat="43.55989" lon="2.94865">
        <ele>269.2</ele>
        <time>2018-04-07T10:05:36.000Z</time>
      </trkpt>
      <trkpt lat="43.55994" lon="2.94878">
        <ele>266.2</ele>
        <time>2018-04-07T10:05:38.000Z</time>
      </trkpt>
      <trkpt lat="43.56002" lon="2.94891">
        <ele>263.1</ele>
        <time>2018-04-07T10:05:41.000Z</time>
      </trkpt>
      <trkpt lat="43.5601" lon="2.9489">
        <ele>263.7</ele>
        <time>2018-04-07T10:05:48.000Z</time>
      </trkpt>
      <trkpt lat="43.56008" lon="2.94884">
        <ele>264.2</ele>
        <time>2018-04-07T10:05:51.000Z</time>
      </trkpt>
      <trkpt lat="43.56006" lon="2.94878">
        <ele>265</ele>
        <time>2018-04-07T10:05:56.000Z</time>
      </trkpt>
      <trkpt lat="43.56003" lon="2.94871">
        <ele>265.4</ele>
        <time>2018-04-07T10:06:14.000Z</time>
      </trkpt>
      <trkpt lat="43.56002" lon="2.94854">
        <ele>266.9</ele>
        <time>2018-04-07T10:06:22.000Z</time>
      </trkpt>
      <trkpt lat="43.56002" lon="2.94853">
        <ele>267.1</ele>
        <time>2018-04-07T10:06:24.000Z</time>
      </trkpt>
      <trkpt lat="43.56" lon="2.94847">
        <ele>267.7</ele>
        <time>2018-04-07T10:06:36.000Z</time>
      </trkpt>
      <trkpt lat="43.55997" lon="2.94833">
        <ele>268.4</ele>
        <time>2018-04-07T10:06:42.000Z</time>
      </trkpt>
      <trkpt lat="43.55992" lon="2.94811">
        <ele>270.5</ele>
        <time>2018-04-07T10:06:52.000Z</time>
      </trkpt>
      <trkpt lat="43.55985" lon="2.94789">
        <ele>272.7</ele>
        <time>2018-04-07T10:07:02.000Z</time>
      </trkpt>
      <trkpt lat="43.55977" lon="2.94769">
        <ele>274.5</ele>
        <time>2018-04-07T10:07:12.000Z</time>
      </trkpt>
      <trkpt lat="43.55967" lon="2.94748">
        <ele>276.9</ele>
        <time>2018-04-07T10:07:22.000Z</time>
      </trkpt>
      <trkpt lat="43.55958" lon="2.94725">
        <ele>279</ele>
        <time>2018-04-07T10:07:32.000Z</time>
      </trkpt>
      <trkpt lat="43.55952" lon="2.94702">
        <ele>281.4</ele>
        <time>2018-04-07T10:07:42.000Z</time>
      </trkpt>
      <trkpt lat="43.55945" lon="2.9468">
        <ele>283.1</ele>
        <time>2018-04-07T10:07:52.000Z</time>
      </trkpt>
      <trkpt lat="43.5594" lon="2.94655">
        <ele>284.3</ele>
        <time>2018-04-07T10:08:02.000Z</time>
      </trkpt>
      <trkpt lat="43.55934" lon="2.9463">
        <ele>286.1</ele>
        <time>2018-04-07T10:08:12.000Z</time>
      </trkpt>
      <trkpt lat="43.55928" lon="2.94602">
        <ele>287.8</ele>
        <time>2018-04-07T10:08:22.000Z</time>
      </trkpt>
      <trkpt lat="43.55924" lon="2.94573">
        <ele>289</ele>
        <time>2018-04-07T10:08:32.000Z</time>
      </trkpt>
      <trkpt lat="43.5592" lon="2.94544">
        <ele>290.8</ele>
        <time>2018-04-07T10:08:42.000Z</time>
      </trkpt>
      <trkpt lat="43.55915" lon="2.94519">
        <ele>292.5</ele>
        <time>2018-04-07T10:08:52.000Z</time>
      </trkpt>
      <trkpt lat="43.55901" lon="2.94497">
        <ele>293.7</ele>
        <time>2018-04-07T10:09:02.000Z</time>
      </trkpt>
      <trkpt lat="43.55885" lon="2.94476">
        <ele>295.3</ele>
        <time>2018-04-07T10:09:12.000Z</time>
      </trkpt>
      <trkpt lat="43.55871" lon="2.94459">
        <ele>297.1</ele>
        <time>2018-04-07T10:09:22.000Z</time>
      </trkpt>
      <trkpt lat="43.55857" lon="2.94444">
        <ele>298.1</ele>
        <time>2018-04-07T10:09:32.000Z</time>
      </trkpt>
      <trkpt lat="43.55843" lon="2.94433">
        <ele>299.8</ele>
        <time>2018-04-07T10:09:42.000Z</time>
      </trkpt>
      <trkpt lat="43.55828" lon="2.94423">
        <ele>301.6</ele>
        <time>2018-04-07T10:09:52.000Z</time>
      </trkpt>
      <trkpt lat="43.55811" lon="2.94415">
        <ele>302.9</ele>
        <time>2018-04-07T10:10:02.000Z</time>
      </trkpt>
      <trkpt lat="43.55793" lon="2.94412">
        <ele>304.8</ele>
        <time>2018-04-07T10:10:12.000Z</time>
      </trkpt>
      <trkpt lat="43.55775" lon="2.94414">
        <ele>306.7</ele>
        <time>2018-04-07T10:10:22.000Z</time>
      </trkpt>
      <trkpt lat="43.55758" lon="2.94418">
        <ele>308.4</ele>
        <time>2018-04-07T10:10:32.000Z</time>
      </trkpt>
      <trkpt lat="43.5574" lon="2.94421">
        <ele>309.3</ele>
        <time>2018-04-07T10:10:42.000Z</time>
      </trkpt>
      <trkpt lat="43.55722" lon="2.94415">
        <ele>311.5</ele>
        <time>2018-04-07T10:10:52.000Z</time>
      </trkpt>
      <trkpt lat="43.5571" lon="2.94399">
        <ele>313.1</ele>
        <time>2018-04-07T10:11:02.000Z</time>
      </trkpt>
      <trkpt lat="43.55698" lon="2.9438">
        <ele>314.5</ele>
        <time>2018-04-07T10:11:12.000Z</time>
      </trkpt>
      <trkpt lat="43.55687" lon="2.94361">
        <ele>316.2</ele>
        <time>2018-04-07T10:11:22.000Z</time>
      </trkpt>
      <trkpt lat="43.55672" lon="2.94348">
        <ele>318.2</ele>
        <time>2018-04-07T10:11:32.000Z</time>
      </trkpt>
      <trkpt lat="43.55655" lon="2.9434">
        <ele>319.8</ele>
        <time>2018-04-07T10:11:42.000Z</time>
      </trkpt>
      <trkpt lat="43.55638" lon="2.94329">
        <ele>321.3</ele>
        <time>2018-04-07T10:11:52.000Z</time>
      </trkpt>
      <trkpt lat="43.55622" lon="2.94313">
        <ele>322.4</ele>
        <time>2018-04-07T10:12:02.000Z</time>
      </trkpt>
      <trkpt lat="43.55609" lon="2.94298">
        <ele>323.7</ele>
        <time>2018-04-07T10:12:12.000Z</time>
      </trkpt>
      <trkpt lat="43.55596" lon="2.94281">
        <ele>324.8</ele>
        <time>2018-04-07T10:12:22.000Z</time>
      </trkpt>
      <trkpt lat="43.55583" lon="2.94266">
        <ele>326.4</ele>
        <time>2018-04-07T10:12:32.000Z</time>
      </trkpt>
      <trkpt lat="43.55569" lon="2.94257">
        <ele>328.3</ele>
        <time>2018-04-07T10:12:42.000Z</time>
      </trkpt>
      <trkpt lat="43.55554" lon="2.94256">
        <ele>329.6</ele>
        <time>2018-04-07T10:12:52.000Z</time>
      </trkpt>
      <trkpt lat="43.55541" lon="2.9426">
        <ele>331.6</ele>
        <time>2018-04-07T10:13:02.000Z</time>
      </trkpt>
      <trkpt lat="43.55525" lon="2.94267">
        <ele>333.7</ele>
        <time>2018-04-07T10:13:12.000Z</time>
      </trkpt>
      <trkpt lat="43.5551" lon="2.94276">
        <ele>335.5</ele>
        <time>2018-04-07T10:13:22.000Z</time>
      </trkpt>
      <trkpt lat="43.55494" lon="2.94279">
        <ele>337.1</ele>
        <time>2018-04-07T10:13:32.000Z</time>
      </trkpt>
      <trkpt lat="43.55476" lon="2.94274">
        <ele>342.4</ele>
        <time>2018-04-07T10:13:43.000Z</time>
      </trkpt>
      <trkpt lat="43.55456" lon="2.94265">
        <ele>343.2</ele>
        <time>2018-04-07T10:13:53.000Z</time>
      </trkpt>
      <trkpt lat="43.5544" lon="2.94256">
        <ele>344.8</ele>
        <time>2018-04-07T10:14:03.000Z</time>
      </trkpt>
      <trkpt lat="43.55426" lon="2.94246">
        <ele>346.5</ele>
        <time>2018-04-07T10:14:13.000Z</time>
      </trkpt>
      <trkpt lat="43.55407" lon="2.94237">
        <ele>349.1</ele>
        <time>2018-04-07T10:14:23.000Z</time>
      </trkpt>
      <trkpt lat="43.55392" lon="2.94224">
        <ele>350.9</ele>
        <time>2018-04-07T10:14:33.000Z</time>
      </trkpt>
      <trkpt lat="43.55376" lon="2.94211">
        <ele>352.2</ele>
        <time>2018-04-07T10:14:43.000Z</time>
      </trkpt>
      <trkpt lat="43.55362" lon="2.94192">
        <ele>354.3</ele>
        <time>2018-04-07T10:14:53.000Z</time>
      </trkpt>
      <trkpt lat="43.55352" lon="2.9417">
        <ele>356.2</ele>
        <time>2018-04-07T10:15:03.000Z</time>
      </trkpt>
      <trkpt lat="43.55343" lon="2.94152">
        <ele>357.8</ele>
        <time>2018-04-07T10:15:13.000Z</time>
      </trkpt>
      <trkpt lat="43.55334" lon="2.94137">
        <ele>359.1</ele>
        <time>2018-04-07T10:15:23.000Z</time>
      </trkpt>
      <trkpt lat="43.55318" lon="2.94123">
        <ele>361.4</ele>
        <time>2018-04-07T10:15:33.000Z</time>
      </trkpt>
      <trkpt lat="43.55304" lon="2.94114">
        <ele>363.1</ele>
        <time>2018-04-07T10:15:43.000Z</time>
      </trkpt>
      <trkpt lat="43.55289" lon="2.94103">
        <ele>365</ele>
        <time>2018-04-07T10:15:53.000Z</time>
      </trkpt>
      <trkpt lat="43.55274" lon="2.94092">
        <ele>367</ele>
        <time>2018-04-07T10:16:03.000Z</time>
      </trkpt>
      <trkpt lat="43.55259" lon="2.9408">
        <ele>368.4</ele>
        <time>2018-04-07T10:16:13.000Z</time>
      </trkpt>
      <trkpt lat="43.55244" lon="2.94069">
        <ele>370.2</ele>
        <time>2018-04-07T10:16:23.000Z</time>
      </trkpt>
      <trkpt lat="43.55229" lon="2.94054">
        <ele>372.3</ele>
        <time>2018-04-07T10:16:33.000Z</time>
      </trkpt>
      <trkpt lat="43.55217" lon="2.94037">
        <ele>374.1</ele>
        <time>2018-04-07T10:16:43.000Z</time>
      </trkpt>
      <trkpt lat="43.55206" lon="2.94019">
        <ele>375.8</ele>
        <time>2018-04-07T10:16:53.000Z</time>
      </trkpt>
      <trkpt lat="43.55197" lon="2.93997">
        <ele>377.1</ele>
        <time>2018-04-07T10:17:03.000Z</time>
      </trkpt>
      <trkpt lat="43.5519" lon="2.93971">
        <ele>378.9</ele>
        <time>2018-04-07T10:17:13.000Z</time>
      </trkpt>
      <trkpt lat="43.55182" lon="2.93949">
        <ele>380.2</ele>
        <time>2018-04-07T10:17:23.000Z</time>
      </trkpt>
      <trkpt lat="43.55166" lon="2.93931">
        <ele>380.8</ele>
        <time>2018-04-07T10:17:33.000Z</time>
      </trkpt>
      <trkpt lat="43.55147" lon="2.93916">
        <ele>381.5</ele>
        <time>2018-04-07T10:17:43.000Z</time>
      </trkpt>
      <trkpt lat="43.55129" lon="2.93903">
        <ele>382.9</ele>
        <time>2018-04-07T10:17:53.000Z</time>
      </trkpt>
      <trkpt lat="43.55111" lon="2.93892">
        <ele>383.6</ele>
        <time>2018-04-07T10:18:03.000Z</time>
      </trkpt>
      <trkpt lat="43.55092" lon="2.93878">
        <ele>384.9</ele>
        <time>2018-04-07T10:18:13.000Z</time>
      </trkpt>
      <trkpt lat="43.55074" lon="2.93863">
        <ele>385.6</ele>
        <time>2018-04-07T10:18:23.000Z</time>
      </trkpt>
      <trkpt lat="43.55057" lon="2.93846">
        <ele>386.7</ele>
        <time>2018-04-07T10:18:33.000Z</time>
      </trkpt>
      <trkpt lat="43.55043" lon="2.93821">
        <ele>387.7</ele>
        <time>2018-04-07T10:18:43.000Z</time>
      </trkpt>
      <trkpt lat="43.55031" lon="2.93796">
        <ele>388.2</ele>
        <time>2018-04-07T10:18:53.000Z</time>
      </trkpt>
      <trkpt lat="43.55013" lon="2.9379">
        <ele>388.7</ele>
        <time>2018-04-07T10:19:03.000Z</time>
      </trkpt>
      <trkpt lat="43.54993" lon="2.93804">
        <ele>390.3</ele>
        <time>2018-04-07T10:19:13.000Z</time>
      </trkpt>
      <trkpt lat="43.54974" lon="2.93814">
        <ele>392.1</ele>
        <time>2018-04-07T10:19:23.000Z</time>
      </trkpt>
      <trkpt lat="43.54953" lon="2.93825">
        <ele>393.6</ele>
        <time>2018-04-07T10:19:33.000Z</time>
      </trkpt>
      <trkpt lat="43.54933" lon="2.93832">
        <ele>394.7</ele>
        <time>2018-04-07T10:19:43.000Z</time>
      </trkpt>
      <trkpt lat="43.54911" lon="2.93838">
        <ele>395.7</ele>
        <time>2018-04-07T10:19:53.000Z</time>
      </trkpt>
      <trkpt lat="43.54891" lon="2.93851">
        <ele>397.4</ele>
        <time>2018-04-07T10:20:03.000Z</time>
      </trkpt>
      <trkpt lat="43.54873" lon="2.93862">
        <ele>398.9</ele>
        <time>2018-04-07T10:20:13.000Z</time>
      </trkpt>
      <trkpt lat="43.54855" lon="2.93877">
        <ele>399.9</ele>
        <time>2018-04-07T10:20:23.000Z</time>
      </trkpt>
      <trkpt lat="43.54836" lon="2.93893">
        <ele>401.6</ele>
        <time>2018-04-07T10:20:33.000Z</time>
      </trkpt>
      <trkpt lat="43.54819" lon="2.93908">
        <ele>403.1</ele>
        <time>2018-04-07T10:20:43.000Z</time>
      </trkpt>
      <trkpt lat="43.548" lon="2.93914">
        <ele>404.4</ele>
        <time>2018-04-07T10:20:53.000Z</time>
      </trkpt>
      <trkpt lat="43.5478" lon="2.93917">
        <ele>405.7</ele>
        <time>2018-04-07T10:21:03.000Z</time>
      </trkpt>
      <trkpt lat="43.54774" lon="2.93912">
        <ele>405.8</ele>
        <time>2018-04-07T10:21:07.000Z</time>
      </trkpt>
      <trkpt lat="43.54775" lon="2.939">
        <ele>399.5</ele>
        <time>2018-04-07T10:21:12.000Z</time>
      </trkpt>
      <trkpt lat="43.54777" lon="2.93899">
        <ele>400</ele>
        <time>2018-04-07T10:21:13.000Z</time>
      </trkpt>
      <trkpt lat="43.54794" lon="2.93895">
        <ele>398.9</ele>
        <time>2018-04-07T10:21:23.000Z</time>
      </trkpt>
      <trkpt lat="43.54813" lon="2.93884">
        <ele>399</ele>
        <time>2018-04-07T10:21:33.000Z</time>
      </trkpt>
      <trkpt lat="43.5483" lon="2.93862">
        <ele>400.3</ele>
        <time>2018-04-07T10:21:43.000Z</time>
      </trkpt>
      <trkpt lat="43.54848" lon="2.93843">
        <ele>401.6</ele>
        <time>2018-04-07T10:21:53.000Z</time>
      </trkpt>
      <trkpt lat="43.54864" lon="2.93822">
        <ele>401.9</ele>
        <time>2018-04-07T10:22:03.000Z</time>
      </trkpt>
      <trkpt lat="43.5488" lon="2.93801">
        <ele>402.2</ele>
        <time>2018-04-07T10:22:13.000Z</time>
      </trkpt>
      <trkpt lat="43.54898" lon="2.93781">
        <ele>403.2</ele>
        <time>2018-04-07T10:22:23.000Z</time>
      </trkpt>
      <trkpt lat="43.54916" lon="2.93764">
        <ele>403.4</ele>
        <time>2018-04-07T10:22:33.000Z</time>
      </trkpt>
      <trkpt lat="43.54931" lon="2.93749">
        <ele>403.5</ele>
        <time>2018-04-07T10:22:43.000Z</time>
      </trkpt>
      <trkpt lat="43.54951" lon="2.93734">
        <ele>403.9</ele>
        <time>2018-04-07T10:22:53.000Z</time>
      </trkpt>
      <trkpt lat="43.54971" lon="2.93721">
        <ele>404.7</ele>
        <time>2018-04-07T10:23:03.000Z</time>
      </trkpt>
      <trkpt lat="43.54993" lon="2.93713">
        <ele>404.7</ele>
        <time>2018-04-07T10:23:13.000Z</time>
      </trkpt>
      <trkpt lat="43.55017" lon="2.93709">
        <ele>404.9</ele>
        <time>2018-04-07T10:23:23.000Z</time>
      </trkpt>
      <trkpt lat="43.55042" lon="2.93711">
        <ele>405.8</ele>
        <time>2018-04-07T10:23:33.000Z</time>
      </trkpt>
      <trkpt lat="43.55064" lon="2.93716">
        <ele>406.4</ele>
        <time>2018-04-07T10:23:43.000Z</time>
      </trkpt>
      <trkpt lat="43.55086" lon="2.93725">
        <ele>407.2</ele>
        <time>2018-04-07T10:23:53.000Z</time>
      </trkpt>
      <trkpt lat="43.55096" lon="2.93723">
        <ele>407.4</ele>
        <time>2018-04-07T10:23:59.000Z</time>
      </trkpt>
      <trkpt lat="43.55095" lon="2.93711">
        <ele>407.3</ele>
        <time>2018-04-07T10:24:03.000Z</time>
      </trkpt>
      <trkpt lat="43.55081" lon="2.93696">
        <ele>406.9</ele>
        <time>2018-04-07T10:24:08.000Z</time>
      </trkpt>
      <trkpt lat="43.55065" lon="2.93673">
        <ele>405.9</ele>
        <time>2018-04-07T10:24:13.000Z</time>
      </trkpt>
      <trkpt lat="43.55035" lon="2.93647">
        <ele>405.5</ele>
        <time>2018-04-07T10:24:23.000Z</time>
      </trkpt>
      <trkpt lat="43.55009" lon="2.93635">
        <ele>406.4</ele>
        <time>2018-04-07T10:24:33.000Z</time>
      </trkpt>
      <trkpt lat="43.5499" lon="2.93628">
        <ele>407.9</ele>
        <time>2018-04-07T10:24:43.000Z</time>
      </trkpt>
      <trkpt lat="43.54972" lon="2.93628">
        <ele>409</ele>
        <time>2018-04-07T10:24:53.000Z</time>
      </trkpt>
      <trkpt lat="43.54953" lon="2.93636">
        <ele>410.3</ele>
        <time>2018-04-07T10:25:03.000Z</time>
      </trkpt>
      <trkpt lat="43.54935" lon="2.93649">
        <ele>411.8</ele>
        <time>2018-04-07T10:25:13.000Z</time>
      </trkpt>
      <trkpt lat="43.54917" lon="2.93657">
        <ele>413.6</ele>
        <time>2018-04-07T10:25:23.000Z</time>
      </trkpt>
      <trkpt lat="43.54897" lon="2.93654">
        <ele>414.7</ele>
        <time>2018-04-07T10:25:33.000Z</time>
      </trkpt>
      <trkpt lat="43.54879" lon="2.93649">
        <ele>416.4</ele>
        <time>2018-04-07T10:25:43.000Z</time>
      </trkpt>
      <trkpt lat="43.54863" lon="2.9364">
        <ele>417.2</ele>
        <time>2018-04-07T10:25:53.000Z</time>
      </trkpt>
      <trkpt lat="43.54847" lon="2.93632">
        <ele>417.8</ele>
        <time>2018-04-07T10:26:03.000Z</time>
      </trkpt>
      <trkpt lat="43.54829" lon="2.93624">
        <ele>419.2</ele>
        <time>2018-04-07T10:26:13.000Z</time>
      </trkpt>
      <trkpt lat="43.5481" lon="2.93619">
        <ele>420.5</ele>
        <time>2018-04-07T10:26:23.000Z</time>
      </trkpt>
      <trkpt lat="43.54791" lon="2.93614">
        <ele>421.3</ele>
        <time>2018-04-07T10:26:33.000Z</time>
      </trkpt>
      <trkpt lat="43.54773" lon="2.93611">
        <ele>422.2</ele>
        <time>2018-04-07T10:26:43.000Z</time>
      </trkpt>
      <trkpt lat="43.54754" lon="2.93612">
        <ele>423.4</ele>
        <time>2018-04-07T10:26:53.000Z</time>
      </trkpt>
      <trkpt lat="43.54736" lon="2.93616">
        <ele>425.2</ele>
        <time>2018-04-07T10:27:03.000Z</time>
      </trkpt>
      <trkpt lat="43.54719" lon="2.93619">
        <ele>426.5</ele>
        <time>2018-04-07T10:27:13.000Z</time>
      </trkpt>
      <trkpt lat="43.54701" lon="2.93621">
        <ele>427.6</ele>
        <time>2018-04-07T10:27:23.000Z</time>
      </trkpt>
      <trkpt lat="43.54682" lon="2.93628">
        <ele>428.6</ele>
        <time>2018-04-07T10:27:33.000Z</time>
      </trkpt>
      <trkpt lat="43.54667" lon="2.93633">
        <ele>430</ele>
        <time>2018-04-07T10:27:43.000Z</time>
      </trkpt>
      <trkpt lat="43.54652" lon="2.93636">
        <ele>431.2</ele>
        <time>2018-04-07T10:27:53.000Z</time>
      </trkpt>
      <trkpt lat="43.54635" lon="2.93636">
        <ele>431.7</ele>
        <time>2018-04-07T10:28:03.000Z</time>
      </trkpt>
      <trkpt lat="43.54618" lon="2.93636">
        <ele>432.5</ele>
        <time>2018-04-07T10:28:13.000Z</time>
      </trkpt>
      <trkpt lat="43.54601" lon="2.93636">
        <ele>433.3</ele>
        <time>2018-04-07T10:28:23.000Z</time>
      </trkpt>
      <trkpt lat="43.54585" lon="2.93634">
        <ele>434.6</ele>
        <time>2018-04-07T10:28:33.000Z</time>
      </trkpt>
      <trkpt lat="43.54567" lon="2.93631">
        <ele>435.5</ele>
        <time>2018-04-07T10:28:43.000Z</time>
      </trkpt>
      <trkpt lat="43.54551" lon="2.9363">
        <ele>437.2</ele>
        <time>2018-04-07T10:28:53.000Z</time>
      </trkpt>
      <trkpt lat="43.54534" lon="2.93629">
        <ele>438.5</ele>
        <time>2018-04-07T10:29:03.000Z</time>
      </trkpt>
      <trkpt lat="43.54518" lon="2.93629">
        <ele>439.9</ele>
        <time>2018-04-07T10:29:13.000Z</time>
      </trkpt>
      <trkpt lat="43.54503" lon="2.93612">
        <ele>441.6</ele>
        <time>2018-04-07T10:29:23.000Z</time>
      </trkpt>
      <trkpt lat="43.54496" lon="2.93583">
        <ele>442.7</ele>
        <time>2018-04-07T10:29:33.000Z</time>
      </trkpt>
      <trkpt lat="43.54497" lon="2.93555">
        <ele>443.2</ele>
        <time>2018-04-07T10:29:43.000Z</time>
      </trkpt>
      <trkpt lat="43.54503" lon="2.93527">
        <ele>444.1</ele>
        <time>2018-04-07T10:29:53.000Z</time>
      </trkpt>
      <trkpt lat="43.54508" lon="2.93494">
        <ele>444.5</ele>
        <time>2018-04-07T10:30:03.000Z</time>
      </trkpt>
      <trkpt lat="43.54506" lon="2.93466">
        <ele>444.8</ele>
        <time>2018-04-07T10:30:13.000Z</time>
      </trkpt>
      <trkpt lat="43.54508" lon="2.93435">
        <ele>445.5</ele>
        <time>2018-04-07T10:30:23.000Z</time>
      </trkpt>
      <trkpt lat="43.54515" lon="2.93403">
        <ele>445.8</ele>
        <time>2018-04-07T10:30:33.000Z</time>
      </trkpt>
      <trkpt lat="43.54521" lon="2.93368">
        <ele>446</ele>
        <time>2018-04-07T10:30:43.000Z</time>
      </trkpt>
      <trkpt lat="43.54524" lon="2.93335">
        <ele>446.4</ele>
        <time>2018-04-07T10:30:53.000Z</time>
      </trkpt>
      <trkpt lat="43.54534" lon="2.93307">
        <ele>447.5</ele>
        <time>2018-04-07T10:31:03.000Z</time>
      </trkpt>
      <trkpt lat="43.54553" lon="2.93281">
        <ele>448.7</ele>
        <time>2018-04-07T10:31:13.000Z</time>
      </trkpt>
      <trkpt lat="43.54574" lon="2.93255">
        <ele>450.1</ele>
        <time>2018-04-07T10:31:23.000Z</time>
      </trkpt>
      <trkpt lat="43.54587" lon="2.93234">
        <ele>450.4</ele>
        <time>2018-04-07T10:31:33.000Z</time>
      </trkpt>
      <trkpt lat="43.54596" lon="2.93206">
        <ele>450.8</ele>
        <time>2018-04-07T10:31:43.000Z</time>
      </trkpt>
      <trkpt lat="43.54608" lon="2.93178">
        <ele>451.6</ele>
        <time>2018-04-07T10:31:53.000Z</time>
      </trkpt>
      <trkpt lat="43.54617" lon="2.93152">
        <ele>452.2</ele>
        <time>2018-04-07T10:32:03.000Z</time>
      </trkpt>
      <trkpt lat="43.54609" lon="2.93121">
        <ele>453.2</ele>
        <time>2018-04-07T10:32:13.000Z</time>
      </trkpt>
      <trkpt lat="43.54594" lon="2.93096">
        <ele>454.4</ele>
        <time>2018-04-07T10:32:23.000Z</time>
      </trkpt>
      <trkpt lat="43.54567" lon="2.93066">
        <ele>454.4</ele>
        <time>2018-04-07T10:32:33.000Z</time>
      </trkpt>
      <trkpt lat="43.54536" lon="2.93038">
        <ele>451.3</ele>
        <time>2018-04-07T10:32:43.000Z</time>
      </trkpt>
      <trkpt lat="43.54509" lon="2.93011">
        <ele>450.6</ele>
        <time>2018-04-07T10:32:53.000Z</time>
      </trkpt>
      <trkpt lat="43.54494" lon="2.92989">
        <ele>451.4</ele>
        <time>2018-04-07T10:33:03.000Z</time>
      </trkpt>
      <trkpt lat="43.5449" lon="2.92961">
        <ele>451.9</ele>
        <time>2018-04-07T10:33:13.000Z</time>
      </trkpt>
      <trkpt lat="43.54492" lon="2.92956">
        <ele>452</ele>
        <time>2018-04-07T10:33:14.000Z</time>
      </trkpt>
      <trkpt lat="43.54499" lon="2.9293">
        <ele>442.4</ele>
        <time>2018-04-07T10:33:18.000Z</time>
      </trkpt>
      <trkpt lat="43.54499" lon="2.92915">
        <ele>437.1</ele>
        <time>2018-04-07T10:33:20.000Z</time>
      </trkpt>
      <trkpt lat="43.54494" lon="2.92893">
        <ele>430.6</ele>
        <time>2018-04-07T10:33:23.000Z</time>
      </trkpt>
      <trkpt lat="43.5448" lon="2.92844">
        <ele>423.2</ele>
        <time>2018-04-07T10:33:28.000Z</time>
      </trkpt>
      <trkpt lat="43.5447" lon="2.92779">
        <ele>414.8</ele>
        <time>2018-04-07T10:33:33.000Z</time>
      </trkpt>
      <trkpt lat="43.54463" lon="2.9274">
        <ele>410.4</ele>
        <time>2018-04-07T10:33:41.000Z</time>
      </trkpt>
      <trkpt lat="43.54458" lon="2.92743">
        <ele>410.9</ele>
        <time>2018-04-07T10:37:39.000Z</time>
      </trkpt>
      <trkpt lat="43.54455" lon="2.92752">
        <ele>412.4</ele>
        <time>2018-04-07T10:37:43.000Z</time>
      </trkpt>
      <trkpt lat="43.54449" lon="2.92777">
        <ele>418.8</ele>
        <time>2018-04-07T10:37:53.000Z</time>
      </trkpt>
      <trkpt lat="43.54443" lon="2.92801">
        <ele>420.7</ele>
        <time>2018-04-07T10:38:03.000Z</time>
      </trkpt>
      <trkpt lat="43.54437" lon="2.92826">
        <ele>423</ele>
        <time>2018-04-07T10:38:13.000Z</time>
      </trkpt>
      <trkpt lat="43.54429" lon="2.9285">
        <ele>424.7</ele>
        <time>2018-04-07T10:38:23.000Z</time>
      </trkpt>
      <trkpt lat="43.54422" lon="2.92872">
        <ele>426.1</ele>
        <time>2018-04-07T10:38:33.000Z</time>
      </trkpt>
      <trkpt lat="43.54416" lon="2.92889">
        <ele>428</ele>
        <time>2018-04-07T10:38:43.000Z</time>
      </trkpt>
      <trkpt lat="43.5441" lon="2.92908">
        <ele>429.1</ele>
        <time>2018-04-07T10:38:53.000Z</time>
      </trkpt>
      <trkpt lat="43.54405" lon="2.92929">
        <ele>430.4</ele>
        <time>2018-04-07T10:39:03.000Z</time>
      </trkpt>
      <trkpt lat="43.54401" lon="2.92949">
        <ele>431.1</ele>
        <time>2018-04-07T10:39:13.000Z</time>
      </trkpt>
      <trkpt lat="43.54394" lon="2.92967">
        <ele>433.3</ele>
        <time>2018-04-07T10:39:23.000Z</time>
      </trkpt>
      <trkpt lat="43.54386" lon="2.92983">
        <ele>435.5</ele>
        <time>2018-04-07T10:39:33.000Z</time>
      </trkpt>
      <trkpt lat="43.54376" lon="2.92995">
        <ele>437</ele>
        <time>2018-04-07T10:39:43.000Z</time>
      </trkpt>
      <trkpt lat="43.54365" lon="2.93011">
        <ele>438.7</ele>
        <time>2018-04-07T10:39:53.000Z</time>
      </trkpt>
      <trkpt lat="43.54357" lon="2.93033">
        <ele>440.8</ele>
        <time>2018-04-07T10:40:03.000Z</time>
      </trkpt>
      <trkpt lat="43.5435" lon="2.93056">
        <ele>443.1</ele>
        <time>2018-04-07T10:40:13.000Z</time>
      </trkpt>
      <trkpt lat="43.54341" lon="2.93076">
        <ele>445.6</ele>
        <time>2018-04-07T10:40:23.000Z</time>
      </trkpt>
      <trkpt lat="43.54333" lon="2.93097">
        <ele>447</ele>
        <time>2018-04-07T10:40:33.000Z</time>
      </trkpt>
      <trkpt lat="43.54326" lon="2.93117">
        <ele>448.9</ele>
        <time>2018-04-07T10:40:43.000Z</time>
      </trkpt>
      <trkpt lat="43.54319" lon="2.93138">
        <ele>451.7</ele>
        <time>2018-04-07T10:40:53.000Z</time>
      </trkpt>
      <trkpt lat="43.54317" lon="2.93162">
        <ele>455</ele>
        <time>2018-04-07T10:41:03.000Z</time>
      </trkpt>
      <trkpt lat="43.54315" lon="2.93184">
        <ele>456.5</ele>
        <time>2018-04-07T10:41:13.000Z</time>
      </trkpt>
      <trkpt lat="43.54314" lon="2.93207">
        <ele>458.8</ele>
        <time>2018-04-07T10:41:23.000Z</time>
      </trkpt>
      <trkpt lat="43.54314" lon="2.93231">
        <ele>460.6</ele>
        <time>2018-04-07T10:41:33.000Z</time>
      </trkpt>
      <trkpt lat="43.54312" lon="2.93255">
        <ele>462.6</ele>
        <time>2018-04-07T10:41:43.000Z</time>
      </trkpt>
      <trkpt lat="43.54308" lon="2.9328">
        <ele>463.8</ele>
        <time>2018-04-07T10:41:53.000Z</time>
      </trkpt>
      <trkpt lat="43.54304" lon="2.93303">
        <ele>466.3</ele>
        <time>2018-04-07T10:42:03.000Z</time>
      </trkpt>
      <trkpt lat="43.54301" lon="2.9332">
        <ele>467.7</ele>
        <time>2018-04-07T10:42:10.000Z</time>
      </trkpt>
      <trkpt lat="43.54299" lon="2.93327">
        <ele>468</ele>
        <time>2018-04-07T10:42:13.000Z</time>
      </trkpt>
      <trkpt lat="43.54293" lon="2.93351">
        <ele>470.1</ele>
        <time>2018-04-07T10:42:23.000Z</time>
      </trkpt>
      <trkpt lat="43.54282" lon="2.93369">
        <ele>472.2</ele>
        <time>2018-04-07T10:42:33.000Z</time>
      </trkpt>
      <trkpt lat="43.54267" lon="2.93381">
        <ele>474.2</ele>
        <time>2018-04-07T10:42:43.000Z</time>
      </trkpt>
      <trkpt lat="43.54251" lon="2.93393">
        <ele>477</ele>
        <time>2018-04-07T10:42:53.000Z</time>
      </trkpt>
      <trkpt lat="43.54236" lon="2.93406">
        <ele>478.2</ele>
        <time>2018-04-07T10:43:03.000Z</time>
      </trkpt>
      <trkpt lat="43.54223" lon="2.93424">
        <ele>479.6</ele>
        <time>2018-04-07T10:43:13.000Z</time>
      </trkpt>
      <trkpt lat="43.54211" lon="2.93441">
        <ele>480.1</ele>
        <time>2018-04-07T10:43:23.000Z</time>
      </trkpt>
      <trkpt lat="43.54194" lon="2.93441">
        <ele>480.9</ele>
        <time>2018-04-07T10:43:33.000Z</time>
      </trkpt>
      <trkpt lat="43.54183" lon="2.93426">
        <ele>482.7</ele>
        <time>2018-04-07T10:43:43.000Z</time>
      </trkpt>
      <trkpt lat="43.54182" lon="2.93403">
        <ele>484.4</ele>
        <time>2018-04-07T10:43:53.000Z</time>
      </trkpt>
      <trkpt lat="43.54182" lon="2.93373">
        <ele>487.5</ele>
        <time>2018-04-07T10:44:03.000Z</time>
      </trkpt>
      <trkpt lat="43.54175" lon="2.93352">
        <ele>489.4</ele>
        <time>2018-04-07T10:44:13.000Z</time>
      </trkpt>
      <trkpt lat="43.54159" lon="2.93334">
        <ele>490.4</ele>
        <time>2018-04-07T10:44:23.000Z</time>
      </trkpt>
      <trkpt lat="43.5414" lon="2.93322">
        <ele>492.8</ele>
        <time>2018-04-07T10:44:33.000Z</time>
      </trkpt>
      <trkpt lat="43.54121" lon="2.9332">
        <ele>496.4</ele>
        <time>2018-04-07T10:44:43.000Z</time>
      </trkpt>
      <trkpt lat="43.54102" lon="2.93326">
        <ele>498</ele>
        <time>2018-04-07T10:44:53.000Z</time>
      </trkpt>
      <trkpt lat="43.54084" lon="2.9334">
        <ele>500</ele>
        <time>2018-04-07T10:45:03.000Z</time>
      </trkpt>
      <trkpt lat="43.5407" lon="2.93357">
        <ele>502.7</ele>
        <time>2018-04-07T10:45:13.000Z</time>
      </trkpt>
      <trkpt lat="43.54055" lon="2.93371">
        <ele>505</ele>
        <time>2018-04-07T10:45:23.000Z</time>
      </trkpt>
      <trkpt lat="43.5404" lon="2.9338">
        <ele>507.5</ele>
        <time>2018-04-07T10:45:33.000Z</time>
      </trkpt>
      <trkpt lat="43.54022" lon="2.93382">
        <ele>510.3</ele>
        <time>2018-04-07T10:45:43.000Z</time>
      </trkpt>
      <trkpt lat="43.54004" lon="2.93387">
        <ele>513.8</ele>
        <time>2018-04-07T10:45:53.000Z</time>
      </trkpt>
      <trkpt lat="43.53989" lon="2.93398">
        <ele>516.5</ele>
        <time>2018-04-07T10:46:03.000Z</time>
      </trkpt>
      <trkpt lat="43.53976" lon="2.93413">
        <ele>518.7</ele>
        <time>2018-04-07T10:46:13.000Z</time>
      </trkpt>
      <trkpt lat="43.53968" lon="2.9343">
        <ele>519.9</ele>
        <time>2018-04-07T10:46:23.000Z</time>
      </trkpt>
      <trkpt lat="43.53961" lon="2.9345">
        <ele>521.9</ele>
        <time>2018-04-07T10:46:33.000Z</time>
      </trkpt>
      <trkpt lat="43.53952" lon="2.93468">
        <ele>523</ele>
        <time>2018-04-07T10:46:43.000Z</time>
      </trkpt>
      <trkpt lat="43.53942" lon="2.93487">
        <ele>525.4</ele>
        <time>2018-04-07T10:46:53.000Z</time>
      </trkpt>
      <trkpt lat="43.53931" lon="2.93503">
        <ele>527.5</ele>
        <time>2018-04-07T10:47:03.000Z</time>
      </trkpt>
      <trkpt lat="43.53919" lon="2.9352">
        <ele>529.5</ele>
        <time>2018-04-07T10:47:13.000Z</time>
      </trkpt>
      <trkpt lat="43.53908" lon="2.93539">
        <ele>531.8</ele>
        <time>2018-04-07T10:47:23.000Z</time>
      </trkpt>
      <trkpt lat="43.539" lon="2.93559">
        <ele>534.5</ele>
        <time>2018-04-07T10:47:33.000Z</time>
      </trkpt>
      <trkpt lat="43.53892" lon="2.93581">
        <ele>536.7</ele>
        <time>2018-04-07T10:47:43.000Z</time>
      </trkpt>
      <trkpt lat="43.53885" lon="2.93605">
        <ele>538.8</ele>
        <time>2018-04-07T10:47:53.000Z</time>
      </trkpt>
      <trkpt lat="43.53879" lon="2.93628">
        <ele>541.2</ele>
        <time>2018-04-07T10:48:03.000Z</time>
      </trkpt>
      <trkpt lat="43.53877" lon="2.93653">
        <ele>542.5</ele>
        <time>2018-04-07T10:48:13.000Z</time>
      </trkpt>
      <trkpt lat="43.53873" lon="2.93676">
        <ele>544.1</ele>
        <time>2018-04-07T10:48:23.000Z</time>
      </trkpt>
      <trkpt lat="43.53869" lon="2.93696">
        <ele>545.8</ele>
        <time>2018-04-07T10:48:33.000Z</time>
      </trkpt>
      <trkpt lat="43.53864" lon="2.93718">
        <ele>547.5</ele>
        <time>2018-04-07T10:48:43.000Z</time>
      </trkpt>
      <trkpt lat="43.5386" lon="2.93742">
        <ele>548.8</ele>
        <time>2018-04-07T10:48:53.000Z</time>
      </trkpt>
      <trkpt lat="43.53857" lon="2.93764">
        <ele>550.4</ele>
        <time>2018-04-07T10:49:03.000Z</time>
      </trkpt>
      <trkpt lat="43.53854" lon="2.93786">
        <ele>552.3</ele>
        <time>2018-04-07T10:49:13.000Z</time>
      </trkpt>
      <trkpt lat="43.53852" lon="2.93809">
        <ele>555.1</ele>
        <time>2018-04-07T10:49:23.000Z</time>
      </trkpt>
      <trkpt lat="43.53851" lon="2.93831">
        <ele>557.1</ele>
        <time>2018-04-07T10:49:33.000Z</time>
      </trkpt>
      <trkpt lat="43.53853" lon="2.93855">
        <ele>559.2</ele>
        <time>2018-04-07T10:49:43.000Z</time>
      </trkpt>
      <trkpt lat="43.53857" lon="2.93877">
        <ele>560.4</ele>
        <time>2018-04-07T10:49:53.000Z</time>
      </trkpt>
      <trkpt lat="43.53861" lon="2.93898">
        <ele>562.3</ele>
        <time>2018-04-07T10:50:03.000Z</time>
      </trkpt>
      <trkpt lat="43.53865" lon="2.93921">
        <ele>563</ele>
        <time>2018-04-07T10:50:13.000Z</time>
      </trkpt>
      <trkpt lat="43.53867" lon="2.93945">
        <ele>565.1</ele>
        <time>2018-04-07T10:50:23.000Z</time>
      </trkpt>
      <trkpt lat="43.53866" lon="2.9397">
        <ele>567</ele>
        <time>2018-04-07T10:50:33.000Z</time>
      </trkpt>
      <trkpt lat="43.53863" lon="2.93993">
        <ele>568.6</ele>
        <time>2018-04-07T10:50:43.000Z</time>
      </trkpt>
      <trkpt lat="43.53853" lon="2.94013">
        <ele>570.4</ele>
        <time>2018-04-07T10:50:53.000Z</time>
      </trkpt>
      <trkpt lat="43.53839" lon="2.94027">
        <ele>572.1</ele>
        <time>2018-04-07T10:51:03.000Z</time>
      </trkpt>
      <trkpt lat="43.53824" lon="2.94038">
        <ele>573.8</ele>
        <time>2018-04-07T10:51:13.000Z</time>
      </trkpt>
      <trkpt lat="43.53808" lon="2.94048">
        <ele>575.1</ele>
        <time>2018-04-07T10:51:23.000Z</time>
      </trkpt>
      <trkpt lat="43.53793" lon="2.94058">
        <ele>578</ele>
        <time>2018-04-07T10:51:33.000Z</time>
      </trkpt>
      <trkpt lat="43.53781" lon="2.94064">
        <ele>580.1</ele>
        <time>2018-04-07T10:51:43.000Z</time>
      </trkpt>
      <trkpt lat="43.53767" lon="2.94069">
        <ele>582.2</ele>
        <time>2018-04-07T10:51:53.000Z</time>
      </trkpt>
      <trkpt lat="43.53753" lon="2.94078">
        <ele>584.4</ele>
        <time>2018-04-07T10:52:03.000Z</time>
      </trkpt>
      <trkpt lat="43.53741" lon="2.94096">
        <ele>586.6</ele>
        <time>2018-04-07T10:52:13.000Z</time>
      </trkpt>
      <trkpt lat="43.53739" lon="2.94118">
        <ele>588.3</ele>
        <time>2018-04-07T10:52:23.000Z</time>
      </trkpt>
      <trkpt lat="43.53736" lon="2.94141">
        <ele>590.1</ele>
        <time>2018-04-07T10:52:33.000Z</time>
      </trkpt>
      <trkpt lat="43.53721" lon="2.94147">
        <ele>591.7</ele>
        <time>2018-04-07T10:52:43.000Z</time>
      </trkpt>
      <trkpt lat="43.53704" lon="2.94143">
        <ele>593</ele>
        <time>2018-04-07T10:52:53.000Z</time>
      </trkpt>
      <trkpt lat="43.53686" lon="2.94144">
        <ele>597.7</ele>
        <time>2018-04-07T10:53:03.000Z</time>
      </trkpt>
      <trkpt lat="43.53671" lon="2.94133">
        <ele>599.8</ele>
        <time>2018-04-07T10:53:13.000Z</time>
      </trkpt>
      <trkpt lat="43.53658" lon="2.94112">
        <ele>601.9</ele>
        <time>2018-04-07T10:53:23.000Z</time>
      </trkpt>
      <trkpt lat="43.53647" lon="2.94096">
        <ele>604</ele>
        <time>2018-04-07T10:53:33.000Z</time>
      </trkpt>
      <trkpt lat="43.53635" lon="2.94083">
        <ele>606.3</ele>
        <time>2018-04-07T10:53:43.000Z</time>
      </trkpt>
      <trkpt lat="43.53624" lon="2.94075">
        <ele>607.5</ele>
        <time>2018-04-07T10:53:53.000Z</time>
      </trkpt>
      <trkpt lat="43.5361" lon="2.94064">
        <ele>609.5</ele>
        <time>2018-04-07T10:54:03.000Z</time>
      </trkpt>
      <trkpt lat="43.53594" lon="2.94056">
        <ele>611.5</ele>
        <time>2018-04-07T10:54:13.000Z</time>
      </trkpt>
      <trkpt lat="43.53579" lon="2.94046">
        <ele>613.9</ele>
        <time>2018-04-07T10:54:23.000Z</time>
      </trkpt>
      <trkpt lat="43.53565" lon="2.94036">
        <ele>615.7</ele>
        <time>2018-04-07T10:54:33.000Z</time>
      </trkpt>
      <trkpt lat="43.53549" lon="2.94025">
        <ele>617.2</ele>
        <time>2018-04-07T10:54:43.000Z</time>
      </trkpt>
      <trkpt lat="43.53533" lon="2.9402">
        <ele>620.6</ele>
        <time>2018-04-07T10:54:53.000Z</time>
      </trkpt>
      <trkpt lat="43.53519" lon="2.94014">
        <ele>621.2</ele>
        <time>2018-04-07T10:55:03.000Z</time>
      </trkpt>
      <trkpt lat="43.53506" lon="2.93997">
        <ele>622.5</ele>
        <time>2018-04-07T10:55:13.000Z</time>
      </trkpt>
      <trkpt lat="43.53494" lon="2.9398">
        <ele>623.9</ele>
        <time>2018-04-07T10:55:23.000Z</time>
      </trkpt>
      <trkpt lat="43.53477" lon="2.93982">
        <ele>625</ele>
        <time>2018-04-07T10:55:33.000Z</time>
      </trkpt>
      <trkpt lat="43.53475" lon="2.93984">
        <ele>625.2</ele>
        <time>2018-04-07T10:55:35.000Z</time>
      </trkpt>
      <trkpt lat="43.5347" lon="2.93981">
        <ele>625.1</ele>
        <time>2018-04-07T10:55:38.000Z</time>
      </trkpt>
      <trkpt lat="43.53472" lon="2.93976">
        <ele>625</ele>
        <time>2018-04-07T10:55:43.000Z</time>
      </trkpt>
      <trkpt lat="43.53477" lon="2.93977">
        <ele>624.8</ele>
        <time>2018-04-07T11:04:08.000Z</time>
      </trkpt>
      <trkpt lat="43.53473" lon="2.93991">
        <ele>625.3</ele>
        <time>2018-04-07T11:04:13.000Z</time>
      </trkpt>
      <trkpt lat="43.53477" lon="2.9402">
        <ele>627</ele>
        <time>2018-04-07T11:04:23.000Z</time>
      </trkpt>
      <trkpt lat="43.53486" lon="2.94043">
        <ele>628</ele>
        <time>2018-04-07T11:04:33.000Z</time>
      </trkpt>
      <trkpt lat="43.53496" lon="2.9406">
        <ele>629</ele>
        <time>2018-04-07T11:04:43.000Z</time>
      </trkpt>
      <trkpt lat="43.53499" lon="2.94065">
        <ele>629.7</ele>
        <time>2018-04-07T11:04:46.000Z</time>
      </trkpt>
      <trkpt lat="43.53507" lon="2.94074">
        <ele>630.3</ele>
        <time>2018-04-07T11:04:53.000Z</time>
      </trkpt>
      <trkpt lat="43.53518" lon="2.94087">
        <ele>631</ele>
        <time>2018-04-07T11:05:03.000Z</time>
      </trkpt>
      <trkpt lat="43.5353" lon="2.94102">
        <ele>631.8</ele>
        <time>2018-04-07T11:05:13.000Z</time>
      </trkpt>
      <trkpt lat="43.53539" lon="2.94118">
        <ele>633.1</ele>
        <time>2018-04-07T11:05:23.000Z</time>
      </trkpt>
      <trkpt lat="43.53549" lon="2.94133">
        <ele>633.6</ele>
        <time>2018-04-07T11:05:33.000Z</time>
      </trkpt>
      <trkpt lat="43.53558" lon="2.9415">
        <ele>636.1</ele>
        <time>2018-04-07T11:05:43.000Z</time>
      </trkpt>
      <trkpt lat="43.53568" lon="2.94168">
        <ele>638</ele>
        <time>2018-04-07T11:05:53.000Z</time>
      </trkpt>
      <trkpt lat="43.53578" lon="2.94185">
        <ele>639.8</ele>
        <time>2018-04-07T11:06:03.000Z</time>
      </trkpt>
      <trkpt lat="43.53584" lon="2.94204">
        <ele>642</ele>
        <time>2018-04-07T11:06:13.000Z</time>
      </trkpt>
      <trkpt lat="43.53588" lon="2.94224">
        <ele>645.6</ele>
        <time>2018-04-07T11:06:23.000Z</time>
      </trkpt>
      <trkpt lat="43.53592" lon="2.94244">
        <ele>648.2</ele>
        <time>2018-04-07T11:06:33.000Z</time>
      </trkpt>
      <trkpt lat="43.53599" lon="2.9426">
        <ele>650.7</ele>
        <time>2018-04-07T11:06:43.000Z</time>
      </trkpt>
      <trkpt lat="43.53611" lon="2.94274">
        <ele>651</ele>
        <time>2018-04-07T11:06:53.000Z</time>
      </trkpt>
      <trkpt lat="43.53621" lon="2.9429">
        <ele>654</ele>
        <time>2018-04-07T11:07:03.000Z</time>
      </trkpt>
      <trkpt lat="43.53631" lon="2.94304">
        <ele>656.1</ele>
        <time>2018-04-07T11:07:13.000Z</time>
      </trkpt>
      <trkpt lat="43.53645" lon="2.94316">
        <ele>657.5</ele>
        <time>2018-04-07T11:07:23.000Z</time>
      </trkpt>
      <trkpt lat="43.53656" lon="2.94329">
        <ele>660.5</ele>
        <time>2018-04-07T11:07:33.000Z</time>
      </trkpt>
      <trkpt lat="43.53667" lon="2.9434">
        <ele>663.2</ele>
        <time>2018-04-07T11:07:43.000Z</time>
      </trkpt>
      <trkpt lat="43.53679" lon="2.94354">
        <ele>666.1</ele>
        <time>2018-04-07T11:07:53.000Z</time>
      </trkpt>
      <trkpt lat="43.5369" lon="2.94372">
        <ele>670.4</ele>
        <time>2018-04-07T11:08:03.000Z</time>
      </trkpt>
      <trkpt lat="43.53695" lon="2.94384">
        <ele>673.5</ele>
        <time>2018-04-07T11:08:09.000Z</time>
      </trkpt>
      <trkpt lat="43.53699" lon="2.94391">
        <ele>675.5</ele>
        <time>2018-04-07T11:08:13.000Z</time>
      </trkpt>
      <trkpt lat="43.53712" lon="2.94405">
        <ele>678</ele>
        <time>2018-04-07T11:08:23.000Z</time>
      </trkpt>
      <trkpt lat="43.53724" lon="2.9442">
        <ele>681.6</ele>
        <time>2018-04-07T11:08:33.000Z</time>
      </trkpt>
      <trkpt lat="43.53734" lon="2.94434">
        <ele>686.9</ele>
        <time>2018-04-07T11:08:43.000Z</time>
      </trkpt>
      <trkpt lat="43.53744" lon="2.94449">
        <ele>690</ele>
        <time>2018-04-07T11:08:53.000Z</time>
      </trkpt>
      <trkpt lat="43.53758" lon="2.94466">
        <ele>694</ele>
        <time>2018-04-07T11:09:03.000Z</time>
      </trkpt>
      <trkpt lat="43.53772" lon="2.94481">
        <ele>696.7</ele>
        <time>2018-04-07T11:09:13.000Z</time>
      </trkpt>
      <trkpt lat="43.53784" lon="2.94498">
        <ele>699.9</ele>
        <time>2018-04-07T11:09:23.000Z</time>
      </trkpt>
      <trkpt lat="43.53795" lon="2.94512">
        <ele>702.9</ele>
        <time>2018-04-07T11:09:33.000Z</time>
      </trkpt>
      <trkpt lat="43.53808" lon="2.94529">
        <ele>704.8</ele>
        <time>2018-04-07T11:09:43.000Z</time>
      </trkpt>
      <trkpt lat="43.5382" lon="2.94546">
        <ele>705.9</ele>
        <time>2018-04-07T11:09:53.000Z</time>
      </trkpt>
      <trkpt lat="43.53831" lon="2.94562">
        <ele>706.8</ele>
        <time>2018-04-07T11:10:03.000Z</time>
      </trkpt>
      <trkpt lat="43.53841" lon="2.94572">
        <ele>706.1</ele>
        <time>2018-04-07T11:10:13.000Z</time>
      </trkpt>
      <trkpt lat="43.53841" lon="2.94572">
        <ele>706.1</ele>
        <time>2018-04-07T11:10:14.000Z</time>
      </trkpt>
      <trkpt lat="43.53848" lon="2.94575">
        <ele>705.6</ele>
        <time>2018-04-07T11:11:15.000Z</time>
      </trkpt>
      <trkpt lat="43.53865" lon="2.94579">
        <ele>704.6</ele>
        <time>2018-04-07T11:11:23.000Z</time>
      </trkpt>
      <trkpt lat="43.53888" lon="2.94586">
        <ele>703.4</ele>
        <time>2018-04-07T11:11:33.000Z</time>
      </trkpt>
      <trkpt lat="43.53889" lon="2.94612">
        <ele>703.4</ele>
        <time>2018-04-07T11:11:43.000Z</time>
      </trkpt>
      <trkpt lat="43.5387" lon="2.94616">
        <ele>705.3</ele>
        <time>2018-04-07T11:11:53.000Z</time>
      </trkpt>
      <trkpt lat="43.53847" lon="2.94602">
        <ele>707.7</ele>
        <time>2018-04-07T11:12:03.000Z</time>
      </trkpt>
      <trkpt lat="43.53825" lon="2.94589">
        <ele>709.5</ele>
        <time>2018-04-07T11:12:13.000Z</time>
      </trkpt>
      <trkpt lat="43.53805" lon="2.94579">
        <ele>711.1</ele>
        <time>2018-04-07T11:12:23.000Z</time>
      </trkpt>
      <trkpt lat="43.53785" lon="2.94569">
        <ele>712.5</ele>
        <time>2018-04-07T11:12:33.000Z</time>
      </trkpt>
      <trkpt lat="43.53766" lon="2.94562">
        <ele>713.6</ele>
        <time>2018-04-07T11:12:43.000Z</time>
      </trkpt>
      <trkpt lat="43.53751" lon="2.94554">
        <ele>714.2</ele>
        <time>2018-04-07T11:12:53.000Z</time>
      </trkpt>
      <trkpt lat="43.53733" lon="2.94547">
        <ele>713.7</ele>
        <time>2018-04-07T11:13:03.000Z</time>
      </trkpt>
      <trkpt lat="43.53719" lon="2.94541">
        <ele>714.6</ele>
        <time>2018-04-07T11:13:13.000Z</time>
      </trkpt>
      <trkpt lat="43.53704" lon="2.94532">
        <ele>713</ele>
        <time>2018-04-07T11:13:23.000Z</time>
      </trkpt>
      <trkpt lat="43.53689" lon="2.94522">
        <ele>712.8</ele>
        <time>2018-04-07T11:13:33.000Z</time>
      </trkpt>
      <trkpt lat="43.53673" lon="2.94508">
        <ele>711.2</ele>
        <time>2018-04-07T11:13:43.000Z</time>
      </trkpt>
      <trkpt lat="43.53657" lon="2.94502">
        <ele>711.6</ele>
        <time>2018-04-07T11:13:53.000Z</time>
      </trkpt>
      <trkpt lat="43.53642" lon="2.94499">
        <ele>713.8</ele>
        <time>2018-04-07T11:14:03.000Z</time>
      </trkpt>
      <trkpt lat="43.53624" lon="2.94495">
        <ele>715.9</ele>
        <time>2018-04-07T11:14:13.000Z</time>
      </trkpt>
      <trkpt lat="43.53607" lon="2.94498">
        <ele>719.1</ele>
        <time>2018-04-07T11:14:23.000Z</time>
      </trkpt>
      <trkpt lat="43.53593" lon="2.94505">
        <ele>720.6</ele>
        <time>2018-04-07T11:14:33.000Z</time>
      </trkpt>
      <trkpt lat="43.53579" lon="2.94516">
        <ele>722.6</ele>
        <time>2018-04-07T11:14:43.000Z</time>
      </trkpt>
      <trkpt lat="43.53577" lon="2.94519">
        <ele>722.6</ele>
        <time>2018-04-07T11:14:46.000Z</time>
      </trkpt>
      <trkpt lat="43.53573" lon="2.94529">
        <ele>724.1</ele>
        <time>2018-04-07T11:14:53.000Z</time>
      </trkpt>
      <trkpt lat="43.53572" lon="2.9453">
        <ele>724.1</ele>
        <time>2018-04-07T11:14:54.000Z</time>
      </trkpt>
      <trkpt lat="43.53566" lon="2.94528">
        <ele>723.1</ele>
        <time>2018-04-07T11:15:01.000Z</time>
      </trkpt>
      <trkpt lat="43.53575" lon="2.94528">
        <ele>724.5</ele>
        <time>2018-04-07T11:15:35.000Z</time>
      </trkpt>
      <trkpt lat="43.53587" lon="2.94531">
        <ele>725.8</ele>
        <time>2018-04-07T11:15:43.000Z</time>
      </trkpt>
      <trkpt lat="43.53602" lon="2.94528">
        <ele>725.3</ele>
        <time>2018-04-07T11:15:53.000Z</time>
      </trkpt>
      <trkpt lat="43.5362" lon="2.94532">
        <ele>724.8</ele>
        <time>2018-04-07T11:16:03.000Z</time>
      </trkpt>
      <trkpt lat="43.53638" lon="2.94547">
        <ele>726.5</ele>
        <time>2018-04-07T11:16:13.000Z</time>
      </trkpt>
      <trkpt lat="43.53656" lon="2.94565">
        <ele>728.7</ele>
        <time>2018-04-07T11:16:23.000Z</time>
      </trkpt>
      <trkpt lat="43.53671" lon="2.94585">
        <ele>730.9</ele>
        <time>2018-04-07T11:16:33.000Z</time>
      </trkpt>
      <trkpt lat="43.53681" lon="2.94606">
        <ele>734.3</ele>
        <time>2018-04-07T11:16:43.000Z</time>
      </trkpt>
      <trkpt lat="43.53692" lon="2.94626">
        <ele>736.1</ele>
        <time>2018-04-07T11:16:53.000Z</time>
      </trkpt>
      <trkpt lat="43.53703" lon="2.94646">
        <ele>738.1</ele>
        <time>2018-04-07T11:17:03.000Z</time>
      </trkpt>
      <trkpt lat="43.53708" lon="2.9468">
        <ele>740.9</ele>
        <time>2018-04-07T11:17:13.000Z</time>
      </trkpt>
      <trkpt lat="43.53699" lon="2.94715">
        <ele>744.9</ele>
        <time>2018-04-07T11:17:23.000Z</time>
      </trkpt>
      <trkpt lat="43.53684" lon="2.94743">
        <ele>745.1</ele>
        <time>2018-04-07T11:17:33.000Z</time>
      </trkpt>
      <trkpt lat="43.53679" lon="2.94753">
        <ele>745.2</ele>
        <time>2018-04-07T11:17:38.000Z</time>
      </trkpt>
      <trkpt lat="43.53677" lon="2.94762">
        <ele>745</ele>
        <time>2018-04-07T11:17:48.000Z</time>
      </trkpt>
      <trkpt lat="43.53669" lon="2.94787">
        <ele>744.7</ele>
        <time>2018-04-07T11:17:53.000Z</time>
      </trkpt>
      <trkpt lat="43.53659" lon="2.94861">
        <ele>740.3</ele>
        <time>2018-04-07T11:18:02.000Z</time>
      </trkpt>
      <trkpt lat="43.53657" lon="2.94871">
        <ele>739.9</ele>
        <time>2018-04-07T11:18:03.000Z</time>
      </trkpt>
      <trkpt lat="43.53647" lon="2.94949">
        <ele>736</ele>
        <time>2018-04-07T11:18:12.000Z</time>
      </trkpt>
      <trkpt lat="43.53646" lon="2.94958">
        <ele>735.6</ele>
        <time>2018-04-07T11:18:13.000Z</time>
      </trkpt>
      <trkpt lat="43.53647" lon="2.95032">
        <ele>732.1</ele>
        <time>2018-04-07T11:18:23.000Z</time>
      </trkpt>
      <trkpt lat="43.53648" lon="2.95053">
        <ele>730</ele>
        <time>2018-04-07T11:18:26.000Z</time>
      </trkpt>
      <trkpt lat="43.53657" lon="2.95094">
        <ele>724.9</ele>
        <time>2018-04-07T11:18:33.000Z</time>
      </trkpt>
      <trkpt lat="43.5366" lon="2.95118">
        <ele>720.2</ele>
        <time>2018-04-07T11:18:42.000Z</time>
      </trkpt>
      <trkpt lat="43.53659" lon="2.9513">
        <ele>717.4</ele>
        <time>2018-04-07T11:18:51.000Z</time>
      </trkpt>
      <trkpt lat="43.53658" lon="2.95135">
        <ele>716.4</ele>
        <time>2018-04-07T11:18:53.000Z</time>
      </trkpt>
      <trkpt lat="43.53656" lon="2.95138">
        <ele>715.7</ele>
        <time>2018-04-07T11:18:55.000Z</time>
      </trkpt>
      <trkpt lat="43.53654" lon="2.95138">
        <ele>715.7</ele>
        <time>2018-04-07T11:19:00.000Z</time>
      </trkpt>
      <trkpt lat="43.53648" lon="2.95141">
        <ele>716.3</ele>
        <time>2018-04-07T11:19:04.000Z</time>
      </trkpt>
      <trkpt lat="43.53637" lon="2.95151">
        <ele>714.7</ele>
        <time>2018-04-07T11:19:13.000Z</time>
      </trkpt>
      <trkpt lat="43.5364" lon="2.95146">
        <ele>716.2</ele>
        <time>2018-04-07T11:19:22.000Z</time>
      </trkpt>
      <trkpt lat="43.53641" lon="2.95145">
        <ele>716.2</ele>
        <time>2018-04-07T11:19:23.000Z</time>
      </trkpt>
      <trkpt lat="43.53642" lon="2.95146">
        <ele>715.9</ele>
        <time>2018-04-07T11:19:27.000Z</time>
      </trkpt>
      <trkpt lat="43.5365" lon="2.95143">
        <ele>715.3</ele>
        <time>2018-04-07T11:20:01.000Z</time>
      </trkpt>
      <trkpt lat="43.53652" lon="2.95141">
        <ele>716</ele>
        <time>2018-04-07T11:20:03.000Z</time>
      </trkpt>
      <trkpt lat="43.53656" lon="2.9514">
        <ele>715.7</ele>
        <time>2018-04-07T11:20:07.000Z</time>
      </trkpt>
      <trkpt lat="43.53658" lon="2.95141">
        <ele>715.3</ele>
        <time>2018-04-07T11:20:11.000Z</time>
      </trkpt>
      <trkpt lat="43.53649" lon="2.95145">
        <ele>715.3</ele>
        <time>2018-04-07T11:23:05.000Z</time>
      </trkpt>
      <trkpt lat="43.53629" lon="2.95162">
        <ele>713.5</ele>
        <time>2018-04-07T11:23:12.000Z</time>
      </trkpt>
      <trkpt lat="43.53625" lon="2.95163">
        <ele>713.8</ele>
        <time>2018-04-07T11:23:13.000Z</time>
      </trkpt>
      <trkpt lat="43.5362" lon="2.95161">
        <ele>713.9</ele>
        <time>2018-04-07T11:23:14.000Z</time>
      </trkpt>
      <trkpt lat="43.5361" lon="2.95155">
        <ele>714.5</ele>
        <time>2018-04-07T11:23:16.000Z</time>
      </trkpt>
      <trkpt lat="43.53605" lon="2.95146">
        <ele>715.7</ele>
        <time>2018-04-07T11:23:18.000Z</time>
      </trkpt>
      <trkpt lat="43.53597" lon="2.95147">
        <ele>715.2</ele>
        <time>2018-04-07T11:23:20.000Z</time>
      </trkpt>
      <trkpt lat="43.53591" lon="2.95151">
        <ele>714.4</ele>
        <time>2018-04-07T11:23:23.000Z</time>
      </trkpt>
      <trkpt lat="43.53587" lon="2.95153">
        <ele>714.2</ele>
        <time>2018-04-07T11:23:25.000Z</time>
      </trkpt>
      <trkpt lat="43.5358" lon="2.9517">
        <ele>711.9</ele>
        <time>2018-04-07T11:23:33.000Z</time>
      </trkpt>
      <trkpt lat="43.53578" lon="2.95173">
        <ele>711.1</ele>
        <time>2018-04-07T11:23:34.000Z</time>
      </trkpt>
      <trkpt lat="43.53567" lon="2.95183">
        <ele>709.2</ele>
        <time>2018-04-07T11:23:39.000Z</time>
      </trkpt>
      <trkpt lat="43.53561" lon="2.95191">
        <ele>707.2</ele>
        <time>2018-04-07T11:23:42.000Z</time>
      </trkpt>
      <trkpt lat="43.5356" lon="2.95194">
        <ele>706.2</ele>
        <time>2018-04-07T11:23:43.000Z</time>
      </trkpt>
      <trkpt lat="43.53545" lon="2.95216">
        <ele>700.7</ele>
        <time>2018-04-07T11:23:50.000Z</time>
      </trkpt>
      <trkpt lat="43.53539" lon="2.95221">
        <ele>698.5</ele>
        <time>2018-04-07T11:23:53.000Z</time>
      </trkpt>
      <trkpt lat="43.53528" lon="2.95236">
        <ele>692.3</ele>
        <time>2018-04-07T11:23:59.000Z</time>
      </trkpt>
      <trkpt lat="43.53526" lon="2.95245">
        <ele>688.6</ele>
        <time>2018-04-07T11:24:02.000Z</time>
      </trkpt>
      <trkpt lat="43.53524" lon="2.95247">
        <ele>688.6</ele>
        <time>2018-04-07T11:24:03.000Z</time>
      </trkpt>
      <trkpt lat="43.53514" lon="2.95249">
        <ele>685.5</ele>
        <time>2018-04-07T11:24:08.000Z</time>
      </trkpt>
      <trkpt lat="43.53517" lon="2.95265">
        <ele>681.4</ele>
        <time>2018-04-07T11:24:13.000Z</time>
      </trkpt>
      <trkpt lat="43.53523" lon="2.95285">
        <ele>676</ele>
        <time>2018-04-07T11:24:18.000Z</time>
      </trkpt>
      <trkpt lat="43.53522" lon="2.95297">
        <ele>671.3</ele>
        <time>2018-04-07T11:24:21.000Z</time>
      </trkpt>
      <trkpt lat="43.53518" lon="2.953">
        <ele>670.5</ele>
        <time>2018-04-07T11:24:23.000Z</time>
      </trkpt>
      <trkpt lat="43.53517" lon="2.95303">
        <ele>667.9</ele>
        <time>2018-04-07T11:24:24.000Z</time>
      </trkpt>
      <trkpt lat="43.53508" lon="2.95319">
        <ele>658.1</ele>
        <time>2018-04-07T11:24:28.000Z</time>
      </trkpt>
      <trkpt lat="43.53501" lon="2.95327">
        <ele>652.7</ele>
        <time>2018-04-07T11:24:30.000Z</time>
      </trkpt>
      <trkpt lat="43.535" lon="2.95337">
        <ele>649.3</ele>
        <time>2018-04-07T11:24:32.000Z</time>
      </trkpt>
      <trkpt lat="43.535" lon="2.95342">
        <ele>647.6</ele>
        <time>2018-04-07T11:24:33.000Z</time>
      </trkpt>
      <trkpt lat="43.53503" lon="2.95353">
        <ele>643</ele>
        <time>2018-04-07T11:24:35.000Z</time>
      </trkpt>
      <trkpt lat="43.53504" lon="2.95366">
        <ele>636.9</ele>
        <time>2018-04-07T11:24:38.000Z</time>
      </trkpt>
      <trkpt lat="43.53492" lon="2.95381">
        <ele>629.5</ele>
        <time>2018-04-07T11:24:43.000Z</time>
      </trkpt>
      <trkpt lat="43.53489" lon="2.95384">
        <ele>627.7</ele>
        <time>2018-04-07T11:24:44.000Z</time>
      </trkpt>
      <trkpt lat="43.53482" lon="2.95385">
        <ele>627.1</ele>
        <time>2018-04-07T11:24:46.000Z</time>
      </trkpt>
      <trkpt lat="43.53472" lon="2.95365">
        <ele>633.2</ele>
        <time>2018-04-07T11:24:53.000Z</time>
      </trkpt>
      <trkpt lat="43.53464" lon="2.95336">
        <ele>639.9</ele>
        <time>2018-04-07T11:25:03.000Z</time>
      </trkpt>
      <trkpt lat="43.53456" lon="2.95321">
        <ele>643.6</ele>
        <time>2018-04-07T11:25:09.000Z</time>
      </trkpt>
      <trkpt lat="43.53455" lon="2.9531">
        <ele>645.4</ele>
        <time>2018-04-07T11:25:13.000Z</time>
      </trkpt>
      <trkpt lat="43.5345" lon="2.95302">
        <ele>646.8</ele>
        <time>2018-04-07T11:25:17.000Z</time>
      </trkpt>
      <trkpt lat="43.53435" lon="2.95289">
        <ele>644.7</ele>
        <time>2018-04-07T11:25:23.000Z</time>
      </trkpt>
      <trkpt lat="43.53429" lon="2.95288">
        <ele>643.1</ele>
        <time>2018-04-07T11:25:25.000Z</time>
      </trkpt>
      <trkpt lat="43.53418" lon="2.95276">
        <ele>642</ele>
        <time>2018-04-07T11:25:30.000Z</time>
      </trkpt>
      <trkpt lat="43.5342" lon="2.95268">
        <ele>642.9</ele>
        <time>2018-04-07T11:25:33.000Z</time>
      </trkpt>
      <trkpt lat="43.53419" lon="2.95265">
        <ele>643.3</ele>
        <time>2018-04-07T11:25:34.000Z</time>
      </trkpt>
      <trkpt lat="43.53414" lon="2.95252">
        <ele>642.4</ele>
        <time>2018-04-07T11:25:39.000Z</time>
      </trkpt>
      <trkpt lat="43.53408" lon="2.95252">
        <ele>640.5</ele>
        <time>2018-04-07T11:25:41.000Z</time>
      </trkpt>
      <trkpt lat="43.53397" lon="2.95254">
        <ele>638.1</ele>
        <time>2018-04-07T11:25:43.000Z</time>
      </trkpt>
      <trkpt lat="43.53379" lon="2.95258">
        <ele>633.9</ele>
        <time>2018-04-07T11:25:46.000Z</time>
      </trkpt>
      <trkpt lat="43.53372" lon="2.95264">
        <ele>632.8</ele>
        <time>2018-04-07T11:25:48.000Z</time>
      </trkpt>
      <trkpt lat="43.53355" lon="2.95261">
        <ele>629</ele>
        <time>2018-04-07T11:25:53.000Z</time>
      </trkpt>
      <trkpt lat="43.53348" lon="2.95245">
        <ele>627.3</ele>
        <time>2018-04-07T11:25:56.000Z</time>
      </trkpt>
      <trkpt lat="43.53349" lon="2.95232">
        <ele>626.7</ele>
        <time>2018-04-07T11:25:58.000Z</time>
      </trkpt>
      <trkpt lat="43.53353" lon="2.95217">
        <ele>627.1</ele>
        <time>2018-04-07T11:26:00.000Z</time>
      </trkpt>
      <trkpt lat="43.53352" lon="2.95201">
        <ele>625.4</ele>
        <time>2018-04-07T11:26:02.000Z</time>
      </trkpt>
      <trkpt lat="43.5335" lon="2.95193">
        <ele>624.7</ele>
        <time>2018-04-07T11:26:03.000Z</time>
      </trkpt>
      <trkpt lat="43.53347" lon="2.95185">
        <ele>623.5</ele>
        <time>2018-04-07T11:26:04.000Z</time>
      </trkpt>
      <trkpt lat="43.53339" lon="2.95164">
        <ele>618.2</ele>
        <time>2018-04-07T11:26:07.000Z</time>
      </trkpt>
      <trkpt lat="43.53335" lon="2.95152">
        <ele>615.3</ele>
        <time>2018-04-07T11:26:09.000Z</time>
      </trkpt>
      <trkpt lat="43.53334" lon="2.95128">
        <ele>611.4</ele>
        <time>2018-04-07T11:26:12.000Z</time>
      </trkpt>
      <trkpt lat="43.53331" lon="2.95123">
        <ele>609.6</ele>
        <time>2018-04-07T11:26:13.000Z</time>
      </trkpt>
      <trkpt lat="43.53327" lon="2.95109">
        <ele>605.6</ele>
        <time>2018-04-07T11:26:15.000Z</time>
      </trkpt>
      <trkpt lat="43.5332" lon="2.95079">
        <ele>597.9</ele>
        <time>2018-04-07T11:26:19.000Z</time>
      </trkpt>
      <trkpt lat="43.53317" lon="2.95068">
        <ele>594.5</ele>
        <time>2018-04-07T11:26:21.000Z</time>
      </trkpt>
      <trkpt lat="43.53314" lon="2.95055">
        <ele>591</ele>
        <time>2018-04-07T11:26:23.000Z</time>
      </trkpt>
      <trkpt lat="43.5331" lon="2.95043">
        <ele>587.4</ele>
        <time>2018-04-07T11:26:25.000Z</time>
      </trkpt>
      <trkpt lat="43.53309" lon="2.9503">
        <ele>583.8</ele>
        <time>2018-04-07T11:26:27.000Z</time>
      </trkpt>
      <trkpt lat="43.53306" lon="2.95012">
        <ele>580.9</ele>
        <time>2018-04-07T11:26:30.000Z</time>
      </trkpt>
      <trkpt lat="43.53305" lon="2.94997">
        <ele>577.1</ele>
        <time>2018-04-07T11:26:33.000Z</time>
      </trkpt>
      <trkpt lat="43.53314" lon="2.94986">
        <ele>579.2</ele>
        <time>2018-04-07T11:26:42.000Z</time>
      </trkpt>
      <trkpt lat="43.53317" lon="2.94982">
        <ele>580</ele>
        <time>2018-04-07T11:27:04.000Z</time>
      </trkpt>
      <trkpt lat="43.53325" lon="2.9496">
        <ele>581.4</ele>
        <time>2018-04-07T11:27:11.000Z</time>
      </trkpt>
      <trkpt lat="43.53322" lon="2.94955">
        <ele>579.4</ele>
        <time>2018-04-07T11:27:13.000Z</time>
      </trkpt>
      <trkpt lat="43.53312" lon="2.94939">
        <ele>571.6</ele>
        <time>2018-04-07T11:27:19.000Z</time>
      </trkpt>
      <trkpt lat="43.53305" lon="2.94933">
        <ele>568.4</ele>
        <time>2018-04-07T11:27:23.000Z</time>
      </trkpt>
      <trkpt lat="43.53301" lon="2.94929">
        <ele>566.7</ele>
        <time>2018-04-07T11:27:26.000Z</time>
      </trkpt>
      <trkpt lat="43.53297" lon="2.94924">
        <ele>565</ele>
        <time>2018-04-07T11:27:28.000Z</time>
      </trkpt>
      <trkpt lat="43.53286" lon="2.94911">
        <ele>558.7</ele>
        <time>2018-04-07T11:27:33.000Z</time>
      </trkpt>
      <trkpt lat="43.5326" lon="2.94898">
        <ele>545.9</ele>
        <time>2018-04-07T11:27:43.000Z</time>
      </trkpt>
      <trkpt lat="43.53259" lon="2.94894">
        <ele>545.5</ele>
        <time>2018-04-07T11:27:44.000Z</time>
      </trkpt>
      <trkpt lat="43.53273" lon="2.94859">
        <ele>549.2</ele>
        <time>2018-04-07T11:27:53.000Z</time>
      </trkpt>
      <trkpt lat="43.53275" lon="2.94851">
        <ele>550.4</ele>
        <time>2018-04-07T11:27:59.000Z</time>
      </trkpt>
      <trkpt lat="43.53273" lon="2.94849">
        <ele>548.7</ele>
        <time>2018-04-07T11:29:11.000Z</time>
      </trkpt>
      <trkpt lat="43.53269" lon="2.94847">
        <ele>547.2</ele>
        <time>2018-04-07T11:29:12.000Z</time>
      </trkpt>
      <trkpt lat="43.53245" lon="2.94812">
        <ele>534.7</ele>
        <time>2018-04-07T11:29:23.000Z</time>
      </trkpt>
      <trkpt lat="43.53233" lon="2.94797">
        <ele>529.4</ele>
        <time>2018-04-07T11:29:27.000Z</time>
      </trkpt>
      <trkpt lat="43.5322" lon="2.94782">
        <ele>523.2</ele>
        <time>2018-04-07T11:29:33.000Z</time>
      </trkpt>
      <trkpt lat="43.53212" lon="2.94763">
        <ele>520.2</ele>
        <time>2018-04-07T11:29:39.000Z</time>
      </trkpt>
      <trkpt lat="43.53199" lon="2.9476">
        <ele>514.3</ele>
        <time>2018-04-07T11:29:43.000Z</time>
      </trkpt>
      <trkpt lat="43.5319" lon="2.94766">
        <ele>509.5</ele>
        <time>2018-04-07T11:29:47.000Z</time>
      </trkpt>
      <trkpt lat="43.53174" lon="2.94746">
        <ele>504.5</ele>
        <time>2018-04-07T11:29:53.000Z</time>
      </trkpt>
      <trkpt lat="43.53167" lon="2.94739">
        <ele>502.1</ele>
        <time>2018-04-07T11:29:55.000Z</time>
      </trkpt>
      <trkpt lat="43.53136" lon="2.9471">
        <ele>491.1</ele>
        <time>2018-04-07T11:30:01.000Z</time>
      </trkpt>
      <trkpt lat="43.53129" lon="2.94703">
        <ele>488.8</ele>
        <time>2018-04-07T11:30:03.000Z</time>
      </trkpt>
      <trkpt lat="43.53119" lon="2.94699">
        <ele>485.1</ele>
        <time>2018-04-07T11:30:05.000Z</time>
      </trkpt>
      <trkpt lat="43.53093" lon="2.94681">
        <ele>472.7</ele>
        <time>2018-04-07T11:30:11.000Z</time>
      </trkpt>
      <trkpt lat="43.53085" lon="2.94676">
        <ele>470</ele>
        <time>2018-04-07T11:30:13.000Z</time>
      </trkpt>
      <trkpt lat="43.53078" lon="2.94662">
        <ele>467.3</ele>
        <time>2018-04-07T11:30:15.000Z</time>
      </trkpt>
      <trkpt lat="43.5307" lon="2.94645">
        <ele>467.6</ele>
        <time>2018-04-07T11:30:17.000Z</time>
      </trkpt>
      <trkpt lat="43.5306" lon="2.94628">
        <ele>467.7</ele>
        <time>2018-04-07T11:30:19.000Z</time>
      </trkpt>
      <trkpt lat="43.53051" lon="2.946">
        <ele>470.8</ele>
        <time>2018-04-07T11:30:22.000Z</time>
      </trkpt>
      <trkpt lat="43.53048" lon="2.94592">
        <ele>472</ele>
        <time>2018-04-07T11:30:23.000Z</time>
      </trkpt>
      <trkpt lat="43.53043" lon="2.94574">
        <ele>474.9</ele>
        <time>2018-04-07T11:30:25.000Z</time>
      </trkpt>
      <trkpt lat="43.5304" lon="2.94561">
        <ele>477.5</ele>
        <time>2018-04-07T11:30:27.000Z</time>
      </trkpt>
      <trkpt lat="43.53042" lon="2.94549">
        <ele>480.6</ele>
        <time>2018-04-07T11:30:29.000Z</time>
      </trkpt>
      <trkpt lat="43.53042" lon="2.94534">
        <ele>483.3</ele>
        <time>2018-04-07T11:30:33.000Z</time>
      </trkpt>
      <trkpt lat="43.53036" lon="2.94532">
        <ele>484.1</ele>
        <time>2018-04-07T11:30:38.000Z</time>
      </trkpt>
      <trkpt lat="43.53025" lon="2.94536">
        <ele>483.4</ele>
        <time>2018-04-07T11:30:43.000Z</time>
      </trkpt>
      <trkpt lat="43.53017" lon="2.94537">
        <ele>482.4</ele>
        <time>2018-04-07T11:30:46.000Z</time>
      </trkpt>
      <trkpt lat="43.52998" lon="2.94538">
        <ele>482.5</ele>
        <time>2018-04-07T11:30:53.000Z</time>
      </trkpt>
      <trkpt lat="43.52973" lon="2.94553">
        <ele>479.2</ele>
        <time>2018-04-07T11:31:03.000Z</time>
      </trkpt>
      <trkpt lat="43.52972" lon="2.94556">
        <ele>477.8</ele>
        <time>2018-04-07T11:31:04.000Z</time>
      </trkpt>
      <trkpt lat="43.52962" lon="2.9458">
        <ele>469.5</ele>
        <time>2018-04-07T11:31:10.000Z</time>
      </trkpt>
      <trkpt lat="43.52956" lon="2.94588">
        <ele>466.2</ele>
        <time>2018-04-07T11:31:12.000Z</time>
      </trkpt>
      <trkpt lat="43.52954" lon="2.94592">
        <ele>466.4</ele>
        <time>2018-04-07T11:31:13.000Z</time>
      </trkpt>
      <trkpt lat="43.52953" lon="2.94597">
        <ele>462.5</ele>
        <time>2018-04-07T11:31:14.000Z</time>
      </trkpt>
      <trkpt lat="43.5295" lon="2.94631">
        <ele>449.2</ele>
        <time>2018-04-07T11:31:21.000Z</time>
      </trkpt>
      <trkpt lat="43.52949" lon="2.94637">
        <ele>445</ele>
        <time>2018-04-07T11:31:23.000Z</time>
      </trkpt>
      <trkpt lat="43.52938" lon="2.9466">
        <ele>435.2</ele>
        <time>2018-04-07T11:31:28.000Z</time>
      </trkpt>
      <trkpt lat="43.52925" lon="2.94681">
        <ele>427.2</ele>
        <time>2018-04-07T11:31:32.000Z</time>
      </trkpt>
      <trkpt lat="43.52919" lon="2.94687">
        <ele>426.3</ele>
        <time>2018-04-07T11:31:33.000Z</time>
      </trkpt>
      <trkpt lat="43.52915" lon="2.94693">
        <ele>423.6</ele>
        <time>2018-04-07T11:31:34.000Z</time>
      </trkpt>
      <trkpt lat="43.52882" lon="2.94743">
        <ele>412.2</ele>
        <time>2018-04-07T11:31:43.000Z</time>
      </trkpt>
      <trkpt lat="43.52878" lon="2.94746">
        <ele>411.1</ele>
        <time>2018-04-07T11:31:44.000Z</time>
      </trkpt>
      <trkpt lat="43.52856" lon="2.9477">
        <ele>406.3</ele>
        <time>2018-04-07T11:31:51.000Z</time>
      </trkpt>
      <trkpt lat="43.52849" lon="2.94777">
        <ele>405.7</ele>
        <time>2018-04-07T11:31:53.000Z</time>
      </trkpt>
      <trkpt lat="43.52836" lon="2.94782">
        <ele>405.1</ele>
        <time>2018-04-07T11:31:57.000Z</time>
      </trkpt>
      <trkpt lat="43.52825" lon="2.94781">
        <ele>408</ele>
        <time>2018-04-07T11:32:00.000Z</time>
      </trkpt>
      <trkpt lat="43.5282" lon="2.94788">
        <ele>406.5</ele>
        <time>2018-04-07T11:32:03.000Z</time>
      </trkpt>
      <trkpt lat="43.52801" lon="2.94796">
        <ele>408.2</ele>
        <time>2018-04-07T11:32:13.000Z</time>
      </trkpt>
      <trkpt lat="43.52778" lon="2.94806">
        <ele>412.3</ele>
        <time>2018-04-07T11:32:23.000Z</time>
      </trkpt>
      <trkpt lat="43.52773" lon="2.94828">
        <ele>409</ele>
        <time>2018-04-07T11:32:33.000Z</time>
      </trkpt>
      <trkpt lat="43.52777" lon="2.94842">
        <ele>402.4</ele>
        <time>2018-04-07T11:32:37.000Z</time>
      </trkpt>
      <trkpt lat="43.52782" lon="2.94864">
        <ele>396</ele>
        <time>2018-04-07T11:32:40.000Z</time>
      </trkpt>
      <trkpt lat="43.52782" lon="2.94878">
        <ele>393</ele>
        <time>2018-04-07T11:32:42.000Z</time>
      </trkpt>
      <trkpt lat="43.52778" lon="2.94884">
        <ele>392.9</ele>
        <time>2018-04-07T11:32:43.000Z</time>
      </trkpt>
      <trkpt lat="43.52772" lon="2.94898">
        <ele>391.1</ele>
        <time>2018-04-07T11:32:46.000Z</time>
      </trkpt>
      <trkpt lat="43.52766" lon="2.94908">
        <ele>390.6</ele>
        <time>2018-04-07T11:32:48.000Z</time>
      </trkpt>
      <trkpt lat="43.52749" lon="2.94924">
        <ele>390.6</ele>
        <time>2018-04-07T11:32:52.000Z</time>
      </trkpt>
      <trkpt lat="43.52746" lon="2.94926">
        <ele>391.7</ele>
        <time>2018-04-07T11:32:53.000Z</time>
      </trkpt>
      <trkpt lat="43.52733" lon="2.94942">
        <ele>391.1</ele>
        <time>2018-04-07T11:32:57.000Z</time>
      </trkpt>
      <trkpt lat="43.52721" lon="2.9495">
        <ele>392.8</ele>
        <time>2018-04-07T11:33:01.000Z</time>
      </trkpt>
      <trkpt lat="43.52721" lon="2.94958">
        <ele>389.7</ele>
        <time>2018-04-07T11:33:03.000Z</time>
      </trkpt>
      <trkpt lat="43.52712" lon="2.94994">
        <ele>381.2</ele>
        <time>2018-04-07T11:33:09.000Z</time>
      </trkpt>
      <trkpt lat="43.52703" lon="2.95021">
        <ele>375.3</ele>
        <time>2018-04-07T11:33:13.000Z</time>
      </trkpt>
      <trkpt lat="43.52689" lon="2.95048">
        <ele>371.9</ele>
        <time>2018-04-07T11:33:20.000Z</time>
      </trkpt>
      <trkpt lat="43.52682" lon="2.95054">
        <ele>373.2</ele>
        <time>2018-04-07T11:33:22.000Z</time>
      </trkpt>
      <trkpt lat="43.52679" lon="2.95059">
        <ele>373.3</ele>
        <time>2018-04-07T11:33:23.000Z</time>
      </trkpt>
      <trkpt lat="43.52674" lon="2.95074">
        <ele>369.9</ele>
        <time>2018-04-07T11:33:26.000Z</time>
      </trkpt>
      <trkpt lat="43.52673" lon="2.95089">
        <ele>367.7</ele>
        <time>2018-04-07T11:33:28.000Z</time>
      </trkpt>
      <trkpt lat="43.52666" lon="2.95102">
        <ele>367.1</ele>
        <time>2018-04-07T11:33:30.000Z</time>
      </trkpt>
      <trkpt lat="43.52657" lon="2.9511">
        <ele>369.4</ele>
        <time>2018-04-07T11:33:32.000Z</time>
      </trkpt>
      <trkpt lat="43.52653" lon="2.95116">
        <ele>369.7</ele>
        <time>2018-04-07T11:33:33.000Z</time>
      </trkpt>
      <trkpt lat="43.52649" lon="2.95121">
        <ele>370.3</ele>
        <time>2018-04-07T11:33:34.000Z</time>
      </trkpt>
      <trkpt lat="43.52637" lon="2.95137">
        <ele>373</ele>
        <time>2018-04-07T11:33:37.000Z</time>
      </trkpt>
      <trkpt lat="43.52627" lon="2.95146">
        <ele>373.5</ele>
        <time>2018-04-07T11:33:39.000Z</time>
      </trkpt>
      <trkpt lat="43.52611" lon="2.95161">
        <ele>377.3</ele>
        <time>2018-04-07T11:33:43.000Z</time>
      </trkpt>
      <trkpt lat="43.52595" lon="2.95174">
        <ele>380.2</ele>
        <time>2018-04-07T11:33:47.000Z</time>
      </trkpt>
      <trkpt lat="43.52587" lon="2.95183">
        <ele>381.3</ele>
        <time>2018-04-07T11:33:49.000Z</time>
      </trkpt>
      <trkpt lat="43.52577" lon="2.95193">
        <ele>382.4</ele>
        <time>2018-04-07T11:33:51.000Z</time>
      </trkpt>
      <trkpt lat="43.5257" lon="2.95204">
        <ele>380.8</ele>
        <time>2018-04-07T11:33:53.000Z</time>
      </trkpt>
      <trkpt lat="43.52561" lon="2.95216">
        <ele>379.9</ele>
        <time>2018-04-07T11:33:55.000Z</time>
      </trkpt>
      <trkpt lat="43.52542" lon="2.95257">
        <ele>374.1</ele>
        <time>2018-04-07T11:34:00.000Z</time>
      </trkpt>
      <trkpt lat="43.52532" lon="2.95269">
        <ele>372.6</ele>
        <time>2018-04-07T11:34:02.000Z</time>
      </trkpt>
      <trkpt lat="43.52527" lon="2.95275">
        <ele>371.8</ele>
        <time>2018-04-07T11:34:03.000Z</time>
      </trkpt>
      <trkpt lat="43.52522" lon="2.95281">
        <ele>371.5</ele>
        <time>2018-04-07T11:34:04.000Z</time>
      </trkpt>
      <trkpt lat="43.5251" lon="2.95304">
        <ele>368.4</ele>
        <time>2018-04-07T11:34:07.000Z</time>
      </trkpt>
      <trkpt lat="43.52498" lon="2.95319">
        <ele>365.8</ele>
        <time>2018-04-07T11:34:10.000Z</time>
      </trkpt>
      <trkpt lat="43.52487" lon="2.95338">
        <ele>363</ele>
        <time>2018-04-07T11:34:13.000Z</time>
      </trkpt>
      <trkpt lat="43.52448" lon="2.95378">
        <ele>356.8</ele>
        <time>2018-04-07T11:34:20.000Z</time>
      </trkpt>
      <trkpt lat="43.52431" lon="2.95392">
        <ele>356.7</ele>
        <time>2018-04-07T11:34:23.000Z</time>
      </trkpt>
      <trkpt lat="43.52426" lon="2.95397">
        <ele>356</ele>
        <time>2018-04-07T11:34:24.000Z</time>
      </trkpt>
      <trkpt lat="43.52416" lon="2.95411">
        <ele>354.2</ele>
        <time>2018-04-07T11:34:26.000Z</time>
      </trkpt>
      <trkpt lat="43.52408" lon="2.95424">
        <ele>353.1</ele>
        <time>2018-04-07T11:34:28.000Z</time>
      </trkpt>
      <trkpt lat="43.52403" lon="2.9544">
        <ele>350.7</ele>
        <time>2018-04-07T11:34:31.000Z</time>
      </trkpt>
      <trkpt lat="43.52396" lon="2.95446">
        <ele>351.2</ele>
        <time>2018-04-07T11:34:33.000Z</time>
      </trkpt>
      <trkpt lat="43.52391" lon="2.95448">
        <ele>351</ele>
        <time>2018-04-07T11:34:34.000Z</time>
      </trkpt>
      <trkpt lat="43.52382" lon="2.95451">
        <ele>352.4</ele>
        <time>2018-04-07T11:34:36.000Z</time>
      </trkpt>
      <trkpt lat="43.52387" lon="2.95493">
        <ele>344.8</ele>
        <time>2018-04-07T11:34:43.000Z</time>
      </trkpt>
      <trkpt lat="43.524" lon="2.95533">
        <ele>334.8</ele>
        <time>2018-04-07T11:34:49.000Z</time>
      </trkpt>
      <trkpt lat="43.52405" lon="2.95546">
        <ele>331.4</ele>
        <time>2018-04-07T11:34:51.000Z</time>
      </trkpt>
      <trkpt lat="43.52408" lon="2.9556">
        <ele>329</ele>
        <time>2018-04-07T11:34:53.000Z</time>
      </trkpt>
      <trkpt lat="43.5241" lon="2.95573">
        <ele>326.6</ele>
        <time>2018-04-07T11:34:55.000Z</time>
      </trkpt>
      <trkpt lat="43.52413" lon="2.95587">
        <ele>324.9</ele>
        <time>2018-04-07T11:34:57.000Z</time>
      </trkpt>
      <trkpt lat="43.5241" lon="2.95648">
        <ele>315.7</ele>
        <time>2018-04-07T11:35:03.000Z</time>
      </trkpt>
      <trkpt lat="43.52409" lon="2.9568">
        <ele>311.6</ele>
        <time>2018-04-07T11:35:06.000Z</time>
      </trkpt>
      <trkpt lat="43.52403" lon="2.95696">
        <ele>310</ele>
        <time>2018-04-07T11:35:08.000Z</time>
      </trkpt>
      <trkpt lat="43.52396" lon="2.95711">
        <ele>309</ele>
        <time>2018-04-07T11:35:10.000Z</time>
      </trkpt>
      <trkpt lat="43.52393" lon="2.95728">
        <ele>305.8</ele>
        <time>2018-04-07T11:35:12.000Z</time>
      </trkpt>
      <trkpt lat="43.5239" lon="2.95735">
        <ele>304.7</ele>
        <time>2018-04-07T11:35:13.000Z</time>
      </trkpt>
      <trkpt lat="43.52384" lon="2.9575">
        <ele>303.5</ele>
        <time>2018-04-07T11:35:15.000Z</time>
      </trkpt>
      <trkpt lat="43.52378" lon="2.95778">
        <ele>298.2</ele>
        <time>2018-04-07T11:35:22.000Z</time>
      </trkpt>
      <trkpt lat="43.52381" lon="2.95776">
        <ele>298.4</ele>
        <time>2018-04-07T11:35:23.000Z</time>
      </trkpt>
      <trkpt lat="43.52392" lon="2.95763">
        <ele>298.3</ele>
        <time>2018-04-07T11:35:26.000Z</time>
      </trkpt>
      <trkpt lat="43.52397" lon="2.95763">
        <ele>297.6</ele>
        <time>2018-04-07T11:35:28.000Z</time>
      </trkpt>
      <trkpt lat="43.52396" lon="2.9577">
        <ele>295.9</ele>
        <time>2018-04-07T11:35:30.000Z</time>
      </trkpt>
      <trkpt lat="43.52396" lon="2.95775">
        <ele>295</ele>
        <time>2018-04-07T11:40:21.000Z</time>
      </trkpt>
      <trkpt lat="43.52395" lon="2.9578">
        <ele>294.2</ele>
        <time>2018-04-07T11:40:22.000Z</time>
      </trkpt>
      <trkpt lat="43.52397" lon="2.95786">
        <ele>292.1</ele>
        <time>2018-04-07T11:40:23.000Z</time>
      </trkpt>
      <trkpt lat="43.52401" lon="2.95801">
        <ele>289.3</ele>
        <time>2018-04-07T11:40:26.000Z</time>
      </trkpt>
      <trkpt lat="43.52388" lon="2.95811">
        <ele>289.6</ele>
        <time>2018-04-07T11:40:33.000Z</time>
      </trkpt>
      <trkpt lat="43.52368" lon="2.95819">
        <ele>291.5</ele>
        <time>2018-04-07T11:40:43.000Z</time>
      </trkpt>
      <trkpt lat="43.52347" lon="2.95823">
        <ele>294.7</ele>
        <time>2018-04-07T11:40:53.000Z</time>
      </trkpt>
      <trkpt lat="43.52332" lon="2.9583">
        <ele>294.9</ele>
        <time>2018-04-07T11:41:03.000Z</time>
      </trkpt>
      <trkpt lat="43.52312" lon="2.95845">
        <ele>294.8</ele>
        <time>2018-04-07T11:41:13.000Z</time>
      </trkpt>
      <trkpt lat="43.52286" lon="2.95868">
        <ele>292.1</ele>
        <time>2018-04-07T11:41:23.000Z</time>
      </trkpt>
      <trkpt lat="43.52264" lon="2.95887">
        <ele>291.9</ele>
        <time>2018-04-07T11:41:33.000Z</time>
      </trkpt>
      <trkpt lat="43.52232" lon="2.95921">
        <ele>290.8</ele>
        <time>2018-04-07T11:41:43.000Z</time>
      </trkpt>
      <trkpt lat="43.52208" lon="2.95936">
        <ele>292.7</ele>
        <time>2018-04-07T11:41:53.000Z</time>
      </trkpt>
      <trkpt lat="43.52196" lon="2.9594">
        <ele>293</ele>
        <time>2018-04-07T11:42:01.000Z</time>
      </trkpt>
      <trkpt lat="43.52193" lon="2.95939">
        <ele>293.7</ele>
        <time>2018-04-07T11:42:03.000Z</time>
      </trkpt>
      <trkpt lat="43.52181" lon="2.95924">
        <ele>295.2</ele>
        <time>2018-04-07T11:42:13.000Z</time>
      </trkpt>
      <trkpt lat="43.52191" lon="2.9591">
        <ele>296.4</ele>
        <time>2018-04-07T11:42:23.000Z</time>
      </trkpt>
      <trkpt lat="43.52191" lon="2.9591">
        <ele>296.4</ele>
        <time>2018-04-07T11:42:24.000Z</time>
      </trkpt>
      <trkpt lat="43.52165" lon="2.95675">
        <ele>332.4</ele>
        <time>2018-04-07T11:46:20.000Z</time>
      </trkpt>
      <trkpt lat="43.52166" lon="2.95669">
        <ele>334</ele>
        <time>2018-04-07T11:46:23.000Z</time>
      </trkpt>
      <trkpt lat="43.52169" lon="2.95649">
        <ele>337.6</ele>
        <time>2018-04-07T11:46:33.000Z</time>
      </trkpt>
      <trkpt lat="43.52171" lon="2.95629">
        <ele>341.6</ele>
        <time>2018-04-07T11:46:43.000Z</time>
      </trkpt>
      <trkpt lat="43.52172" lon="2.95612">
        <ele>344.2</ele>
        <time>2018-04-07T11:46:53.000Z</time>
      </trkpt>
      <trkpt lat="43.52176" lon="2.95608">
        <ele>345.5</ele>
        <time>2018-04-07T11:47:03.000Z</time>
      </trkpt>
      <trkpt lat="43.52179" lon="2.95612">
        <ele>346</ele>
        <time>2018-04-07T11:47:13.000Z</time>
      </trkpt>
      <trkpt lat="43.5218" lon="2.95622">
        <ele>344.7</ele>
        <time>2018-04-07T11:47:23.000Z</time>
      </trkpt>
      <trkpt lat="43.52181" lon="2.95628">
        <ele>343.4</ele>
        <time>2018-04-07T11:47:27.000Z</time>
      </trkpt>
      <trkpt lat="43.52182" lon="2.95635">
        <ele>343.2</ele>
        <time>2018-04-07T11:47:33.000Z</time>
      </trkpt>
      <trkpt lat="43.52188" lon="2.95633">
        <ele>343.6</ele>
        <time>2018-04-07T11:47:43.000Z</time>
      </trkpt>
      <trkpt lat="43.5219" lon="2.95621">
        <ele>346.2</ele>
        <time>2018-04-07T11:47:53.000Z</time>
      </trkpt>
      <trkpt lat="43.5219" lon="2.95614">
        <ele>347.6</ele>
        <time>2018-04-07T11:47:58.000Z</time>
      </trkpt>
      <trkpt lat="43.5219" lon="2.95609">
        <ele>348.3</ele>
        <time>2018-04-07T11:48:01.000Z</time>
      </trkpt>
      <trkpt lat="43.5219" lon="2.95607">
        <ele>348.3</ele>
        <time>2018-04-07T11:48:03.000Z</time>
      </trkpt>
      <trkpt lat="43.52191" lon="2.95593">
        <ele>350.5</ele>
        <time>2018-04-07T11:48:13.000Z</time>
      </trkpt>
      <trkpt lat="43.52191" lon="2.95582">
        <ele>352.9</ele>
        <time>2018-04-07T11:48:23.000Z</time>
      </trkpt>
      <trkpt lat="43.5219" lon="2.95571">
        <ele>354.5</ele>
        <time>2018-04-07T11:48:33.000Z</time>
      </trkpt>
      <trkpt lat="43.52187" lon="2.95561">
        <ele>356.2</ele>
        <time>2018-04-07T11:48:43.000Z</time>
      </trkpt>
      <trkpt lat="43.52185" lon="2.95552">
        <ele>357.2</ele>
        <time>2018-04-07T11:48:53.000Z</time>
      </trkpt>
      <trkpt lat="43.52183" lon="2.95543">
        <ele>358.9</ele>
        <time>2018-04-07T11:49:00.000Z</time>
      </trkpt>
      <trkpt lat="43.52183" lon="2.9554">
        <ele>359.8</ele>
        <time>2018-04-07T11:49:03.000Z</time>
      </trkpt>
      <trkpt lat="43.5218" lon="2.95529">
        <ele>361.5</ele>
        <time>2018-04-07T11:49:13.000Z</time>
      </trkpt>
      <trkpt lat="43.52178" lon="2.95526">
        <ele>361.7</ele>
        <time>2018-04-07T11:49:16.000Z</time>
      </trkpt>
      <trkpt lat="43.52174" lon="2.95519">
        <ele>362.6</ele>
        <time>2018-04-07T11:49:23.000Z</time>
      </trkpt>
      <trkpt lat="43.52175" lon="2.95511">
        <ele>363.4</ele>
        <time>2018-04-07T11:49:33.000Z</time>
      </trkpt>
      <trkpt lat="43.52181" lon="2.95512">
        <ele>364.6</ele>
        <time>2018-04-07T11:49:43.000Z</time>
      </trkpt>
      <trkpt lat="43.52187" lon="2.95516">
        <ele>365</ele>
        <time>2018-04-07T11:49:53.000Z</time>
      </trkpt>
      <trkpt lat="43.52193" lon="2.95521">
        <ele>365.5</ele>
        <time>2018-04-07T11:50:03.000Z</time>
      </trkpt>
      <trkpt lat="43.522" lon="2.95522">
        <ele>366.5</ele>
        <time>2018-04-07T11:50:13.000Z</time>
      </trkpt>
      <trkpt lat="43.52207" lon="2.95525">
        <ele>366.5</ele>
        <time>2018-04-07T11:50:23.000Z</time>
      </trkpt>
      <trkpt lat="43.52214" lon="2.95525">
        <ele>367.3</ele>
        <time>2018-04-07T11:50:33.000Z</time>
      </trkpt>
      <trkpt lat="43.52222" lon="2.95527">
        <ele>367.6</ele>
        <time>2018-04-07T11:50:43.000Z</time>
      </trkpt>
      <trkpt lat="43.52224" lon="2.95528">
        <ele>366.8</ele>
        <time>2018-04-07T11:50:45.000Z</time>
      </trkpt>
      <trkpt lat="43.5223" lon="2.95534">
        <ele>365.3</ele>
        <time>2018-04-07T11:50:53.000Z</time>
      </trkpt>
      <trkpt lat="43.5224" lon="2.95542">
        <ele>363</ele>
        <time>2018-04-07T11:51:03.000Z</time>
      </trkpt>
      <trkpt lat="43.52249" lon="2.95545">
        <ele>362.3</ele>
        <time>2018-04-07T11:51:13.000Z</time>
      </trkpt>
      <trkpt lat="43.52257" lon="2.95548">
        <ele>360.8</ele>
        <time>2018-04-07T11:51:23.000Z</time>
      </trkpt>
      <trkpt lat="43.52266" lon="2.95548">
        <ele>359.8</ele>
        <time>2018-04-07T11:51:33.000Z</time>
      </trkpt>
      <trkpt lat="43.52268" lon="2.95539">
        <ele>361.1</ele>
        <time>2018-04-07T11:51:43.000Z</time>
      </trkpt>
      <trkpt lat="43.52273" lon="2.95533">
        <ele>361.2</ele>
        <time>2018-04-07T11:51:53.000Z</time>
      </trkpt>
      <trkpt lat="43.52277" lon="2.95527">
        <ele>363.1</ele>
        <time>2018-04-07T11:52:03.000Z</time>
      </trkpt>
      <trkpt lat="43.52277" lon="2.95516">
        <ele>364.8</ele>
        <time>2018-04-07T11:52:13.000Z</time>
      </trkpt>
      <trkpt lat="43.52276" lon="2.95509">
        <ele>367</ele>
        <time>2018-04-07T11:52:23.000Z</time>
      </trkpt>
      <trkpt lat="43.52273" lon="2.95502">
        <ele>369.3</ele>
        <time>2018-04-07T11:52:33.000Z</time>
      </trkpt>
      <trkpt lat="43.5227" lon="2.95494">
        <ele>370.3</ele>
        <time>2018-04-07T11:52:43.000Z</time>
      </trkpt>
      <trkpt lat="43.52268" lon="2.95485">
        <ele>373.4</ele>
        <time>2018-04-07T11:52:53.000Z</time>
      </trkpt>
      <trkpt lat="43.52265" lon="2.95476">
        <ele>375.4</ele>
        <time>2018-04-07T11:53:03.000Z</time>
      </trkpt>
      <trkpt lat="43.52264" lon="2.95474">
        <ele>375.4</ele>
        <time>2018-04-07T11:53:05.000Z</time>
      </trkpt>
      <trkpt lat="43.52261" lon="2.95466">
        <ele>377.4</ele>
        <time>2018-04-07T11:53:13.000Z</time>
      </trkpt>
      <trkpt lat="43.52259" lon="2.95457">
        <ele>379.4</ele>
        <time>2018-04-07T11:53:23.000Z</time>
      </trkpt>
      <trkpt lat="43.52261" lon="2.95445">
        <ele>381.5</ele>
        <time>2018-04-07T11:53:33.000Z</time>
      </trkpt>
      <trkpt lat="43.52262" lon="2.95441">
        <ele>382.4</ele>
        <time>2018-04-07T11:53:36.000Z</time>
      </trkpt>
      <trkpt lat="43.52264" lon="2.95434">
        <ele>382.7</ele>
        <time>2018-04-07T11:53:43.000Z</time>
      </trkpt>
      <trkpt lat="43.52267" lon="2.95423">
        <ele>384.7</ele>
        <time>2018-04-07T11:53:53.000Z</time>
      </trkpt>
      <trkpt lat="43.52268" lon="2.95414">
        <ele>386.4</ele>
        <time>2018-04-07T11:54:03.000Z</time>
      </trkpt>
      <trkpt lat="43.52268" lon="2.95405">
        <ele>388.3</ele>
        <time>2018-04-07T11:54:13.000Z</time>
      </trkpt>
      <trkpt lat="43.52264" lon="2.95398">
        <ele>390.6</ele>
        <time>2018-04-07T11:54:23.000Z</time>
      </trkpt>
      <trkpt lat="43.52261" lon="2.95391">
        <ele>391.9</ele>
        <time>2018-04-07T11:54:29.000Z</time>
      </trkpt>
      <trkpt lat="43.52259" lon="2.95387">
        <ele>393.2</ele>
        <time>2018-04-07T11:54:33.000Z</time>
      </trkpt>
      <trkpt lat="43.52252" lon="2.95381">
        <ele>395.5</ele>
        <time>2018-04-07T11:54:43.000Z</time>
      </trkpt>
      <trkpt lat="43.52246" lon="2.95374">
        <ele>397</ele>
        <time>2018-04-07T11:54:53.000Z</time>
      </trkpt>
      <trkpt lat="43.52238" lon="2.95369">
        <ele>398.3</ele>
        <time>2018-04-07T11:55:03.000Z</time>
      </trkpt>
      <trkpt lat="43.52237" lon="2.9536">
        <ele>401.5</ele>
        <time>2018-04-07T11:55:13.000Z</time>
      </trkpt>
      <trkpt lat="43.52241" lon="2.95351">
        <ele>403.4</ele>
        <time>2018-04-07T11:55:23.000Z</time>
      </trkpt>
      <trkpt lat="43.52247" lon="2.95341">
        <ele>405</ele>
        <time>2018-04-07T11:55:33.000Z</time>
      </trkpt>
      <trkpt lat="43.5225" lon="2.95333">
        <ele>406.8</ele>
        <time>2018-04-07T11:55:43.000Z</time>
      </trkpt>
      <trkpt lat="43.52251" lon="2.95332">
        <ele>406.5</ele>
        <time>2018-04-07T11:55:45.000Z</time>
      </trkpt>
      <trkpt lat="43.52255" lon="2.95324">
        <ele>408.2</ele>
        <time>2018-04-07T11:55:53.000Z</time>
      </trkpt>
      <trkpt lat="43.52258" lon="2.95316">
        <ele>409.9</ele>
        <time>2018-04-07T11:56:03.000Z</time>
      </trkpt>
      <trkpt lat="43.5226" lon="2.95308">
        <ele>412</ele>
        <time>2018-04-07T11:56:13.000Z</time>
      </trkpt>
      <trkpt lat="43.52263" lon="2.95298">
        <ele>413.4</ele>
        <time>2018-04-07T11:56:23.000Z</time>
      </trkpt>
      <trkpt lat="43.52266" lon="2.95289">
        <ele>414.8</ele>
        <time>2018-04-07T11:56:33.000Z</time>
      </trkpt>
      <trkpt lat="43.5227" lon="2.95279">
        <ele>416.9</ele>
        <time>2018-04-07T11:56:43.000Z</time>
      </trkpt>
      <trkpt lat="43.52274" lon="2.95269">
        <ele>418.5</ele>
        <time>2018-04-07T11:56:53.000Z</time>
      </trkpt>
      <trkpt lat="43.52274" lon="2.95257">
        <ele>421.6</ele>
        <time>2018-04-07T11:57:03.000Z</time>
      </trkpt>
      <trkpt lat="43.52276" lon="2.95246">
        <ele>423</ele>
        <time>2018-04-07T11:57:13.000Z</time>
      </trkpt>
      <trkpt lat="43.52284" lon="2.95242">
        <ele>423.1</ele>
        <time>2018-04-07T11:57:23.000Z</time>
      </trkpt>
      <trkpt lat="43.52291" lon="2.95239">
        <ele>423.3</ele>
        <time>2018-04-07T11:57:33.000Z</time>
      </trkpt>
      <trkpt lat="43.52297" lon="2.95232">
        <ele>423.7</ele>
        <time>2018-04-07T11:57:43.000Z</time>
      </trkpt>
      <trkpt lat="43.523" lon="2.95221">
        <ele>426.7</ele>
        <time>2018-04-07T11:57:53.000Z</time>
      </trkpt>
      <trkpt lat="43.52303" lon="2.95218">
        <ele>427.4</ele>
        <time>2018-04-07T11:57:56.000Z</time>
      </trkpt>
      <trkpt lat="43.52308" lon="2.95214">
        <ele>427.7</ele>
        <time>2018-04-07T11:58:03.000Z</time>
      </trkpt>
      <trkpt lat="43.52315" lon="2.95208">
        <ele>427.9</ele>
        <time>2018-04-07T11:58:13.000Z</time>
      </trkpt>
      <trkpt lat="43.52322" lon="2.95205">
        <ele>428.2</ele>
        <time>2018-04-07T11:58:23.000Z</time>
      </trkpt>
      <trkpt lat="43.52328" lon="2.95198">
        <ele>428.4</ele>
        <time>2018-04-07T11:58:33.000Z</time>
      </trkpt>
      <trkpt lat="43.52334" lon="2.95193">
        <ele>429.6</ele>
        <time>2018-04-07T11:58:43.000Z</time>
      </trkpt>
      <trkpt lat="43.52337" lon="2.95189">
        <ele>429.3</ele>
        <time>2018-04-07T11:58:47.000Z</time>
      </trkpt>
      <trkpt lat="43.5234" lon="2.95186">
        <ele>430</ele>
        <time>2018-04-07T11:58:53.000Z</time>
      </trkpt>
      <trkpt lat="43.52343" lon="2.95176">
        <ele>431.8</ele>
        <time>2018-04-07T11:59:03.000Z</time>
      </trkpt>
      <trkpt lat="43.52346" lon="2.95167">
        <ele>434.5</ele>
        <time>2018-04-07T11:59:13.000Z</time>
      </trkpt>
      <trkpt lat="43.52351" lon="2.95158">
        <ele>435.7</ele>
        <time>2018-04-07T11:59:23.000Z</time>
      </trkpt>
      <trkpt lat="43.5235" lon="2.95149">
        <ele>437.3</ele>
        <time>2018-04-07T11:59:33.000Z</time>
      </trkpt>
      <trkpt lat="43.52346" lon="2.95143">
        <ele>438.2</ele>
        <time>2018-04-07T11:59:43.000Z</time>
      </trkpt>
      <trkpt lat="43.52341" lon="2.95141">
        <ele>439.2</ele>
        <time>2018-04-07T11:59:51.000Z</time>
      </trkpt>
      <trkpt lat="43.52336" lon="2.95134">
        <ele>440.1</ele>
        <time>2018-04-07T12:00:05.000Z</time>
      </trkpt>
      <trkpt lat="43.52326" lon="2.95123">
        <ele>442.5</ele>
        <time>2018-04-07T12:00:13.000Z</time>
      </trkpt>
      <trkpt lat="43.5231" lon="2.95114">
        <ele>444.4</ele>
        <time>2018-04-07T12:00:23.000Z</time>
      </trkpt>
      <trkpt lat="43.52296" lon="2.95107">
        <ele>445.6</ele>
        <time>2018-04-07T12:00:33.000Z</time>
      </trkpt>
      <trkpt lat="43.52287" lon="2.95091">
        <ele>447</ele>
        <time>2018-04-07T12:00:43.000Z</time>
      </trkpt>
      <trkpt lat="43.52281" lon="2.95074">
        <ele>448.9</ele>
        <time>2018-04-07T12:00:53.000Z</time>
      </trkpt>
      <trkpt lat="43.52277" lon="2.95058">
        <ele>450.9</ele>
        <time>2018-04-07T12:01:02.000Z</time>
      </trkpt>
      <trkpt lat="43.52278" lon="2.95051">
        <ele>452.2</ele>
        <time>2018-04-07T12:01:06.000Z</time>
      </trkpt>
      <trkpt lat="43.52277" lon="2.9505">
        <ele>452.2</ele>
        <time>2018-04-07T12:01:09.000Z</time>
      </trkpt>
      <trkpt lat="43.52351" lon="2.94942">
        <ele>479.5</ele>
        <time>2018-04-07T12:07:07.000Z</time>
      </trkpt>
      <trkpt lat="43.52352" lon="2.94942">
        <ele>479.5</ele>
        <time>2018-04-07T12:07:08.000Z</time>
      </trkpt>
      <trkpt lat="43.5236" lon="2.94939">
        <ele>479.9</ele>
        <time>2018-04-07T12:07:13.000Z</time>
      </trkpt>
      <trkpt lat="43.52377" lon="2.94933">
        <ele>479.4</ele>
        <time>2018-04-07T12:07:23.000Z</time>
      </trkpt>
      <trkpt lat="43.52394" lon="2.94927">
        <ele>478.3</ele>
        <time>2018-04-07T12:07:33.000Z</time>
      </trkpt>
      <trkpt lat="43.5241" lon="2.94917">
        <ele>479.4</ele>
        <time>2018-04-07T12:07:43.000Z</time>
      </trkpt>
      <trkpt lat="43.52415" lon="2.94902">
        <ele>483</ele>
        <time>2018-04-07T12:07:53.000Z</time>
      </trkpt>
      <trkpt lat="43.52412" lon="2.94901">
        <ele>484.6</ele>
        <time>2018-04-07T12:07:55.000Z</time>
      </trkpt>
      <trkpt lat="43.52401" lon="2.94902">
        <ele>484.4</ele>
        <time>2018-04-07T12:08:03.000Z</time>
      </trkpt>
      <trkpt lat="43.52387" lon="2.94898">
        <ele>487.2</ele>
        <time>2018-04-07T12:08:13.000Z</time>
      </trkpt>
      <trkpt lat="43.52377" lon="2.94894">
        <ele>489.2</ele>
        <time>2018-04-07T12:08:22.000Z</time>
      </trkpt>
      <trkpt lat="43.52376" lon="2.94893">
        <ele>489.2</ele>
        <time>2018-04-07T12:08:23.000Z</time>
      </trkpt>
      <trkpt lat="43.52362" lon="2.94886">
        <ele>492.7</ele>
        <time>2018-04-07T12:08:33.000Z</time>
      </trkpt>
      <trkpt lat="43.52349" lon="2.94877">
        <ele>495.5</ele>
        <time>2018-04-07T12:08:43.000Z</time>
      </trkpt>
      <trkpt lat="43.52336" lon="2.94868">
        <ele>497.7</ele>
        <time>2018-04-07T12:08:53.000Z</time>
      </trkpt>
      <trkpt lat="43.5232" lon="2.94859">
        <ele>499</ele>
        <time>2018-04-07T12:09:03.000Z</time>
      </trkpt>
      <trkpt lat="43.52304" lon="2.94856">
        <ele>499</ele>
        <time>2018-04-07T12:09:13.000Z</time>
      </trkpt>
      <trkpt lat="43.52297" lon="2.94853">
        <ele>498.7</ele>
        <time>2018-04-07T12:09:19.000Z</time>
      </trkpt>
      <trkpt lat="43.52294" lon="2.94848">
        <ele>499.3</ele>
        <time>2018-04-07T12:09:23.000Z</time>
      </trkpt>
      <trkpt lat="43.52294" lon="2.94844">
        <ele>499.5</ele>
        <time>2018-04-07T12:09:25.000Z</time>
      </trkpt>
      <trkpt lat="43.52295" lon="2.94842">
        <ele>499.8</ele>
        <time>2018-04-07T12:09:27.000Z</time>
      </trkpt>
      <trkpt lat="43.52302" lon="2.94836">
        <ele>501.5</ele>
        <time>2018-04-07T12:09:33.000Z</time>
      </trkpt>
      <trkpt lat="43.52307" lon="2.94834">
        <ele>501.8</ele>
        <time>2018-04-07T12:09:37.000Z</time>
      </trkpt>
      <trkpt lat="43.52312" lon="2.94828">
        <ele>503.6</ele>
        <time>2018-04-07T12:09:43.000Z</time>
      </trkpt>
      <trkpt lat="43.52323" lon="2.94821">
        <ele>504.8</ele>
        <time>2018-04-07T12:09:53.000Z</time>
      </trkpt>
      <trkpt lat="43.52336" lon="2.94817">
        <ele>505.7</ele>
        <time>2018-04-07T12:10:03.000Z</time>
      </trkpt>
      <trkpt lat="43.5234" lon="2.94815">
        <ele>506.3</ele>
        <time>2018-04-07T12:10:06.000Z</time>
      </trkpt>
      <trkpt lat="43.52349" lon="2.94815">
        <ele>506.3</ele>
        <time>2018-04-07T12:10:13.000Z</time>
      </trkpt>
      <trkpt lat="43.52357" lon="2.94815">
        <ele>506.3</ele>
        <time>2018-04-07T12:10:20.000Z</time>
      </trkpt>
      <trkpt lat="43.52361" lon="2.94814">
        <ele>506.3</ele>
        <time>2018-04-07T12:10:23.000Z</time>
      </trkpt>
      <trkpt lat="43.52371" lon="2.94804">
        <ele>507.7</ele>
        <time>2018-04-07T12:10:32.000Z</time>
      </trkpt>
      <trkpt lat="43.52378" lon="2.9479">
        <ele>509.6</ele>
        <time>2018-04-07T12:10:43.000Z</time>
      </trkpt>
      <trkpt lat="43.5238" lon="2.94786">
        <ele>510.3</ele>
        <time>2018-04-07T12:10:46.000Z</time>
      </trkpt>
      <trkpt lat="43.52386" lon="2.94776">
        <ele>512.3</ele>
        <time>2018-04-07T12:10:53.000Z</time>
      </trkpt>
      <trkpt lat="43.52396" lon="2.94762">
        <ele>514.3</ele>
        <time>2018-04-07T12:11:03.000Z</time>
      </trkpt>
      <trkpt lat="43.52406" lon="2.9475">
        <ele>516.4</ele>
        <time>2018-04-07T12:11:13.000Z</time>
      </trkpt>
      <trkpt lat="43.52419" lon="2.9474">
        <ele>518.4</ele>
        <time>2018-04-07T12:11:23.000Z</time>
      </trkpt>
      <trkpt lat="43.52434" lon="2.94734">
        <ele>520.6</ele>
        <time>2018-04-07T12:11:33.000Z</time>
      </trkpt>
      <trkpt lat="43.5245" lon="2.94727">
        <ele>522.5</ele>
        <time>2018-04-07T12:11:43.000Z</time>
      </trkpt>
      <trkpt lat="43.52465" lon="2.94725">
        <ele>524.5</ele>
        <time>2018-04-07T12:11:53.000Z</time>
      </trkpt>
      <trkpt lat="43.52481" lon="2.94721">
        <ele>525.6</ele>
        <time>2018-04-07T12:12:03.000Z</time>
      </trkpt>
      <trkpt lat="43.52484" lon="2.94712">
        <ele>527.1</ele>
        <time>2018-04-07T12:12:08.000Z</time>
      </trkpt>
      <trkpt lat="43.52479" lon="2.94704">
        <ele>528.5</ele>
        <time>2018-04-07T12:12:13.000Z</time>
      </trkpt>
      <trkpt lat="43.52461" lon="2.947">
        <ele>528.1</ele>
        <time>2018-04-07T12:12:23.000Z</time>
      </trkpt>
      <trkpt lat="43.52442" lon="2.94691">
        <ele>528.8</ele>
        <time>2018-04-07T12:12:33.000Z</time>
      </trkpt>
      <trkpt lat="43.52423" lon="2.94684">
        <ele>527.9</ele>
        <time>2018-04-07T12:12:43.000Z</time>
      </trkpt>
      <trkpt lat="43.52403" lon="2.9468">
        <ele>526.9</ele>
        <time>2018-04-07T12:12:53.000Z</time>
      </trkpt>
      <trkpt lat="43.52382" lon="2.94673">
        <ele>527.1</ele>
        <time>2018-04-07T12:13:03.000Z</time>
      </trkpt>
      <trkpt lat="43.52373" lon="2.94662">
        <ele>527.8</ele>
        <time>2018-04-07T12:13:09.000Z</time>
      </trkpt>
      <trkpt lat="43.52375" lon="2.94659">
        <ele>528.3</ele>
        <time>2018-04-07T12:13:11.000Z</time>
      </trkpt>
      <trkpt lat="43.52378" lon="2.94657">
        <ele>528.4</ele>
        <time>2018-04-07T12:13:13.000Z</time>
      </trkpt>
      <trkpt lat="43.52396" lon="2.94655">
        <ele>530</ele>
        <time>2018-04-07T12:13:23.000Z</time>
      </trkpt>
      <trkpt lat="43.52416" lon="2.94656">
        <ele>531.5</ele>
        <time>2018-04-07T12:13:33.000Z</time>
      </trkpt>
      <trkpt lat="43.52434" lon="2.94653">
        <ele>532.9</ele>
        <time>2018-04-07T12:13:43.000Z</time>
      </trkpt>
      <trkpt lat="43.52439" lon="2.94647">
        <ele>534.8</ele>
        <time>2018-04-07T12:13:48.000Z</time>
      </trkpt>
      <trkpt lat="43.5244" lon="2.94642">
        <ele>535.5</ele>
        <time>2018-04-07T12:13:51.000Z</time>
      </trkpt>
      <trkpt lat="43.52438" lon="2.94638">
        <ele>536.2</ele>
        <time>2018-04-07T12:13:53.000Z</time>
      </trkpt>
      <trkpt lat="43.52434" lon="2.94627">
        <ele>536.8</ele>
        <time>2018-04-07T12:13:59.000Z</time>
      </trkpt>
      <trkpt lat="43.52433" lon="2.94622">
        <ele>537.9</ele>
        <time>2018-04-07T12:14:02.000Z</time>
      </trkpt>
      <trkpt lat="43.52432" lon="2.9462">
        <ele>537.9</ele>
        <time>2018-04-07T12:14:03.000Z</time>
      </trkpt>
      <trkpt lat="43.52422" lon="2.94603">
        <ele>538.8</ele>
        <time>2018-04-07T12:14:13.000Z</time>
      </trkpt>
      <trkpt lat="43.52412" lon="2.94585">
        <ele>539.7</ele>
        <time>2018-04-07T12:14:23.000Z</time>
      </trkpt>
      <trkpt lat="43.52412" lon="2.94567">
        <ele>541.6</ele>
        <time>2018-04-07T12:14:32.000Z</time>
      </trkpt>
      <trkpt lat="43.52413" lon="2.94565">
        <ele>542.1</ele>
        <time>2018-04-07T12:14:33.000Z</time>
      </trkpt>
      <trkpt lat="43.52429" lon="2.94566">
        <ele>544.3</ele>
        <time>2018-04-07T12:14:43.000Z</time>
      </trkpt>
      <trkpt lat="43.52442" lon="2.94574">
        <ele>545.1</ele>
        <time>2018-04-07T12:14:53.000Z</time>
      </trkpt>
      <trkpt lat="43.52457" lon="2.94579">
        <ele>547.1</ele>
        <time>2018-04-07T12:15:03.000Z</time>
      </trkpt>
      <trkpt lat="43.52474" lon="2.94588">
        <ele>547.5</ele>
        <time>2018-04-07T12:15:13.000Z</time>
      </trkpt>
      <trkpt lat="43.52491" lon="2.94592">
        <ele>548.8</ele>
        <time>2018-04-07T12:15:23.000Z</time>
      </trkpt>
      <trkpt lat="43.52509" lon="2.94586">
        <ele>552.1</ele>
        <time>2018-04-07T12:15:33.000Z</time>
      </trkpt>
      <trkpt lat="43.52525" lon="2.94578">
        <ele>554</ele>
        <time>2018-04-07T12:15:43.000Z</time>
      </trkpt>
      <trkpt lat="43.52542" lon="2.94567">
        <ele>554.3</ele>
        <time>2018-04-07T12:15:53.000Z</time>
      </trkpt>
      <trkpt lat="43.52557" lon="2.94556">
        <ele>554.6</ele>
        <time>2018-04-07T12:16:03.000Z</time>
      </trkpt>
      <trkpt lat="43.52572" lon="2.94545">
        <ele>554.3</ele>
        <time>2018-04-07T12:16:13.000Z</time>
      </trkpt>
      <trkpt lat="43.52586" lon="2.94535">
        <ele>552.7</ele>
        <time>2018-04-07T12:16:23.000Z</time>
      </trkpt>
      <trkpt lat="43.526" lon="2.94522">
        <ele>551.5</ele>
        <time>2018-04-07T12:16:33.000Z</time>
      </trkpt>
      <trkpt lat="43.52612" lon="2.94509">
        <ele>552.4</ele>
        <time>2018-04-07T12:16:42.000Z</time>
      </trkpt>
      <trkpt lat="43.52621" lon="2.94492">
        <ele>553.7</ele>
        <time>2018-04-07T12:16:53.000Z</time>
      </trkpt>
      <trkpt lat="43.52631" lon="2.94475">
        <ele>555.9</ele>
        <time>2018-04-07T12:17:03.000Z</time>
      </trkpt>
      <trkpt lat="43.52634" lon="2.94452">
        <ele>561</ele>
        <time>2018-04-07T12:17:13.000Z</time>
      </trkpt>
      <trkpt lat="43.5264" lon="2.9443">
        <ele>565.3</ele>
        <time>2018-04-07T12:17:23.000Z</time>
      </trkpt>
      <trkpt lat="43.52641" lon="2.94429">
        <ele>565.4</ele>
        <time>2018-04-07T12:17:24.000Z</time>
      </trkpt>
      <trkpt lat="43.52651" lon="2.94418">
        <ele>565.2</ele>
        <time>2018-04-07T12:17:33.000Z</time>
      </trkpt>
      <trkpt lat="43.52665" lon="2.94402">
        <ele>565.9</ele>
        <time>2018-04-07T12:17:43.000Z</time>
      </trkpt>
      <trkpt lat="43.52679" lon="2.94386">
        <ele>567.3</ele>
        <time>2018-04-07T12:17:53.000Z</time>
      </trkpt>
      <trkpt lat="43.52691" lon="2.94369">
        <ele>569.8</ele>
        <time>2018-04-07T12:18:03.000Z</time>
      </trkpt>
      <trkpt lat="43.52705" lon="2.94355">
        <ele>571.3</ele>
        <time>2018-04-07T12:18:13.000Z</time>
      </trkpt>
      <trkpt lat="43.52717" lon="2.94337">
        <ele>575.4</ele>
        <time>2018-04-07T12:18:23.000Z</time>
      </trkpt>
      <trkpt lat="43.52723" lon="2.9433">
        <ele>577.8</ele>
        <time>2018-04-07T12:18:28.000Z</time>
      </trkpt>
      <trkpt lat="43.52731" lon="2.94324">
        <ele>578.3</ele>
        <time>2018-04-07T12:18:33.000Z</time>
      </trkpt>
      <trkpt lat="43.52748" lon="2.94319">
        <ele>577.9</ele>
        <time>2018-04-07T12:18:43.000Z</time>
      </trkpt>
      <trkpt lat="43.52766" lon="2.94315">
        <ele>576.2</ele>
        <time>2018-04-07T12:18:53.000Z</time>
      </trkpt>
      <trkpt lat="43.52786" lon="2.94315">
        <ele>572.1</ele>
        <time>2018-04-07T12:19:03.000Z</time>
      </trkpt>
      <trkpt lat="43.52804" lon="2.94301">
        <ele>572.7</ele>
        <time>2018-04-07T12:19:14.000Z</time>
      </trkpt>
      <trkpt lat="43.52818" lon="2.94285">
        <ele>575.9</ele>
        <time>2018-04-07T12:19:24.000Z</time>
      </trkpt>
      <trkpt lat="43.52831" lon="2.94269">
        <ele>580.4</ele>
        <time>2018-04-07T12:19:34.000Z</time>
      </trkpt>
      <trkpt lat="43.52839" lon="2.94253">
        <ele>585.5</ele>
        <time>2018-04-07T12:19:44.000Z</time>
      </trkpt>
      <trkpt lat="43.52849" lon="2.94239">
        <ele>588.8</ele>
        <time>2018-04-07T12:19:54.000Z</time>
      </trkpt>
      <trkpt lat="43.5286" lon="2.9423">
        <ele>591.2</ele>
        <time>2018-04-07T12:20:04.000Z</time>
      </trkpt>
      <trkpt lat="43.52871" lon="2.9421">
        <ele>597.5</ele>
        <time>2018-04-07T12:20:14.000Z</time>
      </trkpt>
      <trkpt lat="43.52879" lon="2.94191">
        <ele>602.1</ele>
        <time>2018-04-07T12:20:24.000Z</time>
      </trkpt>
      <trkpt lat="43.52887" lon="2.94174">
        <ele>604.6</ele>
        <time>2018-04-07T12:20:34.000Z</time>
      </trkpt>
      <trkpt lat="43.529" lon="2.94168">
        <ele>603.2</ele>
        <time>2018-04-07T12:20:43.000Z</time>
      </trkpt>
      <trkpt lat="43.52919" lon="2.94177">
        <ele>597.9</ele>
        <time>2018-04-07T12:20:54.000Z</time>
      </trkpt>
      <trkpt lat="43.52938" lon="2.9418">
        <ele>594.5</ele>
        <time>2018-04-07T12:21:03.000Z</time>
      </trkpt>
      <trkpt lat="43.5296" lon="2.94171">
        <ele>592.1</ele>
        <time>2018-04-07T12:21:14.000Z</time>
      </trkpt>
      <trkpt lat="43.52974" lon="2.94149">
        <ele>594.6</ele>
        <time>2018-04-07T12:21:24.000Z</time>
      </trkpt>
      <trkpt lat="43.52987" lon="2.94129">
        <ele>597.6</ele>
        <time>2018-04-07T12:21:34.000Z</time>
      </trkpt>
      <trkpt lat="43.53003" lon="2.94115">
        <ele>600.3</ele>
        <time>2018-04-07T12:21:44.000Z</time>
      </trkpt>
      <trkpt lat="43.5302" lon="2.94104">
        <ele>600.3</ele>
        <time>2018-04-07T12:21:54.000Z</time>
      </trkpt>
      <trkpt lat="43.53036" lon="2.94095">
        <ele>600.7</ele>
        <time>2018-04-07T12:22:04.000Z</time>
      </trkpt>
      <trkpt lat="43.53053" lon="2.94089">
        <ele>601.2</ele>
        <time>2018-04-07T12:22:14.000Z</time>
      </trkpt>
      <trkpt lat="43.53068" lon="2.94076">
        <ele>602.6</ele>
        <time>2018-04-07T12:22:24.000Z</time>
      </trkpt>
      <trkpt lat="43.53082" lon="2.9406">
        <ele>606.1</ele>
        <time>2018-04-07T12:22:34.000Z</time>
      </trkpt>
      <trkpt lat="43.53098" lon="2.94047">
        <ele>609</ele>
        <time>2018-04-07T12:22:44.000Z</time>
      </trkpt>
      <trkpt lat="43.53114" lon="2.94035">
        <ele>610.7</ele>
        <time>2018-04-07T12:22:54.000Z</time>
      </trkpt>
      <trkpt lat="43.53124" lon="2.9402">
        <ele>616.2</ele>
        <time>2018-04-07T12:23:04.000Z</time>
      </trkpt>
      <trkpt lat="43.53142" lon="2.94007">
        <ele>619.6</ele>
        <time>2018-04-07T12:23:15.000Z</time>
      </trkpt>
      <trkpt lat="43.53161" lon="2.94003">
        <ele>620.3</ele>
        <time>2018-04-07T12:23:25.000Z</time>
      </trkpt>
      <trkpt lat="43.53179" lon="2.93998">
        <ele>621.6</ele>
        <time>2018-04-07T12:23:35.000Z</time>
      </trkpt>
      <trkpt lat="43.53196" lon="2.93998">
        <ele>622</ele>
        <time>2018-04-07T12:23:45.000Z</time>
      </trkpt>
      <trkpt lat="43.53213" lon="2.94002">
        <ele>621.2</ele>
        <time>2018-04-07T12:23:55.000Z</time>
      </trkpt>
      <trkpt lat="43.53231" lon="2.94008">
        <ele>620</ele>
        <time>2018-04-07T12:24:05.000Z</time>
      </trkpt>
      <trkpt lat="43.5325" lon="2.94011">
        <ele>618.4</ele>
        <time>2018-04-07T12:24:15.000Z</time>
      </trkpt>
      <trkpt lat="43.53265" lon="2.94025">
        <ele>615</ele>
        <time>2018-04-07T12:24:25.000Z</time>
      </trkpt>
      <trkpt lat="43.53282" lon="2.94028">
        <ele>614</ele>
        <time>2018-04-07T12:24:35.000Z</time>
      </trkpt>
      <trkpt lat="43.53299" lon="2.94029">
        <ele>613.8</ele>
        <time>2018-04-07T12:24:45.000Z</time>
      </trkpt>
      <trkpt lat="43.53315" lon="2.94036">
        <ele>612.7</ele>
        <time>2018-04-07T12:24:55.000Z</time>
      </trkpt>
      <trkpt lat="43.53333" lon="2.94041">
        <ele>613.1</ele>
        <time>2018-04-07T12:25:05.000Z</time>
      </trkpt>
      <trkpt lat="43.53351" lon="2.94031">
        <ele>615.7</ele>
        <time>2018-04-07T12:25:15.000Z</time>
      </trkpt>
      <trkpt lat="43.53372" lon="2.94009">
        <ele>620.2</ele>
        <time>2018-04-07T12:25:25.000Z</time>
      </trkpt>
      <trkpt lat="43.53395" lon="2.93995">
        <ele>622.5</ele>
        <time>2018-04-07T12:25:35.000Z</time>
      </trkpt>
      <trkpt lat="43.53415" lon="2.93984">
        <ele>623.3</ele>
        <time>2018-04-07T12:25:45.000Z</time>
      </trkpt>
      <trkpt lat="43.5343" lon="2.93971">
        <ele>624</ele>
        <time>2018-04-07T12:25:55.000Z</time>
      </trkpt>
      <trkpt lat="43.53447" lon="2.93965">
        <ele>624.8</ele>
        <time>2018-04-07T12:26:04.000Z</time>
      </trkpt>
      <trkpt lat="43.53449" lon="2.93965">
        <ele>624.9</ele>
        <time>2018-04-07T12:26:05.000Z</time>
      </trkpt>
      <trkpt lat="43.53467" lon="2.93969">
        <ele>625.3</ele>
        <time>2018-04-07T12:26:15.000Z</time>
      </trkpt>
      <trkpt lat="43.5348" lon="2.9396">
        <ele>624.5</ele>
        <time>2018-04-07T12:26:25.000Z</time>
      </trkpt>
      <trkpt lat="43.53478" lon="2.93951">
        <ele>624.8</ele>
        <time>2018-04-07T12:26:33.000Z</time>
      </trkpt>
      <trkpt lat="43.53475" lon="2.93949">
        <ele>625.1</ele>
        <time>2018-04-07T12:26:35.000Z</time>
      </trkpt>
      <trkpt lat="43.53455" lon="2.93938">
        <ele>625.8</ele>
        <time>2018-04-07T12:26:45.000Z</time>
      </trkpt>
      <trkpt lat="43.53432" lon="2.93919">
        <ele>625.8</ele>
        <time>2018-04-07T12:26:55.000Z</time>
      </trkpt>
      <trkpt lat="43.53417" lon="2.93886">
        <ele>626.1</ele>
        <time>2018-04-07T12:27:05.000Z</time>
      </trkpt>
      <trkpt lat="43.53409" lon="2.93853">
        <ele>627.5</ele>
        <time>2018-04-07T12:27:15.000Z</time>
      </trkpt>
      <trkpt lat="43.53398" lon="2.93819">
        <ele>629.2</ele>
        <time>2018-04-07T12:27:25.000Z</time>
      </trkpt>
      <trkpt lat="43.53385" lon="2.93785">
        <ele>630</ele>
        <time>2018-04-07T12:27:35.000Z</time>
      </trkpt>
      <trkpt lat="43.53371" lon="2.93754">
        <ele>630.4</ele>
        <time>2018-04-07T12:27:45.000Z</time>
      </trkpt>
      <trkpt lat="43.53358" lon="2.9372">
        <ele>630.5</ele>
        <time>2018-04-07T12:27:55.000Z</time>
      </trkpt>
      <trkpt lat="43.53343" lon="2.93682">
        <ele>630.2</ele>
        <time>2018-04-07T12:28:05.000Z</time>
      </trkpt>
      <trkpt lat="43.53332" lon="2.9364">
        <ele>630</ele>
        <time>2018-04-07T12:28:15.000Z</time>
      </trkpt>
      <trkpt lat="43.5331" lon="2.93594">
        <ele>628.2</ele>
        <time>2018-04-07T12:28:26.000Z</time>
      </trkpt>
      <trkpt lat="43.53311" lon="2.93555">
        <ele>626.2</ele>
        <time>2018-04-07T12:28:36.000Z</time>
      </trkpt>
      <trkpt lat="43.53318" lon="2.93524">
        <ele>624.9</ele>
        <time>2018-04-07T12:28:46.000Z</time>
      </trkpt>
      <trkpt lat="43.53328" lon="2.93495">
        <ele>624.8</ele>
        <time>2018-04-07T12:28:56.000Z</time>
      </trkpt>
      <trkpt lat="43.53335" lon="2.93471">
        <ele>624.9</ele>
        <time>2018-04-07T12:29:06.000Z</time>
      </trkpt>
      <trkpt lat="43.53346" lon="2.93447">
        <ele>625.7</ele>
        <time>2018-04-07T12:29:16.000Z</time>
      </trkpt>
      <trkpt lat="43.53355" lon="2.93414">
        <ele>627.2</ele>
        <time>2018-04-07T12:29:26.000Z</time>
      </trkpt>
      <trkpt lat="43.53364" lon="2.93387">
        <ele>628.5</ele>
        <time>2018-04-07T12:29:36.000Z</time>
      </trkpt>
      <trkpt lat="43.53373" lon="2.93357">
        <ele>628.7</ele>
        <time>2018-04-07T12:29:46.000Z</time>
      </trkpt>
      <trkpt lat="43.5338" lon="2.93334">
        <ele>630.5</ele>
        <time>2018-04-07T12:29:56.000Z</time>
      </trkpt>
      <trkpt lat="43.53388" lon="2.93312">
        <ele>633.1</ele>
        <time>2018-04-07T12:30:06.000Z</time>
      </trkpt>
      <trkpt lat="43.53389" lon="2.93303">
        <ele>633.9</ele>
        <time>2018-04-07T12:30:13.000Z</time>
      </trkpt>
      <trkpt lat="43.53387" lon="2.93299">
        <ele>634.3</ele>
        <time>2018-04-07T12:32:34.000Z</time>
      </trkpt>
      <trkpt lat="43.53386" lon="2.93292">
        <ele>635.3</ele>
        <time>2018-04-07T12:32:36.000Z</time>
      </trkpt>
      <trkpt lat="43.53389" lon="2.93277">
        <ele>636.2</ele>
        <time>2018-04-07T12:32:39.000Z</time>
      </trkpt>
      <trkpt lat="43.53397" lon="2.9327">
        <ele>635.8</ele>
        <time>2018-04-07T12:32:41.000Z</time>
      </trkpt>
      <trkpt lat="43.53406" lon="2.93258">
        <ele>635.2</ele>
        <time>2018-04-07T12:32:43.000Z</time>
      </trkpt>
      <trkpt lat="43.5342" lon="2.93233">
        <ele>633.8</ele>
        <time>2018-04-07T12:32:46.000Z</time>
      </trkpt>
      <trkpt lat="43.53459" lon="2.93175">
        <ele>620.1</ele>
        <time>2018-04-07T12:32:53.000Z</time>
      </trkpt>
      <trkpt lat="43.5347" lon="2.93152">
        <ele>615.6</ele>
        <time>2018-04-07T12:32:55.000Z</time>
      </trkpt>
      <trkpt lat="43.53474" lon="2.93138">
        <ele>611.8</ele>
        <time>2018-04-07T12:32:56.000Z</time>
      </trkpt>
      <trkpt lat="43.53478" lon="2.93125">
        <ele>609.9</ele>
        <time>2018-04-07T12:32:57.000Z</time>
      </trkpt>
      <trkpt lat="43.53496" lon="2.93049">
        <ele>597.8</ele>
        <time>2018-04-07T12:33:03.000Z</time>
      </trkpt>
      <trkpt lat="43.53504" lon="2.93025">
        <ele>593.5</ele>
        <time>2018-04-07T12:33:05.000Z</time>
      </trkpt>
      <trkpt lat="43.5351" lon="2.93016">
        <ele>589.7</ele>
        <time>2018-04-07T12:33:06.000Z</time>
      </trkpt>
      <trkpt lat="43.53546" lon="2.92981">
        <ele>570.8</ele>
        <time>2018-04-07T12:33:12.000Z</time>
      </trkpt>
      <trkpt lat="43.53554" lon="2.92972">
        <ele>568</ele>
        <time>2018-04-07T12:33:16.000Z</time>
      </trkpt>
      <trkpt lat="43.53558" lon="2.9297">
        <ele>565.1</ele>
        <time>2018-04-07T12:33:18.000Z</time>
      </trkpt>
      <trkpt lat="43.53559" lon="2.92975">
        <ele>564.7</ele>
        <time>2018-04-07T12:33:22.000Z</time>
      </trkpt>
      <trkpt lat="43.5356" lon="2.92981">
        <ele>564.4</ele>
        <time>2018-04-07T12:33:43.000Z</time>
      </trkpt>
      <trkpt lat="43.53563" lon="2.92981">
        <ele>562.8</ele>
        <time>2018-04-07T12:33:45.000Z</time>
      </trkpt>
      <trkpt lat="43.53565" lon="2.92979">
        <ele>561.5</ele>
        <time>2018-04-07T12:33:46.000Z</time>
      </trkpt>
      <trkpt lat="43.5359" lon="2.92946">
        <ele>554</ele>
        <time>2018-04-07T12:33:55.000Z</time>
      </trkpt>
      <trkpt lat="43.53593" lon="2.92941">
        <ele>553.2</ele>
        <time>2018-04-07T12:33:56.000Z</time>
      </trkpt>
      <trkpt lat="43.53594" lon="2.92935">
        <ele>553.7</ele>
        <time>2018-04-07T12:33:57.000Z</time>
      </trkpt>
      <trkpt lat="43.5361" lon="2.92889">
        <ele>551.9</ele>
        <time>2018-04-07T12:34:06.000Z</time>
      </trkpt>
      <trkpt lat="43.53629" lon="2.92877">
        <ele>547.6</ele>
        <time>2018-04-07T12:34:16.000Z</time>
      </trkpt>
      <trkpt lat="43.53656" lon="2.92855">
        <ele>542.1</ele>
        <time>2018-04-07T12:34:25.000Z</time>
      </trkpt>
      <trkpt lat="43.53661" lon="2.92852">
        <ele>540.5</ele>
        <time>2018-04-07T12:34:26.000Z</time>
      </trkpt>
      <trkpt lat="43.5367" lon="2.92847">
        <ele>538.5</ele>
        <time>2018-04-07T12:34:28.000Z</time>
      </trkpt>
      <trkpt lat="43.53697" lon="2.9284">
        <ele>535.8</ele>
        <time>2018-04-07T12:34:32.000Z</time>
      </trkpt>
      <trkpt lat="43.53708" lon="2.92837">
        <ele>535.3</ele>
        <time>2018-04-07T12:34:34.000Z</time>
      </trkpt>
      <trkpt lat="43.53718" lon="2.92836">
        <ele>535.5</ele>
        <time>2018-04-07T12:34:36.000Z</time>
      </trkpt>
      <trkpt lat="43.53723" lon="2.92838">
        <ele>536</ele>
        <time>2018-04-07T12:34:37.000Z</time>
      </trkpt>
      <trkpt lat="43.53731" lon="2.92846">
        <ele>536.4</ele>
        <time>2018-04-07T12:34:39.000Z</time>
      </trkpt>
      <trkpt lat="43.53739" lon="2.92857">
        <ele>535.8</ele>
        <time>2018-04-07T12:34:41.000Z</time>
      </trkpt>
      <trkpt lat="43.53763" lon="2.92878">
        <ele>533.5</ele>
        <time>2018-04-07T12:34:46.000Z</time>
      </trkpt>
      <trkpt lat="43.53768" lon="2.92881">
        <ele>533.3</ele>
        <time>2018-04-07T12:34:47.000Z</time>
      </trkpt>
      <trkpt lat="43.53787" lon="2.92888">
        <ele>533.5</ele>
        <time>2018-04-07T12:34:50.000Z</time>
      </trkpt>
      <trkpt lat="43.53837" lon="2.92897">
        <ele>530.6</ele>
        <time>2018-04-07T12:34:56.000Z</time>
      </trkpt>
      <trkpt lat="43.53854" lon="2.92897">
        <ele>529.1</ele>
        <time>2018-04-07T12:34:58.000Z</time>
      </trkpt>
      <trkpt lat="43.53887" lon="2.9289">
        <ele>525.9</ele>
        <time>2018-04-07T12:35:02.000Z</time>
      </trkpt>
      <trkpt lat="43.53902" lon="2.9288">
        <ele>526</ele>
        <time>2018-04-07T12:35:04.000Z</time>
      </trkpt>
      <trkpt lat="43.53915" lon="2.92868">
        <ele>524.6</ele>
        <time>2018-04-07T12:35:06.000Z</time>
      </trkpt>
      <trkpt lat="43.53922" lon="2.92864">
        <ele>523.4</ele>
        <time>2018-04-07T12:35:07.000Z</time>
      </trkpt>
      <trkpt lat="43.53944" lon="2.92846">
        <ele>518.6</ele>
        <time>2018-04-07T12:35:11.000Z</time>
      </trkpt>
      <trkpt lat="43.53963" lon="2.92829">
        <ele>514.3</ele>
        <time>2018-04-07T12:35:16.000Z</time>
      </trkpt>
      <trkpt lat="43.53978" lon="2.92826">
        <ele>508.2</ele>
        <time>2018-04-07T12:35:20.000Z</time>
      </trkpt>
      <trkpt lat="43.53989" lon="2.92835">
        <ele>503.3</ele>
        <time>2018-04-07T12:35:26.000Z</time>
      </trkpt>
      <trkpt lat="43.53989" lon="2.92835">
        <ele>503.2</ele>
        <time>2018-04-07T12:35:27.000Z</time>
      </trkpt>
      <trkpt lat="43.53989" lon="2.9284">
        <ele>502.3</ele>
        <time>2018-04-07T12:35:33.000Z</time>
      </trkpt>
      <trkpt lat="43.53994" lon="2.92852">
        <ele>497.8</ele>
        <time>2018-04-07T12:35:36.000Z</time>
      </trkpt>
      <trkpt lat="43.53999" lon="2.92854">
        <ele>496.3</ele>
        <time>2018-04-07T12:35:37.000Z</time>
      </trkpt>
      <trkpt lat="43.54035" lon="2.92887">
        <ele>474.8</ele>
        <time>2018-04-07T12:35:44.000Z</time>
      </trkpt>
      <trkpt lat="43.54036" lon="2.92901">
        <ele>472.4</ele>
        <time>2018-04-07T12:35:46.000Z</time>
      </trkpt>
      <trkpt lat="43.54017" lon="2.9297">
        <ele>465.5</ele>
        <time>2018-04-07T12:35:53.000Z</time>
      </trkpt>
      <trkpt lat="43.54014" lon="2.9298">
        <ele>464.5</ele>
        <time>2018-04-07T12:35:56.000Z</time>
      </trkpt>
      <trkpt lat="43.5402" lon="2.92977">
        <ele>463.1</ele>
        <time>2018-04-07T12:35:58.000Z</time>
      </trkpt>
      <trkpt lat="43.54068" lon="2.92933">
        <ele>452.6</ele>
        <time>2018-04-07T12:36:05.000Z</time>
      </trkpt>
      <trkpt lat="43.54076" lon="2.92926">
        <ele>450.8</ele>
        <time>2018-04-07T12:36:06.000Z</time>
      </trkpt>
      <trkpt lat="43.54081" lon="2.92919">
        <ele>449.4</ele>
        <time>2018-04-07T12:36:07.000Z</time>
      </trkpt>
      <trkpt lat="43.54087" lon="2.92903">
        <ele>448.4</ele>
        <time>2018-04-07T12:36:09.000Z</time>
      </trkpt>
      <trkpt lat="43.54091" lon="2.92883">
        <ele>450.5</ele>
        <time>2018-04-07T12:36:11.000Z</time>
      </trkpt>
      <trkpt lat="43.5409" lon="2.92861">
        <ele>453.7</ele>
        <time>2018-04-07T12:36:13.000Z</time>
      </trkpt>
      <trkpt lat="43.54092" lon="2.92851">
        <ele>454.8</ele>
        <time>2018-04-07T12:36:15.000Z</time>
      </trkpt>
      <trkpt lat="43.54093" lon="2.92852">
        <ele>453.6</ele>
        <time>2018-04-07T12:36:16.000Z</time>
      </trkpt>
      <trkpt lat="43.541" lon="2.92871">
        <ele>448.4</ele>
        <time>2018-04-07T12:36:19.000Z</time>
      </trkpt>
      <trkpt lat="43.54113" lon="2.92924">
        <ele>433.7</ele>
        <time>2018-04-07T12:36:24.000Z</time>
      </trkpt>
      <trkpt lat="43.54113" lon="2.92947">
        <ele>430.1</ele>
        <time>2018-04-07T12:36:26.000Z</time>
      </trkpt>
      <trkpt lat="43.54112" lon="2.92964">
        <ele>427.6</ele>
        <time>2018-04-07T12:36:28.000Z</time>
      </trkpt>
      <trkpt lat="43.54114" lon="2.92968">
        <ele>426.9</ele>
        <time>2018-04-07T12:36:32.000Z</time>
      </trkpt>
      <trkpt lat="43.54126" lon="2.92952">
        <ele>424.2</ele>
        <time>2018-04-07T12:36:36.000Z</time>
      </trkpt>
      <trkpt lat="43.54135" lon="2.92932">
        <ele>422.6</ele>
        <time>2018-04-07T12:36:38.000Z</time>
      </trkpt>
      <trkpt lat="43.54151" lon="2.92873">
        <ele>424.3</ele>
        <time>2018-04-07T12:36:44.000Z</time>
      </trkpt>
      <trkpt lat="43.54151" lon="2.92878">
        <ele>423.5</ele>
        <time>2018-04-07T12:36:46.000Z</time>
      </trkpt>
      <trkpt lat="43.54158" lon="2.92916">
        <ele>415.9</ele>
        <time>2018-04-07T12:36:51.000Z</time>
      </trkpt>
      <trkpt lat="43.54157" lon="2.92971">
        <ele>410.5</ele>
        <time>2018-04-07T12:36:56.000Z</time>
      </trkpt>
      <trkpt lat="43.54152" lon="2.92996">
        <ele>410.5</ele>
        <time>2018-04-07T12:36:58.000Z</time>
      </trkpt>
      <trkpt lat="43.54144" lon="2.93018">
        <ele>412.4</ele>
        <time>2018-04-07T12:37:00.000Z</time>
      </trkpt>
      <trkpt lat="43.54108" lon="2.93076">
        <ele>419.3</ele>
        <time>2018-04-07T12:37:06.000Z</time>
      </trkpt>
      <trkpt lat="43.54097" lon="2.93088">
        <ele>421</ele>
        <time>2018-04-07T12:37:08.000Z</time>
      </trkpt>
      <trkpt lat="43.54086" lon="2.93084">
        <ele>423.2</ele>
        <time>2018-04-07T12:37:16.000Z</time>
      </trkpt>
      <trkpt lat="43.54088" lon="2.93082">
        <ele>422.3</ele>
        <time>2018-04-07T12:37:17.000Z</time>
      </trkpt>
      <trkpt lat="43.54113" lon="2.93057">
        <ele>417.5</ele>
        <time>2018-04-07T12:37:26.000Z</time>
      </trkpt>
      <trkpt lat="43.54127" lon="2.93057">
        <ele>415</ele>
        <time>2018-04-07T12:37:29.000Z</time>
      </trkpt>
      <trkpt lat="43.54138" lon="2.93057">
        <ele>412.5</ele>
        <time>2018-04-07T12:37:31.000Z</time>
      </trkpt>
      <trkpt lat="43.54159" lon="2.93059">
        <ele>409.2</ele>
        <time>2018-04-07T12:37:36.000Z</time>
      </trkpt>
      <trkpt lat="43.5417" lon="2.93056">
        <ele>408.3</ele>
        <time>2018-04-07T12:37:38.000Z</time>
      </trkpt>
      <trkpt lat="43.54213" lon="2.93039">
        <ele>407</ele>
        <time>2018-04-07T12:37:44.000Z</time>
      </trkpt>
      <trkpt lat="43.54224" lon="2.93029">
        <ele>407.2</ele>
        <time>2018-04-07T12:37:46.000Z</time>
      </trkpt>
      <trkpt lat="43.54228" lon="2.93023">
        <ele>406.6</ele>
        <time>2018-04-07T12:37:47.000Z</time>
      </trkpt>
      <trkpt lat="43.54234" lon="2.93014">
        <ele>406.1</ele>
        <time>2018-04-07T12:37:49.000Z</time>
      </trkpt>
      <trkpt lat="43.54253" lon="2.92997">
        <ele>406.7</ele>
        <time>2018-04-07T12:37:56.000Z</time>
      </trkpt>
      <trkpt lat="43.54258" lon="2.92996">
        <ele>406.6</ele>
        <time>2018-04-07T12:38:03.000Z</time>
      </trkpt>
      <trkpt lat="43.54256" lon="2.92999">
        <ele>406.6</ele>
        <time>2018-04-07T12:39:29.000Z</time>
      </trkpt>
      <trkpt lat="43.5425" lon="2.93008">
        <ele>406.6</ele>
        <time>2018-04-07T12:39:36.000Z</time>
      </trkpt>
      <trkpt lat="43.54242" lon="2.93023">
        <ele>407.2</ele>
        <time>2018-04-07T12:39:45.000Z</time>
      </trkpt>
      <trkpt lat="43.54242" lon="2.93026">
        <ele>407.8</ele>
        <time>2018-04-07T12:39:46.000Z</time>
      </trkpt>
      <trkpt lat="43.54246" lon="2.9303">
        <ele>408.9</ele>
        <time>2018-04-07T12:39:50.000Z</time>
      </trkpt>
      <trkpt lat="43.54254" lon="2.9302">
        <ele>409.3</ele>
        <time>2018-04-07T12:39:56.000Z</time>
      </trkpt>
      <trkpt lat="43.5427" lon="2.93008">
        <ele>409.3</ele>
        <time>2018-04-07T12:40:06.000Z</time>
      </trkpt>
      <trkpt lat="43.54285" lon="2.92999">
        <ele>410.5</ele>
        <time>2018-04-07T12:40:16.000Z</time>
      </trkpt>
      <trkpt lat="43.543" lon="2.92988">
        <ele>412.1</ele>
        <time>2018-04-07T12:40:26.000Z</time>
      </trkpt>
      <trkpt lat="43.54313" lon="2.92974">
        <ele>411.1</ele>
        <time>2018-04-07T12:40:36.000Z</time>
      </trkpt>
      <trkpt lat="43.54327" lon="2.92958">
        <ele>411.3</ele>
        <time>2018-04-07T12:40:46.000Z</time>
      </trkpt>
      <trkpt lat="43.54342" lon="2.92944">
        <ele>410.9</ele>
        <time>2018-04-07T12:40:56.000Z</time>
      </trkpt>
      <trkpt lat="43.54356" lon="2.92931">
        <ele>412.4</ele>
        <time>2018-04-07T12:41:06.000Z</time>
      </trkpt>
      <trkpt lat="43.54368" lon="2.92914">
        <ele>413.1</ele>
        <time>2018-04-07T12:41:16.000Z</time>
      </trkpt>
      <trkpt lat="43.54374" lon="2.92892">
        <ele>411.6</ele>
        <time>2018-04-07T12:41:26.000Z</time>
      </trkpt>
      <trkpt lat="43.54384" lon="2.92869">
        <ele>409.4</ele>
        <time>2018-04-07T12:41:36.000Z</time>
      </trkpt>
      <trkpt lat="43.54395" lon="2.92847">
        <ele>408.3</ele>
        <time>2018-04-07T12:41:46.000Z</time>
      </trkpt>
      <trkpt lat="43.54407" lon="2.92826">
        <ele>408.2</ele>
        <time>2018-04-07T12:41:56.000Z</time>
      </trkpt>
      <trkpt lat="43.54417" lon="2.92809">
        <ele>408.2</ele>
        <time>2018-04-07T12:42:06.000Z</time>
      </trkpt>
      <trkpt lat="43.54424" lon="2.92787">
        <ele>407.2</ele>
        <time>2018-04-07T12:42:16.000Z</time>
      </trkpt>
      <trkpt lat="43.54435" lon="2.92769">
        <ele>407.2</ele>
        <time>2018-04-07T12:42:26.000Z</time>
      </trkpt>
      <trkpt lat="43.54443" lon="2.92748">
        <ele>407</ele>
        <time>2018-04-07T12:42:36.000Z</time>
      </trkpt>
      <trkpt lat="43.54452" lon="2.92727">
        <ele>407.4</ele>
        <time>2018-04-07T12:42:46.000Z</time>
      </trkpt>
      <trkpt lat="43.54457" lon="2.92713">
        <ele>407.8</ele>
        <time>2018-04-07T12:42:55.000Z</time>
      </trkpt>
      <trkpt lat="43.54457" lon="2.92711">
        <ele>407.9</ele>
        <time>2018-04-07T12:42:56.000Z</time>
      </trkpt>
      <trkpt lat="43.54458" lon="2.92709">
        <ele>408</ele>
        <time>2018-04-07T12:42:58.000Z</time>
      </trkpt>
      <trkpt lat="43.5446" lon="2.92708">
        <ele>408.3</ele>
        <time>2018-04-07T12:43:00.000Z</time>
      </trkpt>
      <trkpt lat="43.54463" lon="2.9272">
        <ele>408.7</ele>
        <time>2018-04-07T12:43:06.000Z</time>
      </trkpt>
      <trkpt lat="43.54464" lon="2.92743">
        <ele>410.4</ele>
        <time>2018-04-07T12:43:16.000Z</time>
      </trkpt>
      <trkpt lat="43.54467" lon="2.92764">
        <ele>412.5</ele>
        <time>2018-04-07T12:43:26.000Z</time>
      </trkpt>
      <trkpt lat="43.54472" lon="2.92786">
        <ele>416</ele>
        <time>2018-04-07T12:43:36.000Z</time>
      </trkpt>
      <trkpt lat="43.54475" lon="2.92806">
        <ele>418.6</ele>
        <time>2018-04-07T12:43:46.000Z</time>
      </trkpt>
      <trkpt lat="43.54478" lon="2.92828">
        <ele>422.8</ele>
        <time>2018-04-07T12:43:56.000Z</time>
      </trkpt>
      <trkpt lat="43.54484" lon="2.92851">
        <ele>426.9</ele>
        <time>2018-04-07T12:44:06.000Z</time>
      </trkpt>
      <trkpt lat="43.54491" lon="2.92873">
        <ele>430.9</ele>
        <time>2018-04-07T12:44:16.000Z</time>
      </trkpt>
      <trkpt lat="43.54497" lon="2.92895">
        <ele>434.4</ele>
        <time>2018-04-07T12:44:26.000Z</time>
      </trkpt>
      <trkpt lat="43.54501" lon="2.92916">
        <ele>439.2</ele>
        <time>2018-04-07T12:44:36.000Z</time>
      </trkpt>
      <trkpt lat="43.54502" lon="2.92937">
        <ele>445.7</ele>
        <time>2018-04-07T12:44:46.000Z</time>
      </trkpt>
      <trkpt lat="43.54498" lon="2.92957">
        <ele>452</ele>
        <time>2018-04-07T12:44:56.000Z</time>
      </trkpt>
      <trkpt lat="43.54495" lon="2.92975">
        <ele>451.7</ele>
        <time>2018-04-07T12:45:06.000Z</time>
      </trkpt>
      <trkpt lat="43.54506" lon="2.92996">
        <ele>451.3</ele>
        <time>2018-04-07T12:45:16.000Z</time>
      </trkpt>
      <trkpt lat="43.54546" lon="2.9304">
        <ele>451.1</ele>
        <time>2018-04-07T12:45:26.000Z</time>
      </trkpt>
      <trkpt lat="43.54581" lon="2.93076">
        <ele>454.5</ele>
        <time>2018-04-07T12:45:36.000Z</time>
      </trkpt>
      <trkpt lat="43.54606" lon="2.93105">
        <ele>454.6</ele>
        <time>2018-04-07T12:45:46.000Z</time>
      </trkpt>
      <trkpt lat="43.54614" lon="2.93142">
        <ele>453.3</ele>
        <time>2018-04-07T12:45:56.000Z</time>
      </trkpt>
      <trkpt lat="43.54602" lon="2.93167">
        <ele>452.3</ele>
        <time>2018-04-07T12:46:05.000Z</time>
      </trkpt>
      <trkpt lat="43.54606" lon="2.93165">
        <ele>449.4</ele>
        <time>2018-04-07T12:47:12.000Z</time>
      </trkpt>
      <trkpt lat="43.54619" lon="2.93161">
        <ele>443.8</ele>
        <time>2018-04-07T12:47:16.000Z</time>
      </trkpt>
      <trkpt lat="43.54651" lon="2.93147">
        <ele>431.3</ele>
        <time>2018-04-07T12:47:26.000Z</time>
      </trkpt>
      <trkpt lat="43.54661" lon="2.93138">
        <ele>427.6</ele>
        <time>2018-04-07T12:47:29.000Z</time>
      </trkpt>
      <trkpt lat="43.54669" lon="2.93128">
        <ele>423.3</ele>
        <time>2018-04-07T12:47:31.000Z</time>
      </trkpt>
      <trkpt lat="43.54676" lon="2.93119">
        <ele>420.3</ele>
        <time>2018-04-07T12:47:33.000Z</time>
      </trkpt>
      <trkpt lat="43.54686" lon="2.93108">
        <ele>416.5</ele>
        <time>2018-04-07T12:47:36.000Z</time>
      </trkpt>
      <trkpt lat="43.54693" lon="2.93106">
        <ele>413.7</ele>
        <time>2018-04-07T12:47:38.000Z</time>
      </trkpt>
      <trkpt lat="43.54696" lon="2.93111">
        <ele>412.6</ele>
        <time>2018-04-07T12:47:40.000Z</time>
      </trkpt>
      <trkpt lat="43.54702" lon="2.9312">
        <ele>410.6</ele>
        <time>2018-04-07T12:47:44.000Z</time>
      </trkpt>
      <trkpt lat="43.54708" lon="2.93122">
        <ele>408.4</ele>
        <time>2018-04-07T12:47:46.000Z</time>
      </trkpt>
      <trkpt lat="43.54722" lon="2.93117">
        <ele>401.9</ele>
        <time>2018-04-07T12:47:49.000Z</time>
      </trkpt>
      <trkpt lat="43.54741" lon="2.93104">
        <ele>394.2</ele>
        <time>2018-04-07T12:47:53.000Z</time>
      </trkpt>
      <trkpt lat="43.54751" lon="2.93097">
        <ele>390.6</ele>
        <time>2018-04-07T12:47:56.000Z</time>
      </trkpt>
      <trkpt lat="43.54766" lon="2.9309">
        <ele>385.3</ele>
        <time>2018-04-07T12:48:00.000Z</time>
      </trkpt>
      <trkpt lat="43.54785" lon="2.93074">
        <ele>378.7</ele>
        <time>2018-04-07T12:48:06.000Z</time>
      </trkpt>
      <trkpt lat="43.54797" lon="2.93076">
        <ele>374.9</ele>
        <time>2018-04-07T12:48:09.000Z</time>
      </trkpt>
      <trkpt lat="43.54807" lon="2.9308">
        <ele>371.7</ele>
        <time>2018-04-07T12:48:11.000Z</time>
      </trkpt>
      <trkpt lat="43.54824" lon="2.93088">
        <ele>365.6</ele>
        <time>2018-04-07T12:48:14.000Z</time>
      </trkpt>
      <trkpt lat="43.54832" lon="2.93092">
        <ele>363.3</ele>
        <time>2018-04-07T12:48:16.000Z</time>
      </trkpt>
      <trkpt lat="43.54841" lon="2.93097">
        <ele>360</ele>
        <time>2018-04-07T12:48:18.000Z</time>
      </trkpt>
      <trkpt lat="43.54851" lon="2.93099">
        <ele>356.7</ele>
        <time>2018-04-07T12:48:20.000Z</time>
      </trkpt>
      <trkpt lat="43.54859" lon="2.93097">
        <ele>352.8</ele>
        <time>2018-04-07T12:48:22.000Z</time>
      </trkpt>
      <trkpt lat="43.5487" lon="2.93089">
        <ele>349.8</ele>
        <time>2018-04-07T12:48:25.000Z</time>
      </trkpt>
      <trkpt lat="43.54874" lon="2.93088">
        <ele>347.5</ele>
        <time>2018-04-07T12:48:26.000Z</time>
      </trkpt>
      <trkpt lat="43.54878" lon="2.93087">
        <ele>346.3</ele>
        <time>2018-04-07T12:48:27.000Z</time>
      </trkpt>
      <trkpt lat="43.54885" lon="2.93083">
        <ele>344.5</ele>
        <time>2018-04-07T12:48:29.000Z</time>
      </trkpt>
      <trkpt lat="43.54894" lon="2.93075">
        <ele>341.7</ele>
        <time>2018-04-07T12:48:31.000Z</time>
      </trkpt>
      <trkpt lat="43.5491" lon="2.93064">
        <ele>337.8</ele>
        <time>2018-04-07T12:48:36.000Z</time>
      </trkpt>
      <trkpt lat="43.54919" lon="2.93064">
        <ele>334.1</ele>
        <time>2018-04-07T12:48:38.000Z</time>
      </trkpt>
      <trkpt lat="43.54927" lon="2.93067">
        <ele>330.2</ele>
        <time>2018-04-07T12:48:40.000Z</time>
      </trkpt>
      <trkpt lat="43.54945" lon="2.93078">
        <ele>321.8</ele>
        <time>2018-04-07T12:48:46.000Z</time>
      </trkpt>
      <trkpt lat="43.54966" lon="2.93072">
        <ele>315.2</ele>
        <time>2018-04-07T12:48:56.000Z</time>
      </trkpt>
      <trkpt lat="43.5497" lon="2.93065">
        <ele>314.7</ele>
        <time>2018-04-07T12:49:02.000Z</time>
      </trkpt>
      <trkpt lat="43.54972" lon="2.93059">
        <ele>315.5</ele>
        <time>2018-04-07T12:49:46.000Z</time>
      </trkpt>
      <trkpt lat="43.5499" lon="2.93029">
        <ele>313.4</ele>
        <time>2018-04-07T12:49:56.000Z</time>
      </trkpt>
      <trkpt lat="43.54996" lon="2.9302">
        <ele>312.6</ele>
        <time>2018-04-07T12:49:58.000Z</time>
      </trkpt>
      <trkpt lat="43.55012" lon="2.92996">
        <ele>309.7</ele>
        <time>2018-04-07T12:50:06.000Z</time>
      </trkpt>
      <trkpt lat="43.55025" lon="2.92986">
        <ele>306.6</ele>
        <time>2018-04-07T12:50:10.000Z</time>
      </trkpt>
      <trkpt lat="43.55049" lon="2.92977">
        <ele>300.3</ele>
        <time>2018-04-07T12:50:14.000Z</time>
      </trkpt>
      <trkpt lat="43.5506" lon="2.92968">
        <ele>297.1</ele>
        <time>2018-04-07T12:50:16.000Z</time>
      </trkpt>
      <trkpt lat="43.55065" lon="2.92958">
        <ele>296.5</ele>
        <time>2018-04-07T12:50:18.000Z</time>
      </trkpt>
      <trkpt lat="43.55069" lon="2.92951">
        <ele>295.7</ele>
        <time>2018-04-07T12:50:20.000Z</time>
      </trkpt>
      <trkpt lat="43.55077" lon="2.92949">
        <ele>293.7</ele>
        <time>2018-04-07T12:50:23.000Z</time>
      </trkpt>
      <trkpt lat="43.55086" lon="2.92944">
        <ele>291.5</ele>
        <time>2018-04-07T12:50:26.000Z</time>
      </trkpt>
      <trkpt lat="43.5509" lon="2.92944">
        <ele>290.8</ele>
        <time>2018-04-07T12:50:27.000Z</time>
      </trkpt>
      <trkpt lat="43.55099" lon="2.92945">
        <ele>289</ele>
        <time>2018-04-07T12:50:29.000Z</time>
      </trkpt>
      <trkpt lat="43.55107" lon="2.92947">
        <ele>287.1</ele>
        <time>2018-04-07T12:50:31.000Z</time>
      </trkpt>
      <trkpt lat="43.55117" lon="2.92951">
        <ele>285.2</ele>
        <time>2018-04-07T12:50:33.000Z</time>
      </trkpt>
      <trkpt lat="43.55127" lon="2.92948">
        <ele>283.7</ele>
        <time>2018-04-07T12:50:35.000Z</time>
      </trkpt>
      <trkpt lat="43.55131" lon="2.92947">
        <ele>283.2</ele>
        <time>2018-04-07T12:50:36.000Z</time>
      </trkpt>
      <trkpt lat="43.55141" lon="2.92944">
        <ele>281.8</ele>
        <time>2018-04-07T12:50:38.000Z</time>
      </trkpt>
      <trkpt lat="43.55149" lon="2.9294">
        <ele>280.4</ele>
        <time>2018-04-07T12:50:40.000Z</time>
      </trkpt>
      <trkpt lat="43.55165" lon="2.92941">
        <ele>278.2</ele>
        <time>2018-04-07T12:50:43.000Z</time>
      </trkpt>
      <trkpt lat="43.55175" lon="2.92932">
        <ele>276.6</ele>
        <time>2018-04-07T12:50:45.000Z</time>
      </trkpt>
      <trkpt lat="43.55179" lon="2.92925">
        <ele>275.6</ele>
        <time>2018-04-07T12:50:46.000Z</time>
      </trkpt>
      <trkpt lat="43.55185" lon="2.92919">
        <ele>274.7</ele>
        <time>2018-04-07T12:50:47.000Z</time>
      </trkpt>
      <trkpt lat="43.55201" lon="2.92913">
        <ele>272</ele>
        <time>2018-04-07T12:50:49.000Z</time>
      </trkpt>
      <trkpt lat="43.55215" lon="2.92912">
        <ele>269.9</ele>
        <time>2018-04-07T12:50:51.000Z</time>
      </trkpt>
      <trkpt lat="43.55228" lon="2.92912">
        <ele>267.2</ele>
        <time>2018-04-07T12:50:53.000Z</time>
      </trkpt>
      <trkpt lat="43.55239" lon="2.92913">
        <ele>264.2</ele>
        <time>2018-04-07T12:50:55.000Z</time>
      </trkpt>
      <trkpt lat="43.55245" lon="2.92916">
        <ele>262.9</ele>
        <time>2018-04-07T12:50:56.000Z</time>
      </trkpt>
      <trkpt lat="43.55255" lon="2.92921">
        <ele>260.5</ele>
        <time>2018-04-07T12:50:58.000Z</time>
      </trkpt>
      <trkpt lat="43.55266" lon="2.92923">
        <ele>257.5</ele>
        <time>2018-04-07T12:51:00.000Z</time>
      </trkpt>
      <trkpt lat="43.55275" lon="2.92928">
        <ele>255.1</ele>
        <time>2018-04-07T12:51:02.000Z</time>
      </trkpt>
      <trkpt lat="43.5529" lon="2.92923">
        <ele>251</ele>
        <time>2018-04-07T12:51:06.000Z</time>
      </trkpt>
      <trkpt lat="43.553" lon="2.92921">
        <ele>248.8</ele>
        <time>2018-04-07T12:51:10.000Z</time>
      </trkpt>
      <trkpt lat="43.55306" lon="2.92917">
        <ele>247.2</ele>
        <time>2018-04-07T12:51:12.000Z</time>
      </trkpt>
      <trkpt lat="43.55318" lon="2.92926">
        <ele>243.7</ele>
        <time>2018-04-07T12:51:15.000Z</time>
      </trkpt>
      <trkpt lat="43.55322" lon="2.92931">
        <ele>242.6</ele>
        <time>2018-04-07T12:51:16.000Z</time>
      </trkpt>
      <trkpt lat="43.55324" lon="2.92932">
        <ele>242.2</ele>
        <time>2018-04-07T12:51:17.000Z</time>
      </trkpt>
      <trkpt lat="43.55332" lon="2.92928">
        <ele>239.6</ele>
        <time>2018-04-07T12:51:19.000Z</time>
      </trkpt>
      <trkpt lat="43.55344" lon="2.92915">
        <ele>236.6</ele>
        <time>2018-04-07T12:51:22.000Z</time>
      </trkpt>
      <trkpt lat="43.55353" lon="2.92925">
        <ele>233.5</ele>
        <time>2018-04-07T12:51:25.000Z</time>
      </trkpt>
      <trkpt lat="43.55355" lon="2.92933">
        <ele>232.7</ele>
        <time>2018-04-07T12:51:26.000Z</time>
      </trkpt>
      <trkpt lat="43.55363" lon="2.92945">
        <ele>228.8</ele>
        <time>2018-04-07T12:51:29.000Z</time>
      </trkpt>
      <trkpt lat="43.55373" lon="2.92939">
        <ele>227.2</ele>
        <time>2018-04-07T12:51:31.000Z</time>
      </trkpt>
      <trkpt lat="43.55391" lon="2.92931">
        <ele>223.6</ele>
        <time>2018-04-07T12:51:34.000Z</time>
      </trkpt>
      <trkpt lat="43.55405" lon="2.92919">
        <ele>221.5</ele>
        <time>2018-04-07T12:51:36.000Z</time>
      </trkpt>
      <trkpt lat="43.55418" lon="2.92908">
        <ele>219.7</ele>
        <time>2018-04-07T12:51:38.000Z</time>
      </trkpt>
      <trkpt lat="43.55426" lon="2.92896">
        <ele>218.3</ele>
        <time>2018-04-07T12:51:40.000Z</time>
      </trkpt>
      <trkpt lat="43.55426" lon="2.92884">
        <ele>218</ele>
        <time>2018-04-07T12:51:42.000Z</time>
      </trkpt>
      <trkpt lat="43.55425" lon="2.92872">
        <ele>217.6</ele>
        <time>2018-04-07T12:51:44.000Z</time>
      </trkpt>
      <trkpt lat="43.5543" lon="2.92863">
        <ele>216.6</ele>
        <time>2018-04-07T12:51:46.000Z</time>
      </trkpt>
      <trkpt lat="43.55442" lon="2.92844">
        <ele>212.8</ele>
        <time>2018-04-07T12:51:52.000Z</time>
      </trkpt>
      <trkpt lat="43.55439" lon="2.92835">
        <ele>212.4</ele>
        <time>2018-04-07T12:51:54.000Z</time>
      </trkpt>
      <trkpt lat="43.55436" lon="2.92821">
        <ele>211.3</ele>
        <time>2018-04-07T12:51:56.000Z</time>
      </trkpt>
      <trkpt lat="43.55435" lon="2.92815">
        <ele>210.1</ele>
        <time>2018-04-07T12:51:57.000Z</time>
      </trkpt>
      <trkpt lat="43.5543" lon="2.92803">
        <ele>208.5</ele>
        <time>2018-04-07T12:51:59.000Z</time>
      </trkpt>
      <trkpt lat="43.55423" lon="2.92791">
        <ele>208.4</ele>
        <time>2018-04-07T12:52:01.000Z</time>
      </trkpt>
      <trkpt lat="43.55418" lon="2.92788">
        <ele>208.2</ele>
        <time>2018-04-07T12:52:03.000Z</time>
      </trkpt>
      <trkpt lat="43.55417" lon="2.92789">
        <ele>208.8</ele>
        <time>2018-04-07T12:52:06.000Z</time>
      </trkpt>
      <trkpt lat="43.55413" lon="2.92786">
        <ele>209.4</ele>
        <time>2018-04-07T12:53:02.000Z</time>
      </trkpt>
      <trkpt lat="43.55404" lon="2.9278">
        <ele>209.9</ele>
        <time>2018-04-07T12:53:06.000Z</time>
      </trkpt>
      <trkpt lat="43.55381" lon="2.92762">
        <ele>212.3</ele>
        <time>2018-04-07T12:53:16.000Z</time>
      </trkpt>
      <trkpt lat="43.55359" lon="2.92742">
        <ele>213.8</ele>
        <time>2018-04-07T12:53:26.000Z</time>
      </trkpt>
      <trkpt lat="43.55336" lon="2.92723">
        <ele>217</ele>
        <time>2018-04-07T12:53:36.000Z</time>
      </trkpt>
      <trkpt lat="43.55315" lon="2.92708">
        <ele>218.6</ele>
        <time>2018-04-07T12:53:46.000Z</time>
      </trkpt>
      <trkpt lat="43.55289" lon="2.92694">
        <ele>220</ele>
        <time>2018-04-07T12:53:56.000Z</time>
      </trkpt>
      <trkpt lat="43.55257" lon="2.9269">
        <ele>223.6</ele>
        <time>2018-04-07T12:54:06.000Z</time>
      </trkpt>
      <trkpt lat="43.5523" lon="2.92697">
        <ele>227.5</ele>
        <time>2018-04-07T12:54:16.000Z</time>
      </trkpt>
      <trkpt lat="43.55204" lon="2.92702">
        <ele>229</ele>
        <time>2018-04-07T12:54:26.000Z</time>
      </trkpt>
      <trkpt lat="43.55176" lon="2.92702">
        <ele>230.1</ele>
        <time>2018-04-07T12:54:36.000Z</time>
      </trkpt>
      <trkpt lat="43.55151" lon="2.92703">
        <ele>231</ele>
        <time>2018-04-07T12:54:46.000Z</time>
      </trkpt>
      <trkpt lat="43.55129" lon="2.92705">
        <ele>232.1</ele>
        <time>2018-04-07T12:54:56.000Z</time>
      </trkpt>
      <trkpt lat="43.55109" lon="2.9271">
        <ele>234.7</ele>
        <time>2018-04-07T12:55:06.000Z</time>
      </trkpt>
      <trkpt lat="43.55092" lon="2.92711">
        <ele>236.9</ele>
        <time>2018-04-07T12:55:16.000Z</time>
      </trkpt>
      <trkpt lat="43.55075" lon="2.92702">
        <ele>239</ele>
        <time>2018-04-07T12:55:26.000Z</time>
      </trkpt>
      <trkpt lat="43.55059" lon="2.92694">
        <ele>241.2</ele>
        <time>2018-04-07T12:55:36.000Z</time>
      </trkpt>
      <trkpt lat="43.55044" lon="2.92682">
        <ele>244.5</ele>
        <time>2018-04-07T12:55:46.000Z</time>
      </trkpt>
      <trkpt lat="43.55026" lon="2.9267">
        <ele>248.4</ele>
        <time>2018-04-07T12:55:56.000Z</time>
      </trkpt>
      <trkpt lat="43.55007" lon="2.92658">
        <ele>254.1</ele>
        <time>2018-04-07T12:56:06.000Z</time>
      </trkpt>
      <trkpt lat="43.54991" lon="2.92643">
        <ele>258.5</ele>
        <time>2018-04-07T12:56:16.000Z</time>
      </trkpt>
      <trkpt lat="43.54993" lon="2.92633">
        <ele>258.9</ele>
        <time>2018-04-07T12:56:22.000Z</time>
      </trkpt>
      <trkpt lat="43.54997" lon="2.92632">
        <ele>258.2</ele>
        <time>2018-04-07T12:56:26.000Z</time>
      </trkpt>
      <trkpt lat="43.55022" lon="2.92627">
        <ele>252.9</ele>
        <time>2018-04-07T12:56:36.000Z</time>
      </trkpt>
      <trkpt lat="43.55044" lon="2.92622">
        <ele>248.9</ele>
        <time>2018-04-07T12:56:46.000Z</time>
      </trkpt>
      <trkpt lat="43.5507" lon="2.92615">
        <ele>244.3</ele>
        <time>2018-04-07T12:56:56.000Z</time>
      </trkpt>
      <trkpt lat="43.55091" lon="2.9261">
        <ele>242.1</ele>
        <time>2018-04-07T12:57:06.000Z</time>
      </trkpt>
      <trkpt lat="43.55115" lon="2.92605">
        <ele>241.6</ele>
        <time>2018-04-07T12:57:16.000Z</time>
      </trkpt>
      <trkpt lat="43.55136" lon="2.92594">
        <ele>242.2</ele>
        <time>2018-04-07T12:57:26.000Z</time>
      </trkpt>
      <trkpt lat="43.55153" lon="2.92586">
        <ele>243</ele>
        <time>2018-04-07T12:57:36.000Z</time>
      </trkpt>
      <trkpt lat="43.55159" lon="2.92582">
        <ele>243.7</ele>
        <time>2018-04-07T12:57:52.000Z</time>
      </trkpt>
      <trkpt lat="43.55173" lon="2.92575">
        <ele>244</ele>
        <time>2018-04-07T12:57:56.000Z</time>
      </trkpt>
      <trkpt lat="43.55192" lon="2.9256">
        <ele>244.2</ele>
        <time>2018-04-07T12:58:00.000Z</time>
      </trkpt>
      <trkpt lat="43.55204" lon="2.92547">
        <ele>244.9</ele>
        <time>2018-04-07T12:58:02.000Z</time>
      </trkpt>
      <trkpt lat="43.55232" lon="2.92537">
        <ele>240.3</ele>
        <time>2018-04-07T12:58:06.000Z</time>
      </trkpt>
      <trkpt lat="43.55245" lon="2.92526">
        <ele>239.4</ele>
        <time>2018-04-07T12:58:08.000Z</time>
      </trkpt>
      <trkpt lat="43.55265" lon="2.92508">
        <ele>238.8</ele>
        <time>2018-04-07T12:58:11.000Z</time>
      </trkpt>
      <trkpt lat="43.55277" lon="2.92502">
        <ele>237.3</ele>
        <time>2018-04-07T12:58:13.000Z</time>
      </trkpt>
      <trkpt lat="43.55291" lon="2.92497">
        <ele>234.2</ele>
        <time>2018-04-07T12:58:16.000Z</time>
      </trkpt>
      <trkpt lat="43.55318" lon="2.92489">
        <ele>231.3</ele>
        <time>2018-04-07T12:58:22.000Z</time>
      </trkpt>
      <trkpt lat="43.55335" lon="2.92477">
        <ele>231.1</ele>
        <time>2018-04-07T12:58:26.000Z</time>
      </trkpt>
      <trkpt lat="43.55345" lon="2.92474">
        <ele>229.7</ele>
        <time>2018-04-07T12:58:28.000Z</time>
      </trkpt>
      <trkpt lat="43.55396" lon="2.92466">
        <ele>224.6</ele>
        <time>2018-04-07T12:58:36.000Z</time>
      </trkpt>
      <trkpt lat="43.55455" lon="2.92478">
        <ele>212.7</ele>
        <time>2018-04-07T12:58:45.000Z</time>
      </trkpt>
      <trkpt lat="43.55461" lon="2.92483">
        <ele>211</ele>
        <time>2018-04-07T12:58:46.000Z</time>
      </trkpt>
      <trkpt lat="43.55468" lon="2.92486">
        <ele>209.3</ele>
        <time>2018-04-07T12:58:47.000Z</time>
      </trkpt>
      <trkpt lat="43.5548" lon="2.92481">
        <ele>205.8</ele>
        <time>2018-04-07T12:58:49.000Z</time>
      </trkpt>
      <trkpt lat="43.55495" lon="2.92458">
        <ele>203</ele>
        <time>2018-04-07T12:58:52.000Z</time>
      </trkpt>
      <trkpt lat="43.55502" lon="2.92438">
        <ele>199</ele>
        <time>2018-04-07T12:58:54.000Z</time>
      </trkpt>
      <trkpt lat="43.55503" lon="2.92414">
        <ele>198.2</ele>
        <time>2018-04-07T12:58:56.000Z</time>
      </trkpt>
      <trkpt lat="43.55497" lon="2.92391">
        <ele>199.3</ele>
        <time>2018-04-07T12:58:58.000Z</time>
      </trkpt>
      <trkpt lat="43.55482" lon="2.9236">
        <ele>202.5</ele>
        <time>2018-04-07T12:59:01.000Z</time>
      </trkpt>
      <trkpt lat="43.5547" lon="2.92348">
        <ele>206.6</ele>
        <time>2018-04-07T12:59:03.000Z</time>
      </trkpt>
      <trkpt lat="43.55451" lon="2.92334">
        <ele>211.9</ele>
        <time>2018-04-07T12:59:06.000Z</time>
      </trkpt>
      <trkpt lat="43.5544" lon="2.9232">
        <ele>213.8</ele>
        <time>2018-04-07T12:59:08.000Z</time>
      </trkpt>
      <trkpt lat="43.55432" lon="2.92302">
        <ele>214.5</ele>
        <time>2018-04-07T12:59:10.000Z</time>
      </trkpt>
      <trkpt lat="43.55418" lon="2.92248">
        <ele>210.9</ele>
        <time>2018-04-07T12:59:16.000Z</time>
      </trkpt>
      <trkpt lat="43.55412" lon="2.92233">
        <ele>210.8</ele>
        <time>2018-04-07T12:59:18.000Z</time>
      </trkpt>
      <trkpt lat="43.554" lon="2.92214">
        <ele>210.6</ele>
        <time>2018-04-07T12:59:21.000Z</time>
      </trkpt>
      <trkpt lat="43.55376" lon="2.92188">
        <ele>213.2</ele>
        <time>2018-04-07T12:59:26.000Z</time>
      </trkpt>
      <trkpt lat="43.55356" lon="2.92156">
        <ele>214.2</ele>
        <time>2018-04-07T12:59:32.000Z</time>
      </trkpt>
      <trkpt lat="43.55357" lon="2.92144">
        <ele>213</ele>
        <time>2018-04-07T12:59:34.000Z</time>
      </trkpt>
      <trkpt lat="43.55363" lon="2.92133">
        <ele>210.2</ele>
        <time>2018-04-07T12:59:36.000Z</time>
      </trkpt>
      <trkpt lat="43.55387" lon="2.92104">
        <ele>202.4</ele>
        <time>2018-04-07T12:59:41.000Z</time>
      </trkpt>
      <trkpt lat="43.55395" lon="2.92087">
        <ele>199.9</ele>
        <time>2018-04-07T12:59:43.000Z</time>
      </trkpt>
      <trkpt lat="43.55398" lon="2.92065">
        <ele>197.7</ele>
        <time>2018-04-07T12:59:45.000Z</time>
      </trkpt>
      <trkpt lat="43.55396" lon="2.92054">
        <ele>197</ele>
        <time>2018-04-07T12:59:46.000Z</time>
      </trkpt>
      <trkpt lat="43.55393" lon="2.92044">
        <ele>196.2</ele>
        <time>2018-04-07T12:59:47.000Z</time>
      </trkpt>
      <trkpt lat="43.55385" lon="2.92025">
        <ele>195.7</ele>
        <time>2018-04-07T12:59:49.000Z</time>
      </trkpt>
      <trkpt lat="43.55351" lon="2.91976">
        <ele>197.9</ele>
        <time>2018-04-07T12:59:56.000Z</time>
      </trkpt>
      <trkpt lat="43.55325" lon="2.91941">
        <ele>200.7</ele>
        <time>2018-04-07T13:00:02.000Z</time>
      </trkpt>
      <trkpt lat="43.55322" lon="2.91926">
        <ele>200.7</ele>
        <time>2018-04-07T13:00:04.000Z</time>
      </trkpt>
      <trkpt lat="43.55325" lon="2.91912">
        <ele>199.7</ele>
        <time>2018-04-07T13:00:06.000Z</time>
      </trkpt>
      <trkpt lat="43.55344" lon="2.91873">
        <ele>195.5</ele>
        <time>2018-04-07T13:00:16.000Z</time>
      </trkpt>
      <trkpt lat="43.55359" lon="2.91839">
        <ele>193</ele>
        <time>2018-04-07T13:00:24.000Z</time>
      </trkpt>
      <trkpt lat="43.55359" lon="2.91824">
        <ele>193.4</ele>
        <time>2018-04-07T13:00:26.000Z</time>
      </trkpt>
      <trkpt lat="43.55349" lon="2.91763">
        <ele>200.2</ele>
        <time>2018-04-07T13:00:34.000Z</time>
      </trkpt>
      <trkpt lat="43.55351" lon="2.91747">
        <ele>201.1</ele>
        <time>2018-04-07T13:00:36.000Z</time>
      </trkpt>
      <trkpt lat="43.55359" lon="2.9174">
        <ele>200.3</ele>
        <time>2018-04-07T13:00:38.000Z</time>
      </trkpt>
      <trkpt lat="43.55367" lon="2.9174">
        <ele>199</ele>
        <time>2018-04-07T13:00:40.000Z</time>
      </trkpt>
      <trkpt lat="43.55382" lon="2.91753">
        <ele>195.1</ele>
        <time>2018-04-07T13:00:46.000Z</time>
      </trkpt>
      <trkpt lat="43.55407" lon="2.91766">
        <ele>189.7</ele>
        <time>2018-04-07T13:00:56.000Z</time>
      </trkpt>
      <trkpt lat="43.5542" lon="2.91767">
        <ele>188.2</ele>
        <time>2018-04-07T13:00:59.000Z</time>
      </trkpt>
      <trkpt lat="43.55456" lon="2.91756">
        <ele>185.9</ele>
        <time>2018-04-07T13:01:06.000Z</time>
      </trkpt>
      <trkpt lat="43.55461" lon="2.91752">
        <ele>186.1</ele>
        <time>2018-04-07T13:01:07.000Z</time>
      </trkpt>
      <trkpt lat="43.55469" lon="2.91742">
        <ele>186.6</ele>
        <time>2018-04-07T13:01:09.000Z</time>
      </trkpt>
      <trkpt lat="43.55478" lon="2.9173">
        <ele>187.1</ele>
        <time>2018-04-07T13:01:11.000Z</time>
      </trkpt>
      <trkpt lat="43.55488" lon="2.91721">
        <ele>187.1</ele>
        <time>2018-04-07T13:01:13.000Z</time>
      </trkpt>
      <trkpt lat="43.55507" lon="2.91708">
        <ele>186.2</ele>
        <time>2018-04-07T13:01:16.000Z</time>
      </trkpt>
      <trkpt lat="43.5556" lon="2.91672">
        <ele>185.5</ele>
        <time>2018-04-07T13:01:22.000Z</time>
      </trkpt>
      <trkpt lat="43.55589" lon="2.91637">
        <ele>185.5</ele>
        <time>2018-04-07T13:01:26.000Z</time>
      </trkpt>
      <trkpt lat="43.55609" lon="2.91606">
        <ele>186</ele>
        <time>2018-04-07T13:01:35.000Z</time>
      </trkpt>
      <trkpt lat="43.55618" lon="2.91597">
        <ele>186</ele>
        <time>2018-04-07T13:01:45.000Z</time>
      </trkpt>
      <trkpt lat="43.55619" lon="2.91596">
        <ele>186</ele>
        <time>2018-04-07T13:01:46.000Z</time>
      </trkpt>
      <trkpt lat="43.55629" lon="2.91595">
        <ele>186</ele>
        <time>2018-04-07T13:01:56.000Z</time>
      </trkpt>
      <trkpt lat="43.55629" lon="2.91595">
        <ele>186</ele>
        <time>2018-04-07T13:01:57.000Z</time>
      </trkpt>
      <trkpt lat="43.55636" lon="2.91602">
        <ele>186.2</ele>
        <time>2018-04-07T13:04:10.000Z</time>
      </trkpt>
      <trkpt lat="43.55646" lon="2.91613">
        <ele>186.4</ele>
        <time>2018-04-07T13:04:16.000Z</time>
      </trkpt>
      <trkpt lat="43.55657" lon="2.91639">
        <ele>186.8</ele>
        <time>2018-04-07T13:04:26.000Z</time>
      </trkpt>
      <trkpt lat="43.5566" lon="2.91642">
        <ele>186.8</ele>
        <time>2018-04-07T13:04:30.000Z</time>
      </trkpt>
      <trkpt lat="43.55663" lon="2.91651">
        <ele>186.9</ele>
        <time>2018-04-07T13:04:36.000Z</time>
      </trkpt>
      <trkpt lat="43.55665" lon="2.91651">
        <ele>186.9</ele>
        <time>2018-04-07T13:04:38.000Z</time>
      </trkpt>
      <trkpt lat="43.55676" lon="2.91646">
        <ele>187</ele>
        <time>2018-04-07T13:04:46.000Z</time>
      </trkpt>
      <trkpt lat="43.55706" lon="2.91639">
        <ele>186.9</ele>
        <time>2018-04-07T13:04:56.000Z</time>
      </trkpt>
      <trkpt lat="43.5571" lon="2.9164">
        <ele>186.8</ele>
        <time>2018-04-07T13:04:57.000Z</time>
      </trkpt>
      <trkpt lat="43.55715" lon="2.91647">
        <ele>186.6</ele>
        <time>2018-04-07T13:04:59.000Z</time>
      </trkpt>
      <trkpt lat="43.55717" lon="2.91661">
        <ele>186.4</ele>
        <time>2018-04-07T13:05:01.000Z</time>
      </trkpt>
      <trkpt lat="43.55717" lon="2.91697">
        <ele>185.1</ele>
        <time>2018-04-07T13:05:06.000Z</time>
      </trkpt>
      <trkpt lat="43.55717" lon="2.91714">
        <ele>184</ele>
        <time>2018-04-07T13:05:08.000Z</time>
      </trkpt>
      <trkpt lat="43.5572" lon="2.91738">
        <ele>182</ele>
        <time>2018-04-07T13:05:11.000Z</time>
      </trkpt>
      <trkpt lat="43.55723" lon="2.91767">
        <ele>179.5</ele>
        <time>2018-04-07T13:05:15.000Z</time>
      </trkpt>
      <trkpt lat="43.55724" lon="2.91774">
        <ele>178.9</ele>
        <time>2018-04-07T13:05:16.000Z</time>
      </trkpt>
      <trkpt lat="43.55726" lon="2.9178">
        <ele>178.5</ele>
        <time>2018-04-07T13:05:17.000Z</time>
      </trkpt>
      <trkpt lat="43.55729" lon="2.91785">
        <ele>178.2</ele>
        <time>2018-04-07T13:05:19.000Z</time>
      </trkpt>
      <trkpt lat="43.5573" lon="2.91784">
        <ele>178.1</ele>
        <time>2018-04-07T13:05:21.000Z</time>
      </trkpt>
    </trkseg>
  </trk>
</gpx>